[[{"header":{"parameterUnit":"m.s-1","parameterCategory":1,"la1":30.6,"la2":29.2853,"lo1":-89.7004,"lo2":-87.6739,"dy":0.0162,"dx":0.0183,"nx":112,"ny":82,"refTime":"2026-04-06T00:00:00:Z","depth":0,"parameterNumber":2,"parameterNumberName":"U-component_of_WINDS"},"data":[0.0,0.0,0.0,0.0,0.0,0.0,0.0,0.0,0.0,0.0,0.0,0.0,0.0,0.0,0.0,0.0,0.0,0.0,0.0,0.0,0.0,0.0,0.0,0.0,0.0,0.0,0.0,0.0,0.0,0.0,0.0,0.0,0.0,0.0,0.0,0.0,0.0,0.0,0.0,0.0,0.0,0.0,0.0,0.0,0.0,0.0,0.0,0.0,0.0,0.0,0.0,0.0,0.0,0.0,0.0,0.0,0.0,0.0,0.0,0.0,0.0,0.0,0.0,0.0,0.0,0.0,0.0,0.0,0.0,0.0,0.0,0.0,0.0,0.0,0.0,0.0,0.0,0.0,0.0,0.0,0.0,0.0,0.0,0.0,0.0,0.0,0.0,0.0,0.0,0.0,0.0,6.6655,7.4739,7.9048,7.7364,7.5598,7.0462,6.0882,0.0,0.0,0.0,0.0,0.0,0.0,0.0,0.0,0.0,0.0,0.0,0.0,0.0,0.0,0.0,0.0,0.0,0.0,0.0,0.0,0.0,0.0,0.0,0.0,0.0,0.0,0.0,0.0,0.0,0.0,0.0,0.0,0.0,0.0,0.0,0.0,0.0,0.0,0.0,0.0,0.0,0.0,0.0,0.0,0.0,0.0,0.0,0.0,0.0,0.0,0.0,0.0,0.0,0.0,0.0,0.0,0.0,0.0,0.0,0.0,0.0,0.0,0.0,0.0,0.0,0.0,0.0,0.0,0.0,0.0,0.0,0.0,0.0,0.0,0.0,0.0,0.0,0.0,0.0,0.0,0.0,0.0,0.0,0.0,0.0,0.0,0.0,0.0,0.0,0.0,0.0,0.0,0.0,0.0,0.0,0.0,0.0,0.0,0.0,0.0,0.0,0.0,0.0,0.0,6.1441,7.2508,7.7068,7.8598,7.6927,7.3605,6.8458,6.0998,0.0,0.0,0.0,0.0,0.0,0.0,0.0,0.0,0.0,0.0,0.0,0.0,0.0,0.0,0.0,0.0,0.0,0.0,0.0,0.0,0.0,0.0,0.0,0.0,0.0,0.0,0.0,0.0,0.0,0.0,0.0,0.0,0.0,0.0,0.0,0.0,0.0,0.0,0.0,0.0,0.0,0.0,0.0,0.0,0.0,0.0,0.0,0.0,0.0,0.0,0.0,0.0,0.0,0.0,0.0,0.0,0.0,0.0,0.0,0.0,0.0,0.0,0.0,0.0,0.0,0.0,0.0,0.0,0.0,0.0,0.0,0.0,0.0,0.0,0.0,0.0,0.0,0.0,0.0,0.0,0.0,0.0,0.0,0.0,0.0,0.0,0.0,0.0,0.0,0.0,0.0,0.0,0.0,0.0,0.0,0.0,0.0,0.0,0.0,0.0,0.0,0.0,0.0,6.0255,6.5568,7.4958,7.7899,7.8519,7.6848,7.3607,6.8591,6.1448,5.7475,0.0,0.0,0.0,0.0,0.0,0.0,0.0,0.0,0.0,0.0,0.0,0.0,0.0,0.0,0.0,0.0,0.0,0.0,0.0,0.0,0.0,0.0,0.0,0.0,0.0,0.0,0.0,0.0,0.0,0.0,0.0,0.0,0.0,0.0,0.0,0.0,0.0,0.0,0.0,0.0,0.0,0.0,0.0,0.0,0.0,0.0,0.0,0.0,0.0,0.0,0.0,0.0,0.0,0.0,0.0,0.0,0.0,0.0,0.0,0.0,0.0,0.0,0.0,0.0,0.0,0.0,0.0,0.0,0.0,0.0,0.0,0.0,0.0,0.0,0.0,0.0,0.0,0.0,0.0,0.0,0.0,0.0,0.0,0.0,0.0,0.0,0.0,0.0,0.0,0.0,0.0,0.0,0.0,0.0,0.0,0.0,0.0,0.0,0.0,0.0,0.0,0.0,6.6222,7.0085,7.6141,7.7946,7.8066,7.6403,7.303,6.8072,6.1225,5.5636,0.0,0.0,0.0,0.0,0.0,0.0,0.0,0.0,0.0,0.0,0.0,0.0,0.0,0.0,0.0,0.0,0.0,0.0,0.0,0.0,0.0,0.0,0.0,0.0,0.0,0.0,0.0,0.0,0.0,0.0,0.0,0.0,0.0,0.0,0.0,0.0,0.0,0.0,0.0,0.0,0.0,0.0,0.0,0.0,0.0,0.0,0.0,0.0,0.0,0.0,0.0,0.0,0.0,0.0,0.0,0.0,0.0,0.0,0.0,0.0,0.0,0.0,0.0,0.0,0.0,0.0,0.0,0.0,0.0,0.0,0.0,0.0,0.0,0.0,0.0,0.0,0.0,0.0,0.0,0.0,0.0,0.0,0.0,0.0,0.0,0.0,0.0,0.0,0.0,0.0,0.0,0.0,0.0,0.0,0.0,0.0,0.0,0.0,0.0,0.0,0.0,0.0,6.7841,7.361,7.6667,7.7242,7.6795,7.5147,7.0315,6.5057,5.9706,5.2981,0.0,0.0,0.0,0.0,0.0,0.0,0.0,0.0,0.0,0.0,0.0,0.0,0.0,0.0,0.0,0.0,0.0,0.0,0.0,0.0,0.0,0.0,0.0,0.0,0.0,0.0,0.0,0.0,0.0,0.0,0.0,0.0,0.0,0.0,0.0,0.0,0.0,0.0,0.0,0.0,0.0,0.0,0.0,0.0,0.0,0.0,0.0,0.0,0.0,0.0,0.0,0.0,0.0,0.0,0.0,0.0,0.0,0.0,0.0,0.0,0.0,0.0,0.0,0.0,0.0,0.0,0.0,0.0,0.0,0.0,0.0,0.0,0.0,0.0,0.0,0.0,0.0,0.0,0.0,0.0,0.0,0.0,0.0,0.0,0.0,0.0,0.0,0.0,0.0,0.0,0.0,0.0,0.0,0.0,0.0,0.0,0.0,0.0,0.0,0.0,0.0,0.0,6.6716,7.2257,0.0,7.7236,7.6657,7.505,7.2138,6.7204,5.9679,0.0,0.0,0.0,0.0,0.0,0.0,0.0,0.0,0.0,0.0,0.0,0.0,0.0,0.0,0.0,0.0,0.0,0.0,0.0,0.0,0.0,0.0,0.0,0.0,0.0,0.0,0.0,0.0,0.0,0.0,0.0,0.0,0.0,0.0,0.0,0.0,0.0,0.0,0.0,0.0,0.0,0.0,0.0,0.0,0.0,0.0,0.0,0.0,0.0,0.0,0.0,0.0,0.0,0.0,0.0,0.0,0.0,0.0,0.0,0.0,0.0,0.0,0.0,0.0,0.0,0.0,0.0,0.0,0.0,0.0,0.0,0.0,0.0,0.0,0.0,0.0,0.0,0.0,0.0,0.0,0.0,0.0,0.0,0.0,0.0,0.0,0.0,0.0,0.0,0.0,0.0,0.0,0.0,0.0,0.0,0.0,0.0,0.0,0.0,0.0,0.0,0.0,6.0712,6.6936,7.2578,0.0,7.7472,7.6738,7.5388,7.2514,6.7384,5.9479,0.0,0.0,0.0,0.0,0.0,0.0,0.0,0.0,0.0,0.0,0.0,0.0,0.0,0.0,0.0,0.0,0.0,0.0,0.0,0.0,0.0,0.0,0.0,0.0,0.0,0.0,0.0,0.0,0.0,0.0,0.0,0.0,0.0,0.0,0.0,0.0,0.0,0.0,0.0,0.0,0.0,0.0,0.0,0.0,0.0,0.0,0.0,0.0,0.0,0.0,0.0,0.0,0.0,0.0,0.0,0.0,0.0,0.0,0.0,0.0,0.0,0.0,0.0,0.0,0.0,0.0,0.0,0.0,0.0,0.0,0.0,0.0,0.0,0.0,0.0,0.0,0.0,0.0,0.0,0.0,0.0,0.0,0.0,0.0,0.0,0.0,0.0,0.0,0.0,0.0,0.0,0.0,0.0,0.0,0.0,0.0,0.0,0.0,0.0,0.0,0.0,0.0,6.1045,6.9133,7.5608,7.8336,7.7839,7.6995,7.6166,7.0561,6.4638,0.0,0.0,0.0,0.0,0.0,0.0,0.0,0.0,0.0,0.0,0.0,0.0,0.0,0.0,0.0,0.0,0.0,0.0,0.0,0.0,0.0,0.0,0.0,0.0,0.0,0.0,0.0,0.0,0.0,0.0,0.0,0.0,0.0,0.0,0.0,0.0,0.0,0.0,0.0,0.0,0.0,0.0,0.0,0.0,0.0,0.0,0.0,0.0,0.0,0.0,0.0,0.0,0.0,0.0,0.0,0.0,0.0,0.0,0.0,0.0,0.0,0.0,0.0,0.0,0.0,0.0,0.0,0.0,0.0,0.0,0.0,0.0,0.0,0.0,0.0,0.0,0.0,0.0,0.0,0.0,0.0,0.0,0.0,0.0,0.0,0.0,0.0,0.0,0.0,0.0,0.0,0.0,0.0,0.0,0.0,0.0,0.0,0.0,0.0,0.0,0.0,0.0,0.0,0.0,7.1004,7.7705,7.927,7.9221,7.8479,7.7069,7.3757,6.807,5.9535,0.0,0.0,0.0,0.0,0.0,0.0,0.0,0.0,0.0,0.0,0.0,0.0,0.0,0.0,0.0,0.0,0.0,0.0,0.0,0.0,0.0,0.0,0.0,0.0,0.0,0.0,0.0,0.0,0.0,0.0,0.0,0.0,0.0,0.0,0.0,0.0,0.0,0.0,0.0,0.0,0.0,0.0,0.0,0.0,0.0,0.0,0.0,0.0,0.0,0.0,0.0,0.0,0.0,0.0,0.0,0.0,0.0,0.0,0.0,0.0,0.0,0.0,0.0,0.0,0.0,0.0,0.0,0.0,0.0,0.0,0.0,0.0,0.0,0.0,0.0,0.0,0.0,0.0,0.0,0.0,0.0,0.0,0.0,0.0,0.0,0.0,0.0,0.0,0.0,0.0,0.0,0.0,0.0,0.0,0.0,0.0,0.0,0.0,0.0,0.0,0.0,0.0,6.2768,7.177,7.8463,8.0113,7.9992,7.9258,7.7921,7.5579,7.0223,6.0999,0.0,0.0,0.0,0.0,0.0,0.0,0.0,0.0,0.0,0.0,0.0,0.0,0.0,0.0,0.0,0.0,0.0,0.0,0.0,0.0,0.0,0.0,0.0,0.0,0.0,0.0,0.0,0.0,0.0,0.0,0.0,0.0,0.0,0.0,0.0,0.0,0.0,0.0,0.0,0.0,0.0,0.0,0.0,0.0,0.0,0.0,0.0,0.0,0.0,0.0,0.0,0.0,0.0,0.0,0.0,0.0,0.0,0.0,0.0,0.0,0.0,0.0,0.0,0.0,0.0,0.0,0.0,0.0,0.0,0.0,0.0,0.0,0.0,0.0,0.0,0.0,0.0,0.0,0.0,0.0,0.0,0.0,0.0,0.0,0.0,0.0,0.0,0.0,0.0,0.0,0.0,0.0,0.0,0.0,0.0,0.0,0.0,0.0,0.0,0.0,0.0,0.0,6.3477,7.1927,7.8463,8.0857,8.0469,7.9669,7.878,7.6452,7.1416,6.3012,0.0,0.0,0.0,0.0,0.0,0.0,0.0,0.0,0.0,0.0,0.0,0.0,0.0,0.0,0.0,0.0,0.0,0.0,0.0,0.0,0.0,0.0,0.0,0.0,0.0,0.0,0.0,0.0,0.0,0.0,0.0,0.0,0.0,0.0,0.0,0.0,0.0,0.0,0.0,0.0,0.0,0.0,0.0,0.0,0.0,0.0,0.0,0.0,0.0,0.0,0.0,0.0,0.0,0.0,0.0,0.0,0.0,0.0,0.0,0.0,5.4876,0.0,0.0,0.0,0.0,0.0,0.0,0.0,0.0,0.0,0.0,0.0,0.0,0.0,0.0,0.0,0.0,0.0,0.0,0.0,0.0,0.0,0.0,0.0,0.0,0.0,0.0,0.0,0.0,0.0,0.0,0.0,0.0,0.0,0.0,0.0,0.0,0.0,0.0,0.0,0.0,0.0,6.4372,7.3303,7.9955,8.1754,8.1791,8.1093,7.9669,7.7268,7.2642,6.5099,0.0,0.0,0.0,0.0,0.0,0.0,0.0,0.0,0.0,0.0,0.0,0.0,0.0,0.0,0.0,0.0,0.0,0.0,0.0,0.0,0.0,0.0,0.0,0.0,0.0,0.0,0.0,0.0,0.0,0.0,0.0,0.0,0.0,0.0,0.0,0.0,0.0,0.0,0.0,0.0,0.0,0.0,0.0,0.0,0.0,0.0,0.0,0.0,0.0,0.0,0.0,0.0,0.0,0.0,0.0,0.0,0.0,0.0,0.0,0.0,0.0,5.7593,0.0,0.0,0.0,0.0,0.0,0.0,0.0,0.0,0.0,0.0,0.0,0.0,0.0,0.0,0.0,0.0,0.0,0.0,0.0,0.0,0.0,0.0,0.0,0.0,0.0,0.0,0.0,0.0,0.0,0.0,0.0,0.0,0.0,0.0,0.0,0.0,0.0,0.0,0.0,0.0,6.58,7.4255,8.044,8.2048,8.2194,8.1717,8.0461,7.8479,7.4691,6.8554,6.2567,0.0,0.0,0.0,0.0,0.0,0.0,0.0,0.0,0.0,0.0,0.0,0.0,0.0,0.0,0.0,0.0,0.0,0.0,0.0,0.0,0.0,0.0,0.0,0.0,0.0,0.0,0.0,0.0,0.0,0.0,0.0,0.0,0.0,0.0,0.0,0.0,0.0,0.0,0.0,0.0,0.0,0.0,0.0,0.0,0.0,0.0,0.0,0.0,0.0,0.0,0.0,0.0,0.0,0.0,7.1908,7.4581,7.3766,7.3846,7.4258,6.8091,6.5375,6.5124,0.0,0.0,0.0,0.0,0.0,0.0,0.0,0.0,0.0,0.0,0.0,0.0,0.0,0.0,0.0,0.0,0.0,0.0,0.0,0.0,0.0,0.0,0.0,0.0,0.0,6.4076,6.3628,0.0,0.0,0.0,0.0,0.0,0.0,0.0,0.0,0.0,0.0,0.0,0.0,6.7374,7.4894,8.044,8.2048,8.2194,8.1856,8.1077,7.9543,7.6644,7.2011,6.6646,6.1065,0.0,0.0,0.0,0.0,0.0,0.0,0.0,0.0,0.0,0.0,0.0,0.0,0.0,0.0,0.0,0.0,0.0,0.0,0.0,0.0,0.0,0.0,0.0,0.0,0.0,0.0,0.0,0.0,0.0,0.0,0.0,0.0,5.0176,5.1158,0.0,0.0,0.0,0.0,0.0,0.0,0.0,0.0,0.0,0.0,0.0,0.0,0.0,0.0,6.8972,7.3369,7.6085,7.7194,8.0013,8.1921,8.2994,8.2178,8.2251,8.2912,8.126,0.0,7.0243,6.9119,0.0,0.0,0.0,0.0,0.0,0.0,0.0,0.0,0.0,0.0,0.0,0.0,0.0,0.0,0.0,0.0,0.0,0.0,0.0,0.0,0.0,0.0,7.0671,7.0076,7.0144,6.9874,0.0,6.0808,5.4081,5.2756,0.0,0.0,0.0,0.0,0.0,0.0,0.0,0.0,6.856,7.5431,8.044,8.2048,8.2194,8.1856,8.1077,7.9543,7.7128,7.3597,6.9382,6.5113,6.0711,5.5969,0.0,0.0,0.0,0.0,0.0,0.0,0.0,0.0,0.0,0.0,0.0,0.0,0.0,0.0,0.0,0.0,0.0,0.0,0.0,0.0,0.0,0.0,0.0,0.0,0.0,0.0,0.0,0.0,0.0,5.1661,5.4544,5.4027,5.5247,5.4908,0.0,0.0,0.0,0.0,0.0,0.0,0.0,0.0,0.0,7.0029,7.254,7.5028,7.7553,8.0123,8.2068,8.3353,8.4747,8.6325,8.794,8.761,8.7904,8.861,8.7794,8.5179,8.1106,7.6195,7.1608,6.7233,0.0,0.0,0.0,0.0,0.0,6.3429,6.6953,0.0,0.0,0.0,0.0,0.0,0.0,0.0,0.0,0.0,0.0,0.0,0.0,0.0,0.0,7.4948,7.5388,7.5168,7.4324,6.9449,6.3963,0.0,5.773,5.5156,4.9914,0.0,0.0,0.0,0.0,0.0,7.0901,7.6397,8.044,8.2048,8.2194,8.2048,8.1709,8.0212,7.8266,7.5865,7.2386,6.8795,6.5167,6.0792,5.6161,0.0,0.0,0.0,0.0,0.0,0.0,0.0,0.0,0.0,0.0,0.0,0.0,0.0,0.0,0.0,0.0,0.0,0.0,0.0,0.0,0.0,0.0,0.0,0.0,0.0,0.0,0.0,0.0,5.5198,5.8215,5.6454,5.9389,5.9667,0.0,0.0,0.0,0.0,0.0,0.0,6.6996,6.9182,7.2341,7.6767,7.88,8.1083,8.3682,8.5015,8.6219,8.7301,8.8169,8.9458,9.1076,9.1382,9.1877,9.24,9.1803,9.095,8.9482,8.2215,7.7223,7.3773,7.0543,6.8421,6.7327,6.8495,6.9486,7.0814,7.5432,7.7055,7.668,7.4507,0.0,6.8554,6.3527,0.0,0.0,0.0,0.0,6.5146,7.0317,0.0,7.4882,7.8112,7.8927,7.8736,7.8067,7.6195,7.2716,0.0,6.4824,6.2512,5.551,0.0,0.0,0.0,0.0,6.8501,7.333,7.7385,8.044,8.2048,8.2194,8.2121,8.1901,8.0616,7.9001,7.7105,7.4544,7.1754,6.8758,6.5301,6.1196,0.0,0.0,0.0,0.0,0.0,0.0,0.0,0.0,0.0,0.0,0.0,0.0,0.0,0.0,0.0,0.0,0.0,0.0,0.0,0.0,0.0,0.0,0.0,0.0,0.0,0.0,0.0,0.0,0.0,0.0,5.8251,6.1946,0.0,0.0,0.0,0.0,6.4613,6.776,7.1284,7.5285,7.6763,7.899,8.228,8.2908,8.361,8.4538,8.7239,8.8449,8.8182,9.1294,9.2633,9.2352,9.3559,9.4125,9.4162,9.4125,9.3207,9.1372,8.6334,8.3214,8.1342,7.8023,7.6225,7.5506,7.5579,7.6122,7.7105,7.8964,7.9596,7.9698,8.0314,7.6261,7.0977,6.9889,6.737,0.0,0.0,6.9506,7.2524,7.5102,7.7047,7.856,7.9522,7.9743,7.9743,7.9669,7.8332,7.5887,0.0,6.8451,6.5609,6.3191,0.0,6.2359,6.3862,6.7077,7.0935,7.5389,7.8216,8.044,8.2048,8.2194,8.1893,8.1122,8.0285,7.8744,7.6313,7.5278,7.3692,7.1233,6.9435,6.6219,6.1343,5.6492,0.0,0.0,0.0,0.0,0.0,0.0,0.0,0.0,0.0,0.0,0.0,0.0,0.0,0.0,0.0,0.0,0.0,0.0,0.0,0.0,0.0,0.0,0.0,0.0,0.0,0.0,0.0,0.0,6.4754,6.8288,0.0,0.0,6.6135,6.7981,6.9914,7.3028,7.6157,7.9093,8.1137,8.3161,8.5368,8.6579,8.7593,8.8369,8.9374,8.9801,8.9701,9.0871,9.163,9.1945,9.2425,9.2643,9.2719,9.2946,9.278,9.2097,8.9523,8.7206,8.5078,8.2875,8.1517,8.0857,8.1379,8.2076,8.2994,8.4654,8.4866,8.4058,8.1738,7.9066,7.6431,7.4515,7.3156,7.2496,7.3553,7.4683,7.6151,7.8618,7.969,8.0351,8.1166,8.135,8.1203,8.0681,8.0086,7.9095,7.7157,7.3714,7.0246,6.741,6.754,6.7908,6.7442,7.0555,7.4123,7.729,7.9396,8.0975,8.2084,8.2194,8.1856,8.1077,7.98,7.8193,7.6203,7.4845,7.3523,7.2121,7.055,6.7871,6.4047,6.0193,5.4399,0.0,0.0,0.0,0.0,0.0,0.0,0.0,0.0,0.0,0.0,0.0,0.0,0.0,0.0,0.0,0.0,0.0,0.0,0.0,0.0,0.0,0.0,0.0,0.0,0.0,0.0,6.8441,6.8624,7.2702,7.4057,7.0333,7.1839,7.3786,7.5397,7.7989,8.052,8.2891,8.4373,8.5878,8.748,8.8164,8.876,8.9285,8.9981,9.0074,8.9681,9.0775,9.1352,9.1486,9.1646,9.1763,9.181,9.1809,9.1942,9.1981,9.075,8.9573,8.8454,8.6839,8.5885,8.5473,8.6032,8.6546,8.7178,8.8243,8.8087,8.6913,8.3976,8.2296,8.1056,7.914,7.8369,7.8332,7.9124,7.9344,7.9784,8.1738,8.2215,8.237,8.2884,8.281,8.248,8.1921,8.1371,8.0828,8.0322,7.7341,7.414,7.1754,7.1975,7.2151,7.1094,7.3656,7.6526,7.8699,8.0167,8.1305,8.2121,8.2194,8.1746,8.0681,7.9103,7.7443,7.5799,7.367,7.2246,7.1725,6.9889,6.7614,6.4964,6.0597,5.5311,4.9145,0.0,0.0,0.0,0.0,0.0,0.0,0.0,0.0,0.0,0.0,0.0,0.0,0.0,0.0,0.0,0.0,0.0,0.0,0.0,0.0,0.0,0.0,0.0,6.1286,6.6777,7.0417,6.9594,7.4876,7.7399,7.4327,7.6768,7.9221,8.0964,8.2583,8.4496,8.6799,8.6598,8.7144,8.8622,8.7575,8.6961,8.6961,8.8892,8.927,8.8065,9.1231,9.2091,9.0927,9.1416,9.1611,9.1552,9.089,9.0822,9.1088,8.9943,9.0375,9.1611,9.0024,8.941,8.9436,8.9436,8.9436,8.9473,8.9436,8.8931,8.8133,8.7316,8.5958,8.4527,8.372,8.2912,8.2443,8.3206,8.3454,8.3609,8.4389,8.4609,8.4609,8.4609,8.4013,8.3418,8.3418,8.2178,8.1077,8.104,7.9087,7.7142,7.635,7.5572,7.5058,7.5058,7.6408,0.0,7.9625,8.0534,8.1342,8.2084,8.2158,8.1497,7.989,7.8214,7.6592,7.494,7.1872,7.0117,7.0117,6.7804,6.5785,6.417,5.7813,5.3366,5.0944,0.0,0.0,0.0,0.0,0.0,0.0,0.0,0.0,0.0,0.0,0.0,0.0,0.0,0.0,0.0,0.0,0.0,0.0,0.0,0.0,0.0,0.0,6.4995,6.5361,7.0072,7.4269,7.6333,7.8928,8.0177,7.9323,8.048,8.1707,8.2747,8.4269,8.5652,8.6829,8.7308,8.7735,8.8191,8.84,8.8511,8.8511,8.9048,8.915,8.8795,8.915,8.9154,8.881,8.8428,8.7975,8.7491,8.8157,8.8537,8.8685,8.8609,8.9693,9.1264,8.9629,8.9499,9.0289,9.0289,9.062,9.1069,9.0473,9.0143,8.9702,8.8307,8.717,8.6179,8.538,8.4572,8.3985,8.4205,8.427,8.4307,8.4535,8.4609,8.4609,8.4609,8.4425,8.4123,8.3536,8.3051,8.2582,8.1966,8.0857,7.9719,7.8927,7.8597,7.845,7.845,0.0,0.0,8.0608,8.1379,8.1746,8.1379,8.1342,8.0681,7.9074,7.7378,7.5718,0.0,7.1548,7.0117,7.0117,6.8355,6.6629,6.5001,6.0297,5.6706,0.0,0.0,0.0,0.0,0.0,0.0,0.0,0.0,0.0,0.0,0.0,0.0,0.0,0.0,0.0,0.0,0.0,0.0,0.0,0.0,0.0,0.0,6.588,7.0043,7.1431,7.4149,7.7293,8.0706,8.2059,8.2949,8.3592,8.4031,8.4458,8.4877,8.5757,8.6569,8.7313,8.7753,8.8125,8.8443,8.8883,8.9086,8.9086,8.9086,8.9086,8.9086,8.868,8.8477,8.8443,8.7685,8.6974,0.0,8.6689,8.6961,8.7122,8.6808,8.7993,0.0,0.0,0.0,0.0,0.0,9.14,9.173,9.1253,9.1106,9.0886,8.9638,8.8895,8.8307,8.7142,8.6481,8.604,8.5702,8.5591,8.5591,8.5591,8.5591,8.5591,8.5591,8.5343,8.4976,8.4499,8.4123,8.3646,8.2847,0.0,0.0,8.0946,8.0257,7.9816,7.9816,8.0461,8.1004,0.0,8.1709,8.2011,8.1562,8.1489,8.0975,7.9727,7.7451,0.0,0.0,0.0,6.9155,6.8128,6.6886,0.0,0.0,0.0,0.0,0.0,0.0,0.0,0.0,5.3922,5.3723,0.0,0.0,0.0,0.0,0.0,0.0,0.0,0.0,0.0,0.0,0.0,0.0,0.0,0.0,0.0,0.0,7.0213,7.5206,7.8098,7.8631,7.9951,8.3219,8.4356,8.5405,8.6758,8.6961,8.7028,8.7028,8.7096,8.7448,8.8091,0.0,0.0,0.0,0.0,8.9086,8.9086,8.9086,8.9086,8.9086,8.9018,8.8984,8.8951,8.8192,8.7516,8.6859,8.6196,8.6067,8.6266,8.5176,8.6018,8.8133,8.9474,9.0735,9.1803,9.1803,9.1803,0.0,0.0,0.0,0.0,9.0959,9.0656,9.0326,8.8904,8.8353,8.8059,8.7463,8.7133,8.7023,8.7096,8.706,8.6986,8.6986,8.6444,8.5902,8.5829,8.5241,8.449,8.3675,8.3528,8.3316,8.259,8.113,8.0073,8.0073,8.0689,0.0,8.115,8.1746,8.2158,8.2076,0.0,0.0,8.093,7.8031,7.6203,7.6093,7.1754,6.8121,6.5802,6.5118,6.472,6.4647,6.4647,6.5308,6.6623,6.6623,6.6659,6.6586,5.9208,5.7666,0.0,0.0,0.0,0.0,0.0,0.0,0.0,0.0,0.0,0.0,0.0,0.0,0.0,0.0,0.0,6.9212,7.4468,7.885,8.1202,8.2564,8.3578,8.4309,8.5608,8.6555,8.6859,8.7448,8.7786,8.7786,8.8342,8.8748,8.8883,8.8883,0.0,8.9086,8.9086,8.9086,8.9086,8.9086,8.9086,8.9086,0.0,0.0,8.8206,8.7448,8.7028,8.6893,8.6771,8.6379,8.5887,8.5675,8.6033,8.6973,8.9142,9.0735,9.1803,9.1803,9.1803,9.1803,9.1803,9.1803,9.1767,9.162,9.1143,9.0546,9.0216,8.9234,0.0,8.8821,8.8005,8.7133,8.7802,8.75,8.6986,8.6986,8.6876,8.6582,8.5939,8.5682,8.5315,8.4535,8.4389,8.4315,8.4168,8.281,8.1754,8.1754,8.1864,8.1974,8.1974,8.2113,8.1929,8.1305,8.1224,8.0901,8.0102,7.8214,7.6775,7.613,7.2782,7.0022,6.8268,6.8678,6.8641,6.7974,6.7974,6.7797,6.748,6.748,6.7804,6.8378,6.5485,6.4567,0.0,0.0,0.0,0.0,0.0,0.0,0.0,0.0,0.0,0.0,0.0,5.8629,6.2092,0.0,6.9288,7.3866,7.743,8.0534,8.3139,8.4796,8.5743,8.5743,8.6758,8.7617,8.7955,8.8342,8.8545,8.8545,8.8883,8.9086,8.9086,8.9086,8.9086,8.9086,8.9086,8.9086,8.9086,8.9086,8.9086,8.9086,8.8748,8.8545,8.8545,8.8158,8.7786,8.7448,8.7448,8.7042,8.6332,8.5939,8.6048,8.6536,8.7735,8.8939,9.0067,9.0676,9.0907,9.0984,9.1602,9.1803,9.1803,9.1803,9.1546,9.1143,9.073,9.0032,8.9409,8.94,8.8812,8.8299,8.8711,8.8491,8.8189,8.8189,8.8189,8.7977,8.7178,8.7003,8.6636,8.5425,8.5196,8.5086,8.4682,8.3948,8.3398,8.3398,8.3398,8.3251,8.2839,8.2802,8.248,8.1672,8.1599,8.1452,8.102,7.9507,7.7855,7.6203,7.4213,7.2562,7.1358,7.1284,7.1284,7.1284,7.1284,7.1284,7.1284,7.1284,7.1497,7.1865,7.1094,7.025,0.0,0.0,0.0,0.0,0.0,0.0,0.0,0.0,5.571,6.0081,6.1717,6.3644,6.7985,7.0382,7.3184,7.7684,7.9781,8.1765,8.4458,8.6014,8.6961,8.7096,8.7753,8.8443,8.9052,8.9086,8.9086,8.9086,8.9086,8.9086,8.9086,8.9086,8.9086,8.9086,8.9086,8.9086,8.9086,8.9086,8.9086,8.9086,8.9086,8.9086,8.9086,8.9086,8.8781,8.8206,8.8057,8.7651,8.7062,8.6311,8.6185,8.6489,8.6489,8.7098,8.8076,8.9243,8.9811,9.0127,9.1125,9.1611,9.1803,9.1803,9.1803,9.1693,9.1033,9.073,9.051,8.9987,8.9657,8.9436,8.9583,8.951,8.94,8.94,8.94,8.9216,8.8564,8.8418,8.7986,8.6563,8.6269,8.6012,8.5196,8.5086,8.4967,8.4646,8.4609,8.4389,8.372,8.3638,8.3389,8.2745,8.2672,8.2553,8.2231,8.0873,7.9037,7.6717,7.5975,7.5241,7.4441,7.3634,7.3487,7.4155,7.4008,7.4258,7.4903,7.4903,7.4903,7.4903,7.5234,7.4507,5.0814,5.0345,5.1928,5.5974,5.5974,5.7354,0.0,0.0,6.4165,6.8265,7.0096,7.1186,7.1785,7.4765,7.7751,7.9646,8.1731,8.3727,8.5432,8.6399,8.713,8.7786,8.8545,8.9018,8.9086,8.9086,8.9086,8.9086,8.9086,8.9086,8.9086,8.9086,8.9086,8.9086,8.9086,8.9086,8.9086,8.9086,8.9086,8.9086,8.9086,8.9086,8.9086,8.9086,8.9052,8.8951,8.826,8.7955,8.782,8.7076,8.6786,8.682,8.682,8.6928,8.7178,8.8065,8.9068,9.0016,9.022,9.0953,9.1803,9.1803,9.1803,9.1776,9.1693,9.1179,9.073,9.1363,9.051,8.9546,9.0289,8.995,8.94,8.94,8.94,8.9363,8.929,8.9253,8.8996,8.8096,8.7912,8.7692,8.6876,8.6729,8.6252,8.4829,8.4609,8.4572,8.4499,8.4454,8.4425,8.4352,8.4315,8.3765,8.2333,8.1379,8.0131,7.8442,7.8222,7.781,7.6922,7.6122,7.5726,7.5836,7.5131,7.4801,7.4903,7.4903,7.4903,7.494,7.6371,7.6188,5.6388,5.6541,5.7656,0.0,6.1665,6.4002,6.8665,6.872,6.8732,7.2137,7.364,7.4728,7.6036,7.7942,7.9904,0.0,8.3287,8.4708,8.623,8.669,8.6995,8.7313,8.8023,8.8646,8.9052,8.9086,8.9086,8.9086,8.9086,8.9086,8.9086,8.9086,8.9086,8.9086,8.9086,8.9086,8.9086,8.9086,8.9086,8.9086,8.9086,8.9086,8.9086,8.9086,8.9086,8.9086,8.8781,8.8409,8.7989,8.7685,8.7279,8.6893,8.6893,8.6893,8.6969,8.761,8.8612,8.9703,8.995,9.081,9.1803,9.1803,9.1803,9.1803,9.1803,9.1583,9.1363,9.1693,9.1326,9.0877,9.1216,9.1069,9.0803,9.0803,9.0803,9.0656,9.0216,9.0106,8.984,8.9042,8.8895,8.8638,8.783,8.7692,8.7325,8.6179,8.5995,8.582,8.5343,8.5315,8.5123,8.4646,8.4609,8.4315,8.3654,8.2875,8.1921,8.0763,8.0241,7.9617,7.8772,7.845,7.8266,7.8266,7.7928,7.7745,7.7745,7.7745,7.7745,7.7781,7.8442,7.8405,5.9412,6.0776,0.0,6.3668,6.6667,6.9707,7.0971,7.1481,7.2439,7.4999,7.6115,7.713,7.8809,8.0027,8.1393,8.3219,8.4336,8.552,8.7008,8.6859,8.667,8.6859,8.7008,8.7448,8.8409,8.8849,8.9086,8.9086,8.9086,8.9086,8.9086,8.9086,8.9086,8.9086,8.9086,8.9086,8.9086,8.9086,8.9086,8.9086,8.9086,8.9086,8.9086,8.9086,8.9086,8.9086,8.9086,8.8781,8.8294,8.8294,8.7989,8.7516,8.7516,8.7516,8.7538,8.7669,8.8222,8.8943,8.9222,9.0186,9.1286,9.1286,9.1546,9.1803,9.1803,9.1803,9.1803,9.1803,9.1803,9.1803,9.1803,9.1803,9.1803,9.1803,9.1803,9.1657,9.1069,9.0913,9.0693,8.9877,8.973,8.9473,8.8674,8.8528,8.8344,8.7748,8.7675,8.728,8.6261,8.6114,8.5894,8.5335,8.5049,8.4939,8.4939,8.4197,8.3463,8.2892,8.2105,8.1407,8.0836,8.0359,8.0139,8.0139,7.9918,7.9816,7.9816,7.9816,7.9816,7.9816,8.0036,8.0249,5.7503,0.0,6.5026,6.7193,7.0002,7.3038,7.598,7.6082,7.598,7.7582,7.8483,7.9012,7.908,8.0872,8.2598,8.3355,8.4789,8.6278,8.7753,8.6751,8.6108,8.6825,8.5608,8.5303,0.0,8.8274,8.9086,8.9086,8.9086,8.9086,8.9086,8.9086,8.9086,8.9086,8.9086,8.9086,8.9086,8.9086,8.9086,8.9086,8.9086,8.9086,8.9086,8.9086,8.9086,8.9086,8.9086,8.9086,8.9052,8.9052,8.9052,8.9018,8.9018,8.9018,8.8951,8.8248,8.7849,8.7652,8.7654,8.8726,9.0046,9.0046,9.0859,9.1803,9.1803,9.1803,9.1803,9.1803,9.1803,9.1803,9.1803,9.1803,9.1803,9.1803,9.1803,9.1803,9.1767,9.1767,9.1546,9.073,9.0546,9.0326,8.951,8.9363,8.9363,8.9326,8.9326,8.8739,8.717,8.6949,8.6949,8.6913,8.6224,8.5755,8.5755,8.5013,8.4535,8.4535,8.3756,8.3308,8.3271,8.1774,8.0967,8.0967,8.0212,7.9816,7.9816,7.9816,7.9816,7.9816,8.0608,8.1379,6.2391,0.0,6.9677,7.2394,7.4999,7.7367,7.9375,7.9228,7.8822,7.9329,7.8889,7.8382,7.8382,7.9397,8.0771,8.2509,8.4471,8.6311,8.7786,8.7144,8.6264,8.552,8.5418,0.0,0.0,0.0,0.0,8.9018,8.9086,8.9086,8.9086,8.9086,8.9323,8.9816,8.9357,8.9323,8.9816,8.9357,8.9086,8.9086,8.9086,8.9086,8.9086,8.9086,8.9086,8.9086,8.9086,8.9086,8.9086,8.9086,8.9086,8.9086,8.9086,8.9086,8.9052,8.8815,8.836,8.7845,8.7656,8.8474,8.9655,8.9894,9.0284,9.0618,9.0618,9.0618,9.0618,9.0618,9.0618,9.0774,9.1602,9.1803,9.1803,9.1803,9.1803,9.1803,9.1803,9.1803,9.173,9.1436,9.14,9.1143,9.0326,9.0216,9.0024,8.9473,8.94,8.8996,8.794,8.7802,8.7573,8.706,8.6766,8.6591,8.6591,8.5857,8.538,8.538,8.4646,8.4197,8.4197,8.3683,8.3398,8.3398,8.3104,8.2994,8.2994,8.2994,8.2994,8.2994,8.3251,8.3544,6.6812,7.0229,7.3612,7.6555,7.8822,8.0534,8.146,8.1122,8.0445,7.9904,7.8382,7.7007,7.6499,7.6352,7.7389,8.0703,8.2678,8.4789,8.7583,8.7144,8.6163,8.5229,8.5026,8.4687,0.0,0.0,0.0,8.8612,8.8714,8.8951,8.9458,8.9492,8.9816,9.056,9.0135,8.9985,9.0208,8.9985,8.9898,8.9898,8.9898,8.9763,8.9492,8.9492,8.9357,8.9086,8.9086,8.9086,8.9086,8.9086,8.9086,8.9086,8.9086,8.9086,8.9086,8.9086,8.8815,8.8331,8.7894,8.8189,8.8791,8.905,8.9242,8.9369,8.938,8.938,8.9369,8.9369,8.9369,8.9631,9.0859,9.1163,9.1258,9.1684,9.1803,9.1803,9.1803,9.1803,9.1803,9.1803,9.1803,9.1657,9.1106,9.1033,9.0849,9.0326,9.0253,8.9849,8.8785,8.839,8.7986,8.7463,8.717,8.6986,8.6986,8.6518,8.6224,8.6224,8.5453,8.5013,8.5013,8.4756,8.4609,8.4609,8.4609,8.4609,8.4609,8.4609,8.4609,8.4609,8.4609,8.4756,7.0624,7.3803,7.6792,7.9735,8.1562,8.2564,8.253,8.1832,8.0796,7.9249,7.7029,7.4897,0.0,0.0,7.2924,7.8031,7.9701,8.2171,8.7313,8.6785,8.5838,0.0,0.0,0.0,0.0,0.0,0.0,8.782,0.0,8.8632,9.0106,9.0208,9.056,9.1338,9.1305,9.0966,9.0309,9.0966,9.1271,9.1237,9.1271,9.0899,9.0208,9.0242,8.985,8.9154,8.9154,8.912,8.9086,8.9086,8.9086,8.9086,8.9086,8.9086,8.9086,8.9086,8.9086,8.8984,8.8308,8.7872,8.7628,8.7634,8.7897,8.8181,8.8251,8.8204,8.8111,8.8111,8.8111,8.8391,8.9671,9.0001,9.0294,9.1435,9.1767,9.1803,9.1803,9.1803,9.1803,9.1803,9.1767,9.1684,9.1629,9.1666,9.1694,9.1694,9.1776,9.1216,8.9657,8.8785,8.8316,8.828,8.7573,8.7124,8.7124,8.7124,8.7124,8.7124,8.6371,8.5939,8.5939,8.5159,8.4711,8.4711,8.4711,8.4711,8.4711,8.4711,8.4756,8.4792,8.4756,8.5196,7.51,7.8855,8.1968,8.3909,8.4654,8.4776,8.4187,8.2192,7.9735,7.7096,7.3477,6.9992,0.0,0.0,0.0,7.5156,7.9634,0.0,8.824,8.755,0.0,8.5872,0.0,8.4187,8.3828,8.4458,0.0,0.0,8.7685,8.8632,9.0106,9.0208,9.0783,9.2068,9.1575,9.1474,9.1831,9.1474,9.1034,9.0493,9.1034,9.0899,9.0208,9.0763,9.0628,8.9918,8.9918,8.9627,8.9086,8.9086,8.9086,8.9086,8.9086,8.9086,8.9086,8.9086,8.9086,8.9052,8.8883,8.8407,8.7951,8.832,8.8125,8.7781,8.7781,8.7341,8.6865,8.6865,8.6865,8.7151,8.8393,8.9337,9.0067,9.0384,9.1154,9.1803,9.1803,9.1803,9.1803,9.1803,9.106,9.0158,8.9284,8.9873,9.0443,9.0443,9.122,9.1436,9.0436,9.0106,8.9776,8.9152,8.8923,8.8776,8.8776,8.8776,8.8776,8.8776,8.8014,8.7582,8.7582,8.6811,8.6399,8.6399,8.6399,8.6399,8.6399,8.6399,8.6693,8.7252,8.6656,8.7133,7.9308,8.2421,8.4776,8.6007,8.5757,8.4742,8.2665,8.0128,7.6893,7.227,6.8548,0.0,6.2221,0.0,0.0,0.0,0.0,0.0,8.7482,8.7719,8.7245,0.0,8.6366,0.0,8.508,8.5642,8.6453,0.0,8.7753,8.8801,9.0594,9.0986,9.1696,9.2895,9.2522,9.2489,9.2928,9.2184,9.1744,9.1711,9.2131,9.1913,9.1189,9.1595,9.1372,9.0696,0.0,9.0459,9.0033,8.9729,8.9579,8.9545,8.9221,8.9086,8.9086,8.9086,8.9086,8.9086,8.9086,8.8815,8.8466,8.8403,8.7901,8.7284,8.7284,8.6976,8.6611,8.6611,8.6384,8.6415,8.7616,8.8585,8.9348,8.9883,9.0926,9.1803,9.1803,9.1803,9.1803,9.1803,9.0839,8.9765,8.9125,8.91,8.9401,8.9924,9.0588,9.1055,9.1125,9.0803,9.0436,8.995,8.962,8.94,8.94,8.94,8.94,8.94,8.8968,8.8711,8.8711,8.8307,8.8042,8.8042,8.8042,8.8042,8.8042,8.8042,8.8307,8.8711,8.8262,8.8556,8.3084,8.508,8.6311,8.7144,8.598,8.3633,7.9959,7.6961,7.3116,6.6485,0.0,6.0665,5.7823,5.9505,6.326,6.9225,0.0,8.0209,8.6217,8.7516,8.7888,8.7989,8.7922,8.7617,8.6961,8.7482,8.7888,8.7989,8.8192,8.9173,9.1169,9.2,9.2778,9.3586,9.3586,9.3586,9.3586,9.2928,9.2846,9.3451,9.3552,9.3165,9.2392,9.2508,9.2136,9.144,0.0,0.0,9.1237,9.0478,9.0208,9.0121,8.939,8.9086,8.9086,8.9086,8.9086,8.9086,8.9086,8.9086,8.8984,8.8342,8.7651,8.7062,8.7062,8.6961,8.6893,8.6893,8.6433,8.6188,8.7229,8.7812,8.8434,8.9618,9.0749,9.1611,9.1785,9.1666,9.15,9.136,9.0354,8.9474,8.9327,8.8546,8.8324,8.938,8.9652,9.0214,9.1407,9.1098,9.0767,9.0767,9.0143,8.973,8.973,8.973,8.973,8.973,8.962,8.9546,8.9546,8.9473,8.94,8.94,8.94,8.94,8.94,8.94,8.9436,8.9546,8.9436,8.951,8.6196,8.7414,8.7955,8.9295,8.7096,8.3633,7.9959,7.4965,0.0,0.0,5.9293,5.6316,5.46,5.8118,6.326,6.9225,7.51,8.0974,8.6974,0.0,8.7313,0.0,0.0,0.0,0.0,0.0,0.0,0.0,0.0,9.0256,9.1237,9.2,9.2778,9.3586,9.3586,9.3586,9.3586,9.3451,9.3131,9.2609,9.3267,9.3165,9.2426,9.3098,9.2962,9.2203,0.0,0.0,9.1237,9.0478,9.0208,9.0121,8.939,8.9086,8.9086,8.9086,8.9086,8.9086,8.9086,8.9086,8.9086,8.8951,8.8409,8.782,8.782,8.738,8.6893,8.6893,8.6792,8.6758,8.6969,8.7367,8.8008,8.9239,8.9924,9.0598,9.1592,9.1003,9.0016,8.9003,8.7861,8.6696,8.5731,8.6202,8.6781,8.6973,8.7872,8.8939,9.0174,9.1073,9.1583,9.1583,9.1473,9.1363,9.1363,9.1363,9.1363,9.1363,9.0767,9.04,9.04,8.9767,8.94,8.94,8.94,8.94,8.94,8.94,8.973,9.04,8.9693,9.0097,8.7766,8.912,8.9782,9.0106,8.7096,8.253,7.6893,0.0,0.0,0.0,5.4321,5.2325,5.0871,5.5166,6.0419,6.485,7.0263,7.6251,8.2983,8.3964,0.0,0.0,0.0,0.0,0.0,0.0,0.0,0.0,0.0,9.0932,9.1271,9.2387,9.3199,9.3586,9.3586,9.3586,9.3586,9.3586,9.3417,9.303,9.3417,9.3417,9.303,9.3417,9.3383,9.303,9.303,0.0,9.2402,9.1237,9.0763,9.0662,8.956,8.9086,8.9086,8.9086,8.9086,8.9086,8.9086,8.9086,8.9086,8.9086,8.8849,8.8578,8.8578,8.8342,8.8023,8.8023,8.7753,8.7482,8.7482,8.7804,8.8363,8.92,9.019,9.0926,9.0878,9.0404,8.9631,8.8435,8.7246,8.6239,8.5655,8.5489,8.5659,8.6303,8.7422,8.8634,8.9853,9.1041,9.1803,9.1803,9.1803,9.1803,9.1803,9.1803,9.1803,9.1803,9.1436,9.1216,9.1216,9.0849,9.0656,9.0656,9.0656,9.0656,9.0656,9.0656,9.0849,9.1216,9.128,9.1721,8.8443,9.0067,9.0932,9.0343,8.6704,8.1359,7.4052,6.7421,0.0,0.0,5.027,4.9323,4.8326,5.2494,5.7306,0.0,6.5527,7.1278,7.8889,8.0851,8.3131,0.0,0.0,0.0,0.0,0.0,0.0,0.0,0.0,0.0,9.1793,9.2943,9.3586,9.3586,9.3586,9.3586,9.3586,9.3586,9.3586,9.3586,9.3586,9.3586,9.3586,9.3586,9.3586,9.3586,9.3586,0.0,0.0,9.1962,9.1305,9.1135,8.9695,8.9086,8.9086,8.9086,8.9086,8.9086,8.9086,8.9086,8.9086,8.9086,8.9086,8.9086,8.9086,8.9086,8.9086,8.9086,8.868,8.8226,8.8226,8.8399,8.8742,8.9495,9.0483,9.1104,9.0427,8.9743,8.8939,8.7998,8.6841,8.6003,8.6003,8.5214,8.493,8.5887,8.7044,8.8257,8.9464,9.0667,9.15,9.1785,9.1803,9.1803,9.1803,9.1803,9.1803,9.1803,9.1803,9.1877,9.206,9.206,9.217,9.2326,9.2326,9.2326,9.2326,9.2326,9.2326,9.2354,9.3051,9.3345,8.8308,8.9681,9.0275,9.0208,8.6318,8.0737,7.395,0.0,5.8457,5.1597,4.9078,4.8259,4.8808,5.1581,5.5683,6.1376,6.4952,6.988,7.8065,8.0974,8.3727,8.755,0.0,0.0,0.0,0.0,0.0,0.0,0.0,0.0,9.3315,9.3518,9.3586,9.3586,9.3586,9.3586,9.3586,9.3586,9.3586,9.3586,9.3586,9.3586,9.3586,9.3586,9.3586,9.3586,0.0,0.0,0.0,9.1962,9.1305,9.1135,8.9695,8.9086,8.9086,8.9086,8.9086,8.9086,8.9086,8.9086,8.9086,8.9086,8.9086,8.9086,8.9086,8.9086,8.9086,8.9086,8.9052,8.8984,8.8984,8.854,8.8466,9.0105,9.0046,8.9891,9.0959,8.8856,8.6696,8.6575,8.5592,8.4779,8.4779,8.4673,8.4633,8.4753,8.5798,8.7008,8.8212,8.9422,9.0598,9.1675,9.1803,9.1803,9.1803,9.1803,9.1803,9.1803,9.1803,9.217,9.2941,9.2978,9.3308,9.4052,9.4088,9.4088,9.4088,9.4088,9.4088,9.4088,9.4162,9.4199,8.7394,8.9613,9.0662,8.9748,8.5601,7.987,7.271,6.5053,5.7679,5.1394,4.8943,4.7988,4.8293,5.0067,5.2672,5.6427,5.8017,6.1492,6.9282,7.1875,7.5562,8.2475,8.4742,0.0,0.0,0.0,0.0,0.0,0.0,0.0,9.3552,9.3586,9.3586,9.3586,9.3586,9.3586,9.3586,9.3586,9.3586,9.3586,9.3586,9.3586,9.3586,9.3586,9.3586,9.3586,0.0,0.0,0.0,9.2421,9.1967,9.1798,9.0357,8.9748,8.9715,8.9255,8.9086,8.9086,8.9086,8.9086,8.9086,8.9086,8.9086,8.9086,8.9086,8.9086,8.9086,8.9086,8.9086,8.9086,8.9086,8.9076,8.9264,8.9931,9.0104,9.0008,8.9788,8.8722,8.7433,8.6285,8.5636,8.5182,8.4681,8.4614,8.4614,8.4614,8.5643,8.6841,8.8043,8.9263,9.0453,9.1666,9.1803,9.1803,9.1803,9.1803,9.1803,9.1803,9.2281,9.2758,9.3088,9.3565,9.3969,9.4309,9.4309,9.4309,9.4309,9.4309,9.4309,9.4309,9.4813,9.5024,8.5452,8.8463,9.0019,8.8767,8.4349,7.853,7.1763,6.4038,5.679,5.1225,4.8943,4.7913,4.7913,4.912,5.0752,5.2799,5.3881,5.6993,6.4231,6.6734,7.0737,7.8619,0.0,0.0,0.0,0.0,0.0,0.0,0.0,0.0,0.0,9.3586,9.3586,9.3586,9.3586,9.3586,9.3586,9.3349,9.3248,9.3248,9.3248,9.3248,9.3233,9.3484,9.3586,9.3586,0.0,0.0,0.0,9.2745,9.2271,9.1933,9.0681,9.0073,8.9816,8.9289,8.9086,8.9086,8.9086,8.9086,8.9086,8.9086,8.9086,8.9086,8.9086,8.9086,8.9086,8.9086,8.9086,8.9086,8.9086,8.9355,8.9703,9.0084,8.9955,8.9612,8.917,8.86,8.7777,8.6399,8.6142,8.596,8.5371,8.527,8.527,8.527,8.6432,8.7607,8.8442,8.9702,9.0868,9.1694,9.1803,9.1803,9.1803,9.1803,9.1913,9.217,9.2758,9.3308,9.3786,9.4336,9.4777,9.5006,9.4997,9.4997,9.4997,9.4997,9.4997,9.4997,9.5575,9.5868,8.234,8.5723,8.7854,8.7096,8.2441,7.6669,7.1391,6.327,5.5547,5.1022,4.8943,4.7913,4.7913,4.912,5.0582,5.2063,5.4803,5.909,6.5821,6.8741,7.2135,0.0,0.0,0.0,0.0,0.0,0.0,0.0,0.0,0.0,0.0,9.3586,9.3586,9.3586,9.3586,9.3586,9.3586,9.2812,9.2392,9.2392,9.2392,9.2392,9.244,9.3233,9.3586,0.0,0.0,0.0,0.0,9.2745,9.1967,9.1237,9.0493,8.9748,8.912,8.9086,8.9086,8.9086,8.9086,8.9086,8.9086,8.9086,8.9086,8.9086,8.9086,8.9086,8.9086,8.9086,8.9086,8.9086,8.9086,8.91,8.9408,9.0684,8.9488,8.8375,8.9622,8.8331,8.6907,8.6893,8.6893,8.6893,8.6893,8.6893,8.6893,8.6893,8.8301,8.937,8.9381,9.0791,9.1794,9.1803,9.1803,9.1803,9.1803,9.1803,9.217,9.3015,9.3079,9.3822,9.542,9.5474,9.5868,9.6649,9.6685,9.6685,9.6685,9.6685,9.6685,9.6685,9.6685,9.6685,7.4525,7.7739,7.987,7.757,7.4424,7.0669,6.5943,6.0689,5.5683,5.1683,4.9687,4.8638,4.8638,4.9044,5.0507,5.405,5.5437,5.7872,6.3057,0.0,0.0,7.5168,8.1291,0.0,0.0,0.0,0.0,0.0,0.0,0.0,0.0,9.2286,9.2252,9.2745,9.33,9.3078,9.2029,9.2271,9.2392,9.2392,9.2392,9.2677,9.3233,9.3484,0.0,0.0,0.0,0.0,0.0,9.1967,9.1508,9.1237,9.0493,9.0053,8.9782,8.9289,8.9086,8.9086,8.9086,8.9086,8.9086,8.9086,8.9086,8.9086,8.9086,8.9086,8.9086,8.9086,8.9086,8.9086,8.9086,8.9086,8.9212,8.9601,8.923,8.8839,8.9287,8.8843,8.826,8.7753,8.7651,8.7482,8.6995,8.6893,8.6893,8.6893,8.8089,8.9278,9.0102,9.1433,9.2582,9.3427,9.3015,9.2464,9.184,9.1803,9.1913,9.217,9.2758,9.3565,9.4639,9.5208,9.5868,9.6685,9.6685,9.6685,9.6685,9.6685,9.6685,9.6685,9.6685,9.6685,6.9,7.2349,7.4356,7.2462,6.9677,6.644,6.283,5.866,5.4668,5.1446,4.9822,4.9011,4.9011,4.9221,5.0338,5.3137,5.4524,5.6867,0.0,0.0,0.0,7.527,0.0,0.0,0.0,0.0,0.0,0.0,0.0,0.0,0.0,9.1541,9.1372,9.1561,9.2319,9.2266,9.1305,9.1459,9.1561,9.1561,9.1561,9.1831,9.2319,9.2605,0.0,0.0,0.0,0.0,0.0,9.1474,9.1135,9.0831,9.0377,9.0019,8.9715,8.9255,8.9086,8.9086,8.9086,8.9086,8.9086,8.9086,8.9086,8.9086,8.9086,8.9086,8.9086,8.9086,8.9086,8.9086,8.9086,8.9086,8.9086,8.9086,8.9086,8.9086,8.9086,8.9086,8.8951,8.8497,8.8409,8.826,8.782,8.7719,8.7719,8.7719,8.8959,9.0168,9.0916,9.2287,9.3462,9.4206,9.3859,9.3345,9.2794,9.2464,9.2427,9.273,9.3235,9.3896,9.4703,9.5244,9.5868,9.6685,9.6685,9.6685,9.6685,9.6685,9.6685,9.6685,9.6685,9.6685,0.0,6.8571,7.0387,7.0218,6.7039,6.3396,6.1231,5.6925,0.0,5.0549,4.9492,4.9044,4.9146,4.9661,5.021,5.0582,5.3086,0.0,0.0,6.4975,0.0,0.0,0.0,0.0,0.0,0.0,0.0,0.0,0.0,0.0,0.0,9.1169,9.0831,9.014,9.0797,9.1135,9.1135,9.0527,9.0208,9.0208,9.0208,9.0222,9.0309,9.1,0.0,0.0,0.0,0.0,0.0,9.1184,9.0729,9.0106,9.0106,8.9681,8.9086,8.9086,8.9086,8.9086,8.9086,8.9086,8.9086,8.9086,8.9086,8.9086,8.9086,8.9086,8.9086,8.9086,8.9086,8.9086,8.9086,8.9086,8.9086,8.9086,8.9086,8.9086,8.9086,8.9086,8.9086,8.9086,8.9086,8.9086,8.9086,8.9086,8.9086,8.9086,9.0641,9.1752,9.1658,9.3282,9.4427,9.4352,9.4372,9.4419,9.4456,9.3675,9.3492,9.4235,9.4309,9.4666,9.5465,9.5501,9.5868,9.6685,9.6685,9.6685,9.6685,9.6685,9.6685,9.6685,9.6685,9.6685,5.548,0.0,6.1482,5.9791,5.8573,5.7356,0.0,5.3923,5.2097,5.0447,0.0,4.9349,5.0457,5.0371,5.1394,0.0,0.0,0.0,0.0,0.0,0.0,0.0,0.0,0.0,0.0,0.0,0.0,0.0,0.0,0.0,0.0,8.9918,8.9526,8.9357,8.9526,8.9627,8.9627,9.0019,9.0208,9.0208,9.0208,9.0493,9.1034,9.1203,0.0,0.0,0.0,0.0,9.0425,8.9864,8.9526,8.9357,8.9357,8.9255,8.9086,8.9086,8.9086,8.9086,8.9086,8.9086,8.9086,8.9086,8.9086,8.9086,8.9086,8.9086,8.9086,8.9086,8.9086,8.9086,8.9086,8.9086,8.9086,8.9086,8.9086,8.9086,8.9086,8.9086,8.9086,8.9086,8.9086,8.9086,8.9086,8.9086,8.9086,8.9086,9.1109,9.228,9.1296,9.4079,9.5753,9.4773,9.4991,9.5465,9.6098,9.4813,9.4088,9.4309,9.4309,9.4666,9.5465,9.5501,9.5868,9.6685,9.6685,9.6685,9.6685,9.6685,9.6685,9.6685,9.6685,9.6685,5.1716,5.4828,5.7703,5.6519,5.5936,5.5395,5.4262,5.2604,5.098,4.9838,0.0,0.0,0.0,0.0,0.0,0.0,0.0,0.0,0.0,0.0,0.0,0.0,0.0,0.0,0.0,0.0,0.0,0.0,0.0,0.0,0.0,8.9323,8.9086,8.9086,8.9086,8.9086,8.9086,8.9492,8.9681,8.9681,8.9681,8.9884,9.0304,9.0304,0.0,0.0,0.0,0.0,8.9647,8.9255,8.9086,8.9086,8.9086,8.9086,8.9086,8.9086,8.9086,8.9086,8.9086,8.9086,8.9086,8.9086,8.9086,8.9086,8.9086,8.9086,8.9086,8.9086,8.9086,8.9086,8.9086,8.9086,8.9086,8.9086,8.9086,8.9086,8.9086,8.9086,8.9086,8.9086,8.9086,8.9086,8.9086,8.9086,8.9086,8.9086,9.0776,9.1778,9.1078,9.3832,9.5549,9.4859,9.5536,9.6235,9.6649,9.5914,9.5254,9.4887,9.485,9.507,9.5465,9.5501,9.5868,9.6685,9.6685,9.6685,9.6685,9.6685,9.6685,9.6685,9.6685,9.6685,5.1277,5.4118,5.6697,5.6224,5.5911,5.5437,5.4465,5.2274,0.0,0.0,0.0,0.0,0.0,0.0,0.0,0.0,0.0,0.0,0.0,0.0,0.0,0.0,0.0,0.0,0.0,0.0,0.0,0.0,0.0,0.0,0.0,8.9086,8.9086,8.9086,8.9086,8.9086,8.9086,8.9086,8.9086,8.9086,8.9086,8.9086,8.9086,8.9086,8.9086,0.0,0.0,0.0,8.9086,8.9086,8.9086,8.9086,8.9086,8.9086,8.9086,8.9086,8.9086,8.9086,8.9086,8.9086,8.9086,8.9086,8.9086,8.9086,8.9086,8.9086,8.9086,8.9086,8.9086,8.9086,8.9086,8.9086,8.9086,8.9086,8.9086,8.9086,8.9086,8.9086,8.9086,8.9086,8.9086,8.9086,8.9086,8.9086,8.9086,8.9086,9.0183,9.0932,9.0723,9.292,9.45,9.45,9.5657,9.6475,9.6666,9.6685,9.6428,9.5721,9.5685,9.5685,9.5685,9.5685,9.6015,9.6685,9.6685,9.6685,9.6685,9.6685,9.6685,9.6685,9.6685,9.6685,5.2427,5.493,5.619,5.3619,5.4355,5.5158,5.3112,5.23,5.175,0.0,0.0,0.0,0.0,0.0,0.0,0.0,0.0,0.0,0.0,0.0,0.0,0.0,0.0,0.0,0.0,0.0,0.0,0.0,0.0,0.0,0.0,0.0,8.9086,8.9086,8.9086,8.9086,8.9086,8.9086,8.9086,8.9086,8.9086,8.9086,8.9086,8.9086,8.9086,0.0,0.0,8.9086,8.9086,8.9086,8.9086,8.9086,8.9086,8.9086,8.9086,8.9086,8.9086,8.9086,8.9086,8.9086,8.9086,8.9086,8.9086,8.9086,8.9086,8.9086,8.9086,8.9086,8.9086,8.9086,8.9086,8.9086,8.9086,8.9086,8.9086,8.9086,8.9086,8.9086,8.9086,8.9086,8.9086,8.9086,8.9086,8.9086,8.9086,8.9086,9.0183,9.0627,8.9518,9.1615,9.319,9.319,9.4336,9.5518,9.6608,9.6685,9.6649,9.6539,9.6539,9.6539,9.6539,9.6539,9.6575,9.6685,9.6685,9.6685,9.6685,9.6685,9.6685,9.6685,9.6685,9.6685,5.0702,5.3002,5.4871,5.4287,5.6114,5.7703,5.6249,5.4997,0.0,0.0,0.0,0.0,0.0,0.0,0.0,0.0,0.0,0.0,0.0,0.0,0.0,0.0,0.0,0.0,0.0,0.0,0.0,0.0,0.0,0.0,0.0,0.0,8.9086,8.9086,8.9086,8.9086,8.9086,8.9086,8.9086,8.9086,8.9086,8.9086,8.9086,8.9086,8.9086,8.9086,0.0,8.9086,8.9086,8.9086,8.9086,8.9086,8.9086,8.9086,8.9086,8.9086,8.9086,8.9086,8.9086,8.9086,8.9086,8.9086,8.9086,8.9086,8.9086,8.9086,8.9086,8.9086,8.9086,8.9086,8.9086,8.9086,8.9086,8.9086,8.9086,8.9086,8.9086,8.9086,8.9086,8.9086,8.9086,8.9086,8.9086,8.9086,8.9086,8.9086,8.9601,8.9744,8.9184,9.0723,9.2161,9.2825,9.4034,9.5332,9.6599,9.6685,9.6685,9.6685,9.6685,9.6685,9.6685,9.6685,9.6685,9.6685,9.6685,9.6685,9.6685,9.6685,9.6685,9.6685,9.6685,9.6685,5.0168,5.1995,5.416,5.5809,0.0,5.9225,5.9892,0.0,0.0,0.0,0.0,0.0,0.0,0.0,0.0,0.0,0.0,0.0,0.0,0.0,0.0,0.0,0.0,0.0,0.0,0.0,0.0,0.0,0.0,0.0,0.0,0.0,8.9086,8.9086,8.8917,8.8849,8.8849,8.868,8.8748,8.9086,8.9086,8.9086,8.9086,8.9086,8.9086,8.9086,8.9086,8.9086,8.9086,8.9086,8.9086,8.9086,8.9086,8.9086,8.9086,8.9086,8.9086,8.9086,8.9086,8.9086,8.9086,8.9086,8.9086,8.9086,8.9086,8.9086,8.9086,8.9086,8.9086,8.9086,8.9086,8.9086,8.9086,8.9086,8.9086,8.9086,8.9086,8.9086,8.9086,8.9086,8.9086,8.9086,8.9086,8.9086,8.9086,8.9086,8.9086,8.9086,8.9086,8.9962,9.1026,9.2309,9.3606,9.4976,9.6579,9.6685,9.6685,9.6685,9.6685,9.6685,9.6685,9.6685,9.6685,9.6685,9.6685,9.6685,9.6685,9.6685,9.6685,9.6685,9.6685,9.6685,5.3619,5.4372,5.5049,5.7214,5.6867,0.0,6.2091,6.0873,0.0,6.3159,0.0,0.0,0.0,0.0,0.0,0.0,0.0,0.0,0.0,0.0,0.0,0.0,0.0,0.0,0.0,0.0,0.0,0.0,0.0,0.0,0.0,0.0,0.0,8.9086,8.8443,8.8091,8.8091,8.7414,8.7753,8.9086,8.9086,8.9086,8.9086,8.9086,8.9086,8.9086,8.9086,8.9086,8.9086,8.9086,8.9086,8.9086,8.9086,8.9086,8.9086,8.9086,8.9086,8.9086,8.9086,8.9086,8.9086,8.9086,8.9086,8.9086,8.9086,8.9086,8.9086,8.9086,8.9086,8.9086,8.9086,8.9086,8.9086,8.9086,8.9086,8.9086,8.9086,8.9086,8.9086,8.9086,8.9086,8.9086,8.9086,8.9086,8.9086,8.9086,8.9086,8.9086,8.9086,8.9184,8.9703,9.1009,9.2273,9.4034,9.6475,9.6685,9.6685,9.6685,9.6685,9.6685,9.6685,9.6685,9.6685,9.6685,9.6685,9.6685,9.6685,9.6685,9.6685,9.6685,9.6685,9.6685,5.0879,5.2503,5.4575,5.7214,5.8558,0.0,0.0,6.4739,6.5922,0.0,0.0,0.0,0.0,0.0,0.0,0.0,0.0,0.0,0.0,0.0,0.0,0.0,0.0,0.0,0.0,0.0,0.0,0.0,0.0,0.0,0.0,0.0,0.0,8.7753,8.7482,8.7313,8.7313,8.7028,8.7164,8.7753,8.8192,8.8646,8.9086,8.9086,8.9086,8.9086,8.9086,8.9086,8.9086,8.9086,8.9086,8.9086,8.9086,8.9086,8.9086,8.9086,8.9086,8.9086,8.9086,8.9086,8.9086,8.9086,8.9086,8.9086,8.9086,8.9086,8.9086,8.9086,8.9086,8.9086,8.9086,8.9086,8.9086,8.9086,8.9086,8.9086,8.9086,8.9086,8.9086,8.9086,8.9086,8.9086,8.9086,8.9086,8.9255,8.9715,8.939,8.9255,8.9715,8.939,8.9587,9.0867,9.2837,9.4467,9.5436,9.6232,9.6685,9.6685,9.6685,9.6685,9.6685,9.6685,9.6685,9.6685,9.6685,9.6685,9.6685,9.6685,9.6685,9.6685,9.6685,9.6299,4.9526,5.1183,5.378,0.0,0.0,0.0,6.5933,6.8504,7.0906,0.0,0.0,0.0,0.0,0.0,0.0,0.0,0.0,0.0,0.0,0.0,0.0,0.0,0.0,0.0,0.0,0.0,0.0,0.0,0.0,0.0,0.0,0.0,0.0,0.0,8.6656,8.6569,8.6569,8.6284,8.6284,8.6569,8.7042,8.78,8.8748,8.8748,8.8883,8.9086,8.8849,8.8883,8.9086,8.8849,8.8883,8.9086,8.9086,8.9086,8.9086,8.9086,8.9086,8.9086,8.9086,8.9086,8.9086,8.9086,8.9086,8.9086,8.9086,8.9086,8.9086,8.9086,8.9086,8.9086,8.9086,8.9086,8.9086,8.9086,8.9086,8.9086,8.9086,8.9086,8.9086,8.9086,8.9086,8.9086,8.9086,8.9086,8.9255,8.9782,8.9424,8.9289,8.9782,8.9424,8.9587,9.0867,9.2908,9.4369,9.4763,9.5967,9.6685,9.6685,9.6685,9.6685,9.6685,9.6685,9.6685,9.6685,9.6685,9.6685,9.6685,9.6685,9.6685,9.6685,9.6685,9.6007,5.0684,5.1183,0.0,0.0,0.0,0.0,7.0015,7.1943,7.395,7.9194,0.0,0.0,0.0,0.0,0.0,0.0,0.0,0.0,0.0,0.0,0.0,0.0,0.0,0.0,0.0,0.0,0.0,0.0,0.0,0.0,0.0,0.0,0.0,0.0,8.6163,8.577,8.577,8.4999,8.4999,8.577,8.577,8.6548,8.7989,8.7989,8.8409,8.9052,8.8294,8.8409,8.9018,8.8294,8.8443,8.9086,8.9086,8.9086,8.9086,8.9086,8.9086,8.9086,8.9086,8.9086,8.9086,8.9086,8.9086,8.9086,8.9086,8.9086,8.9086,8.9086,8.9086,8.9086,8.9086,8.9086,8.9086,8.9086,8.9086,8.9086,8.9086,8.9086,8.9086,8.9086,8.9086,8.9086,8.9086,8.9086,8.9086,8.912,8.9086,8.9086,8.9086,8.9086,8.9573,9.0841,9.2102,9.3386,9.4677,9.5947,9.6657,9.6666,9.6657,9.6666,9.6685,9.6676,9.6676,9.6685,9.6666,9.6657,9.6666,9.6666,9.6666,9.6666,9.6666,9.5997,4.9172,5.1547,0.0,5.7457,0.0,0.0,0.0,7.6589,0.0,0.0,0.0,0.0,0.0,0.0,0.0,0.0,0.0,0.0,0.0,0.0,0.0,0.0,0.0,0.0,0.0,0.0,0.0,0.0,0.0,0.0,0.0,0.0,0.0,0.0,8.5067,8.4965,8.4965,8.4715,8.4715,8.4965,8.4965,8.5743,8.7231,8.7231,8.7347,8.755,8.7313,8.7651,8.8342,8.8646,8.8612,8.8375,8.8883,8.9086,8.9086,8.9086,8.9086,8.9086,8.9086,8.9086,8.9086,8.9086,8.9086,8.9086,8.9086,8.9086,8.9086,8.9086,8.9086,8.9086,8.9086,8.9086,8.9086,8.9086,8.9086,8.9086,8.9086,8.9086,8.9086,8.9086,8.9086,8.9086,8.9086,8.9086,8.9289,8.9782,8.9424,8.9086,8.9086,8.9086,8.9254,8.9628,9.0802,9.21,9.334,9.3821,9.4413,9.5322,9.4522,9.4838,9.6628,9.5856,9.5779,9.6666,9.4934,9.4467,9.5374,9.5374,9.5374,9.5374,9.5374,9.4698,5.11,5.394,0.0,6.1245,6.6724,0.0,0.0,0.0,0.0,0.0,0.0,0.0,0.0,0.0,0.0,0.0,0.0,0.0,0.0,0.0,0.0,0.0,0.0,0.0,0.0,0.0,0.0,0.0,0.0,0.0,0.0,0.0,0.0,0.0,8.4614,8.4614,8.4614,8.4614,8.4614,8.4614,8.4614,8.5087,8.6014,8.6332,8.6636,8.6893,8.6893,8.7008,8.7177,8.7922,8.7955,8.7617,8.8057,8.8409,8.8646,8.8646,8.8849,8.9086,8.9086,8.9086,8.9086,8.9086,8.9086,8.9086,8.9086,8.9086,8.9086,8.9086,8.9086,8.9086,8.9086,8.9086,8.9086,8.9086,8.9086,8.9086,8.9086,8.9086,8.9086,8.9086,8.9086,8.9086,8.9086,8.9086,8.9255,8.9681,8.939,8.9086,8.9086,8.9086,8.9086,8.9086,9.025,9.1309,9.2065,9.2611,9.3224,9.399,9.3317,9.3581,9.5139,9.4456,9.4413,9.5181,9.3672,9.3271,9.4034,9.4034,9.4314,9.4784,9.4292,9.3651,5.4853,5.7322,0.0,6.5787,6.9846,0.0,0.0,0.0,0.0,0.0,0.0,0.0,0.0,0.0,0.0,0.0,0.0,0.0,0.0,0.0,0.0,0.0,0.0,0.0,0.0,0.0,0.0,0.0,0.0,0.0,0.0,0.0,0.0,0.0,8.4614,8.4614,8.4614,8.4614,8.4614,0.0,8.4614,8.4614,8.4614,8.5351,8.6061,8.669,8.6758,8.6366,8.5736,8.6569,8.6859,8.6792,8.6859,8.7313,8.7888,8.7888,8.8328,8.8917,8.8984,8.8951,8.8917,8.9052,8.9052,8.9018,8.9086,8.9086,8.9086,8.9086,8.9086,8.9086,8.9086,8.9086,8.9086,8.9086,8.9086,8.9086,8.9086,8.9086,8.9086,8.9086,8.9086,8.9086,8.9086,8.9086,8.9086,8.9086,8.9086,8.9086,8.9086,8.9086,8.9086,8.9086,9.013,9.0867,9.0996,9.1929,9.2611,9.2718,9.2623,9.2551,9.2551,9.2671,9.2778,9.2908,9.2671,9.2611,9.273,9.273,9.3317,9.4423,9.3375,9.2849,5.3069,5.7273,0.0,0.0,7.5664,8.2564,0.0,0.0,0.0,0.0,0.0,0.0,0.0,0.0,0.0,0.0,0.0,0.0,0.0,0.0,0.0,0.0,0.0,0.0,0.0,0.0,0.0,0.0,0.0,0.0,0.0,0.0,0.0,8.4614,8.4614,8.4614,8.4614,8.4614,8.4614,0.0,8.4614,8.4614,8.4614,8.4796,8.4931,8.5121,8.5757,8.5587,8.4965,8.6352,8.6569,8.6095,8.6656,8.6995,8.713,8.713,8.7245,8.7448,8.8023,8.7854,8.755,8.8714,8.8714,8.8328,8.8917,8.9086,8.9086,8.9086,8.9086,8.9086,8.9086,8.9086,8.9086,8.9086,8.9086,8.9086,8.9086,8.9086,8.9086,8.9086,8.9086,8.9086,8.9086,8.9086,8.9086,8.9086,8.9086,8.9086,8.9086,8.9086,8.9086,8.9086,8.9345,8.9921,9.0919,9.0323,9.0336,9.1359,9.0482,8.9935,8.9935,9.0893,9.189,9.2885,9.0923,9.0415,9.1423,9.1423,9.154,9.1828,9.2563,9.2358,5.5738,6.0462,0.0,7.3253,0.0,8.5473,8.6623,0.0,0.0,0.0,0.0,0.0,0.0,0.0,0.0,0.0,0.0,0.0,0.0,0.0,0.0,0.0,0.0,0.0,0.0,0.0,0.0,0.0,0.0,0.0,0.0,8.4614,8.4614,8.4614,8.4614,8.4614,8.4614,8.4614,8.4614,8.4614,8.4614,8.4614,8.4614,8.4614,8.4614,8.4614,8.5033,8.4999,8.4647,8.5473,8.5574,8.5283,8.5642,8.6014,8.6366,8.6366,8.6602,8.6961,8.7347,8.7231,8.7028,8.7786,8.7786,8.755,8.7922,8.8057,8.8125,8.8477,8.8578,8.8646,8.9018,8.9086,8.9086,8.9086,8.9086,8.9086,8.9086,8.9086,8.9086,8.9086,8.9086,8.9086,8.9086,8.9086,8.9086,8.9086,8.9086,8.9086,8.9086,8.9086,8.9086,8.9086,8.9086,8.9373,9.0022,8.9497,8.9386,9.0036,8.9483,8.9086,8.9086,8.9751,9.0402,9.1065,8.9772,8.9428,9.0076,9.0076,9.0389,9.1022,9.1678,9.1977,5.7667,6.324,6.9491,7.7922,8.2813,0.0,8.669,8.7955,0.0,0.0,0.0,0.0,0.0,0.0,0.0,0.0,0.0,0.0,0.0,0.0,0.0,0.0,0.0,0.0,0.0,0.0,0.0,0.0,0.0,0.0,8.4614,8.4614,8.4614,8.4614,8.4614,8.4614,8.4614,8.4614,8.4614,8.4614,8.4614,8.4614,8.4614,8.4614,8.4614,8.4614,8.4614,8.4614,8.4614,8.4614,8.4614,8.4614,8.4614,8.4999,8.5587,8.5587,8.5993,8.6521,8.6656,8.6623,8.6555,8.6825,8.6825,8.6724,8.6859,8.6893,8.7062,8.7786,8.7989,8.8158,8.8917,8.9086,8.9086,8.9086,8.9086,8.9086,8.9086,8.9086,8.9086,8.9086,8.9086,8.9086,8.9086,8.9086,8.9086,8.9086,8.9086,8.9086,8.9086,8.9086,8.9086,8.9086,8.9086,8.9086,8.9086,8.9086,8.9086,8.9086,8.9086,8.9086,8.9086,8.9086,8.9086,8.9086,8.9086,8.9086,8.9086,8.9086,8.9642,9.0692,9.0893,9.1461,5.1288,6.0453,7.1299,0.0,8.2022,8.5134,0.0,0.0,0.0,0.0,0.0,0.0,0.0,0.0,0.0,0.0,0.0,0.0,0.0,0.0,0.0,0.0,0.0,0.0,0.0,0.0,0.0,0.0,0.0,0.0,8.4614,8.4614,8.4614,8.4614,8.4614,8.4614,8.4614,8.4614,8.4614,8.4614,8.4614,8.4614,8.4614,8.4614,8.4614,8.4614,8.4614,8.4614,8.4614,8.4614,8.4614,8.4614,8.4614,8.4661,8.4762,8.4762,8.4817,8.4999,8.5689,8.5486,8.5121,8.6453,8.6467,8.6075,8.669,8.6893,8.7062,8.7786,8.7989,8.8158,8.8917,8.9086,8.9086,8.9086,8.9086,8.9086,8.9086,8.9086,8.9086,8.9086,8.9086,8.9086,8.9086,8.9086,8.9086,8.9086,8.9086,8.9086,8.9086,8.9086,8.9086,8.9086,8.9086,8.9086,8.9086,8.9086,8.9086,8.9086,8.9086,8.9086,8.9086,8.9086,8.9086,8.9086,8.9086,8.9086,8.9086,8.9086,8.9184,8.9386,9.0482,9.0508,5.5843,6.4078,7.236,7.872,8.2171,8.439,8.5926,0.0,0.0,0.0,0.0,0.0,0.0,0.0,0.0,0.0,0.0,0.0,0.0,0.0,0.0,0.0,0.0,0.0,0.0,0.0,0.0,0.0,0.0,8.4614,8.4614,8.4614,8.4614,8.4614,8.4614,8.4614,8.4614,8.4614,8.4614,8.4614,8.4614,8.4614,8.4614,8.4614,8.4614,8.4614,8.4614,8.4614,8.4614,8.4614,8.4614,8.4614,8.4614,8.4614,8.4614,8.4614,8.4614,8.4647,8.4999,8.4898,8.4715,8.5391,8.5405,8.5168,8.5506,8.5608,8.5777,8.6535,8.6785,8.7022,8.8172,8.8477,8.8578,8.8984,8.9086,8.9086,8.9086,8.9086,8.9086,8.9086,8.9086,8.9086,8.9086,8.9086,8.9086,8.9086,8.9086,8.9086,8.9086,8.9086,8.9086,8.9086,8.9478,8.9545,8.912,8.9492,8.9545,8.912,8.9086,8.9086,8.9086,8.9086,8.9086,8.9086,8.9086,8.9086,8.9086,8.9086,8.9086,8.9128,9.0402,9.0684,5.7819,6.4059,6.9305,7.6432,8.0052,8.2374,0.0,0.0,0.0,0.0,0.0,0.0,0.0,0.0,0.0,0.0,0.0,0.0,0.0,0.0,0.0,0.0,0.0,0.0,0.0,0.0,0.0,0.0,0.0,8.4614,8.4614,8.4614,8.4614,8.4614,8.4614,8.4614,8.4614,8.4614,8.4614,8.4614,8.4614,8.4614,8.4614,8.4614,8.4614,8.4614,8.4614,8.4614,8.4614,8.4614,8.4614,8.4614,8.4614,8.4614,8.4614,8.4614,8.4614,8.4614,8.4614,8.4614,8.4614,8.4614,8.4614,8.4614,8.4614,8.4614,8.4762,8.5554,8.5804,8.6142,8.7631,8.7989,8.8206,8.8917,8.9086,8.9086,8.9086,8.9086,8.9086,8.9086,8.9086,8.9086,8.9086,8.9086,8.9086,8.9086,8.9086,8.9086,8.9086,8.9086,8.9086,8.9086,8.9579,8.9681,8.9154,8.9579,8.9681,8.912,8.9086,8.9086,8.9086,8.9086,8.9086,8.9086,8.9086,8.9086,8.9086,8.9086,8.9086,8.9114,9.0062,9.0521,5.0797,5.5176,5.9496,6.7692,7.351,7.8179,0.0,0.0,0.0,0.0,0.0,0.0,0.0,0.0,0.0,0.0,0.0,0.0,0.0,0.0,0.0,0.0,0.0,0.0,0.0,0.0,0.0,0.0,0.0,8.4614,8.4614,8.4614,8.4614,8.4614,8.4614,8.4614,8.4614,8.4614,8.4614,8.4614,8.4614,8.4614,8.4614,8.4614,8.4614,8.4614,8.4614,8.4614,8.4614,8.4614,8.4614,8.4614,8.4614,8.4614,8.4614,8.4614,8.4614,8.4614,8.4614,8.4614,8.4614,8.4614,8.4614,8.4614,8.4614,8.4614,8.4762,8.5554,8.5804,8.6142,8.7631,8.7989,8.8206,8.8917,8.9086,8.9086,8.9086,8.9086,8.9086,8.9086,8.9086,8.9086,8.9086,8.9086,8.9086,8.9086,8.9086,8.9086,8.9086,8.9086,8.9086,8.9086,8.912,8.9154,8.9086,8.912,8.9154,8.9086,8.9086,8.9086,8.9086,8.9086,8.9086,8.9086,8.9086,8.9086,8.9086,8.9086,8.9086,8.9086,8.917,8.9212,4.9168,5.3416,5.8321,6.4647,6.9778,7.4277,7.7997,8.1494,8.4187,0.0,0.0,0.0,0.0,0.0,0.0,0.0,0.0,0.0,0.0,0.0,0.0,0.0,0.0,0.0,0.0,0.0,0.0,0.0,0.0,0.0,8.4614,8.4614,8.4614,8.4614,8.4614,8.4614,8.4614,8.4614,8.4614,8.4614,8.4614,8.4614,8.4614,8.4614,8.4614,8.4614,8.4614,8.4614,8.4614,8.4614,8.4614,8.4614,8.4614,8.4614,8.4614,8.4614,8.4614,8.4614,8.4614,8.4614,8.4614,8.4614,8.4614,8.4614,8.4614,8.4614,8.4647,8.4931,8.5384,8.6041,8.7042,8.7651,8.8206,8.8917,8.9086,8.9086,8.9086,8.9086,8.9086,8.9086,8.9086,8.9086,8.9086,8.9086,8.8951,8.8477,8.8781,8.8917,8.8443,8.8815,8.9086,8.9086,8.9512,8.9613,8.9154,8.9512,8.9579,8.912,8.9086,8.9086,8.9086,8.9086,8.9086,8.9086,8.9086,8.9086,8.9086,8.9086,8.9086,8.9086,8.9086,8.9086,4.6435,5.0194,5.52,6.0926,6.4772,6.873,7.475,0.0,8.1088,0.0,0.0,0.0,0.0,0.0,0.0,0.0,0.0,0.0,0.0,0.0,0.0,0.0,0.0,0.0,0.0,0.0,0.0,0.0,0.0,0.0,8.4614,8.4614,8.4614,8.4614,8.4614,8.4614,8.4614,8.4614,8.4614,8.4614,8.4614,8.4614,8.4614,8.4614,8.4614,8.4614,8.4614,8.4614,8.4614,8.4614,8.4614,8.4614,8.4614,8.4614,8.4614,8.4614,8.4614,8.4614,8.4614,8.4614,8.4614,8.4614,8.4614,8.4614,8.4614,8.4614,8.4614,8.4614,8.5182,8.5973,8.669,8.7617,8.8511,8.8984,8.9086,8.9086,8.9086,8.9086,8.9086,8.9086,8.9086,8.9086,8.9086,8.9086,8.8917,8.8443,8.8781,8.8917,8.8429,8.8781,8.9086,8.9086,8.9545,8.9613,8.9154,8.9545,8.9613,8.912,8.9086,8.9221,8.9458,8.9458,8.9593,8.983,8.9593,8.9458,8.9458,8.9221,8.9086,8.9086,8.9086,8.9086,0.0,0.0,0.0,0.0,0.0,0.0,7.1774,0.0,7.554,0.0,0.0,0.0,0.0,0.0,0.0,0.0,0.0,0.0,0.0,0.0,0.0,0.0,0.0,0.0,0.0,0.0,0.0,0.0,0.0,8.4546,8.4546,8.4546,8.4546,8.4546,8.4546,8.4546,8.4546,8.4546,8.4546,8.4546,8.4546,8.458,8.458,8.458,8.4614,8.4614,8.4614,8.4614,8.4614,8.4614,8.4614,8.4614,8.4614,8.4614,8.4614,8.4614,8.4614,8.4614,8.4614,8.4614,8.4614,8.4614,8.4614,8.4647,8.4647,8.4647,8.4681,8.4681,8.5249,8.6041,8.6771,8.8023,8.9086,8.9086,8.9086,8.9086,8.9086,8.9086,8.9086,8.9086,8.9086,8.9086,8.9086,8.9086,8.9086,8.9052,8.9052,8.9052,8.9052,8.9052,8.9086,8.9086,8.9086,8.9086,8.9086,8.9086,8.912,8.912,8.912,8.9458,9.0208,9.0242,9.056,9.1271,9.0594,9.0208,9.0208,8.9458,8.9086,8.9086,8.9086,8.9086,4.2428,0.0,0.0,0.0,0.0,0.0,0.0,0.0,0.0,7.4999,0.0,0.0,0.0,0.0,0.0,0.0,0.0,0.0,0.0,0.0,0.0,0.0,0.0,0.0,0.0,0.0,0.0,0.0,8.3003,8.3003,8.3003,8.3003,8.3003,8.3003,8.3003,8.3003,8.3003,8.3003,8.3003,8.3003,8.3558,8.3795,8.3815,8.4356,8.4614,8.4614,8.4614,8.4614,8.4614,8.4614,8.4614,8.4614,8.4614,8.4614,8.4614,8.4614,8.4614,8.4614,8.4614,8.4614,8.4614,8.4614,8.4999,8.5466,8.5466,8.5858,8.625,8.625,8.6805,8.755,8.8308,8.8781,8.9086,8.9086,8.9086,8.9086,8.9086,8.9086,8.9086,8.9086,8.9086,8.9086,8.9086,8.9086,8.8917,8.8375,8.8294,8.8294,8.8294,8.8294,8.8511,8.9052,8.9086,8.9086,8.9086,8.9086,8.9323,8.985,8.9918,9.0222,9.0966,9.1,9.1102,9.1305,9.0594,9.0208,9.0208,8.9458,8.9086,8.9086,8.9086,8.9086,4.3721,0.0,0.0,0.0,0.0,0.0,0.0,6.0631,0.0,0.0,0.0,0.0,0.0,0.0,0.0,0.0,0.0,0.0,0.0,0.0,0.0,0.0,0.0,0.0,0.0,0.0,0.0,8.2395,8.2395,8.2395,8.2395,8.2395,8.2395,8.2395,8.2395,8.2395,8.2395,8.2395,8.2395,8.2395,8.3152,8.349,8.3524,8.4255,8.4614,8.4614,8.4614,8.4614,8.4614,8.4614,8.4614,8.4614,8.4614,8.4614,8.4614,8.4614,8.4614,8.4614,8.4614,8.4614,8.4647,8.4999,8.5418,8.5872,8.6176,8.6569,8.6893,8.6893,8.7448,8.8158,8.8917,8.9086,8.9086,8.9086,8.9086,8.9086,8.9086,8.9086,8.9086,8.9086,8.9086,8.9086,8.9086,8.9086,8.8951,8.8511,8.8477,8.8477,8.8477,8.8477,8.8612,8.9052,8.9086,8.9086,8.9086,8.9086,8.9289,8.9715,9.0019,9.0527,9.1271,9.1609,9.1778,9.1778,9.1034,9.0357,8.9748,8.9323,8.9086,8.9086,8.9086,8.9086,4.5819,4.7131,0.0,0.0,0.0,0.0,5.8669,5.9911,6.1434,0.0,0.0,0.0,0.0,0.0,0.0,0.0,0.0,0.0,0.0,0.0,0.0,0.0,0.0,0.0,0.0,8.2192,8.2158,8.2158,8.2158,8.2158,8.2158,8.2158,8.2158,8.2158,8.2158,8.2158,8.2158,8.2158,8.2158,8.2158,8.2915,8.3287,8.3389,8.4153,8.4512,8.4614,8.4614,8.4614,8.4614,8.4614,8.4614,8.4614,8.4614,8.4614,8.4614,8.4614,8.4614,8.4614,8.4614,8.4614,8.4715,8.5533,8.5872,8.6075,8.6792,8.7062,8.713,8.713,8.7617,8.826,8.8917,8.9086,8.9086,8.9086,8.9086,8.9086,8.9086,8.9086,8.9086,8.9086,8.9086,8.9086,8.9086,8.9086,8.9086,8.9086,8.9018,8.9018,8.9086,8.9018,8.9018,8.9086,8.9086,8.9086,8.9086,8.9086,8.912,8.9221,8.9918,9.0662,9.1372,9.2034,9.2392,9.2392,9.1609,9.0493,8.9086,8.9086,8.9086,8.9086,8.9086,8.9086,4.8443,4.9416,5.0457,0.0,0.0,0.0,0.0,5.1944,5.5193,0.0,6.1535,0.0,0.0,0.0,0.0,0.0,0.0,0.0,0.0,0.0,0.0,0.0,0.0,0.0,0.0,8.0987,8.0615,8.0615,8.0615,8.0615,8.0615,8.0615,8.0615,8.0615,8.0615,8.0615,8.0615,8.0615,8.0615,8.0648,8.1372,8.2048,8.2631,8.3389,8.4052,8.4614,8.4614,8.4614,8.4614,8.4614,8.4614,8.4614,8.4614,8.4614,8.4614,8.4614,8.4614,8.4614,8.4614,8.4614,8.4715,8.5533,8.6196,8.6839,8.755,8.8192,8.868,8.868,8.8781,8.8917,8.9052,8.9086,8.9086,8.9086,8.9086,8.9086,8.9086,8.9086,8.9086,8.9086,8.9086,8.9086,8.9086,8.9086,8.9086,8.9086,8.8578,8.8443,8.9018,8.8578,8.8443,8.9052,8.9086,8.9086,8.9086,8.9086,8.9357,8.9951,9.0662,9.144,9.2136,9.2339,9.2392,9.2392,9.1087,8.9985,8.9086,8.9086,8.9086,8.9086,8.9086,8.9086,5.0803,5.1209,5.2156,5.142,0.0,0.0,0.0,0.0,0.0,0.0,0.0,0.0,0.0,0.0,0.0,0.0,0.0,0.0,0.0,0.0,0.0,0.0,0.0,0.0,0.0,7.9308,7.9261,7.9634,7.9667,7.9803,8.0175,8.0209,8.0209,8.0209,8.0209,8.0209,8.0209,8.0209,8.0209,8.0209,8.0966,8.1697,8.2428,8.3152,8.3883,8.4614,8.4614,8.4614,8.4614,8.4614,8.4614,8.4614,8.4614,8.4614,8.4614,8.4614,8.4864,8.5215,8.5215,8.5439,8.5878,8.6636,8.7144,8.7583,8.8328,8.8815,8.9086,8.9086,8.9086,8.9086,8.9086,8.9086,8.9086,8.9086,8.9086,8.9086,8.9086,8.9086,8.9086,8.9086,8.9086,8.9086,8.9086,8.9086,8.9086,8.9086,8.8781,8.868,8.9052,8.8781,8.868,8.9052,8.9086,8.9086,8.9086,8.9086,8.9255,8.9613,9.0357,9.0918,9.129,9.1662,9.1662,9.1324,9.0222,8.9478,8.9086,8.9086,8.9086,8.9086,8.9086,8.9086,0.0,0.0,0.0,0.0,0.0,5.2055,0.0,0.0,0.0,0.0,0.0,0.0,0.0,0.0,0.0,0.0,0.0,0.0,0.0,0.0,0.0,0.0,0.0,0.0,0.0,7.7176,7.7481,7.8775,7.82,7.8437,7.9904,8.0006,8.004,8.0209,8.0209,8.0209,8.0209,8.0209,8.0209,8.0209,8.0796,8.1528,8.2428,8.3016,8.3748,8.4614,8.4614,8.4614,8.4614,8.4614,8.4614,8.4614,8.4614,8.4681,8.483,8.483,8.5351,8.6007,8.6007,8.6399,8.7028,8.7753,8.8091,8.8328,8.8917,8.9086,8.9086,8.9086,8.9086,8.9086,8.9086,8.9086,8.9086,8.9086,8.9086,8.9086,8.9086,8.9086,8.9086,8.9086,8.9086,8.9086,8.9086,8.9086,8.9086,8.9086,8.9086,8.9086,8.9086,8.9086,8.9086,8.9086,8.9086,8.9086,8.9086,8.9086,8.9086,8.9086,8.9782,9.0208,9.0208,9.0763,9.0729,9.0019,8.939,8.9086,8.9086,8.9086,8.9086,8.9086,8.9086,8.9086,0.0,0.0,0.0,0.0,5.7755,0.0,0.0,0.0,0.0,0.0,0.0,0.0,0.0,0.0,0.0,0.0,0.0,0.0,0.0,0.0,0.0,0.0,0.0,0.0,0.0,0.0,7.4469,7.7887,7.5033,7.4931,7.9012,7.9215,7.952,8.0175,8.0209,8.0209,8.0209,8.0209,8.0209,8.0209,8.0276,8.1054,8.2395,8.2496,8.3274,8.4614,8.4614,8.4614,8.4614,8.4614,8.4614,8.4614,8.4614,8.5033,8.5669,8.5669,8.6129,8.6758,8.6758,8.6825,8.7028,8.7753,8.8443,8.8984,8.9052,8.9086,8.9086,8.9086,8.9086,8.9086,8.9086,8.9086,8.9086,8.9086,8.9086,8.9086,8.9086,8.9086,8.9086,8.9086,8.9086,8.9086,8.9086,8.9086,8.9086,8.9086,8.9086,8.9086,8.9086,8.9086,8.9086,8.9086,8.9086,8.9086,8.9086,8.9086,8.9086,8.9086,8.9782,9.0208,9.0208,9.0275,8.9985,8.9255,8.9154,8.9086,8.9086,8.9086,8.9086,8.9086,8.9086,8.9086,0.0,0.0,0.0,0.0,0.0,0.0,0.0,0.0,5.115,0.0,0.0,0.0,0.0,0.0,0.0,0.0,0.0,0.0,0.0,0.0,0.0,0.0,0.0,0.0,0.0,0.0,0.0,0.0,0.0,7.333,7.6915,7.837,7.9249,7.9553,7.9972,8.0209,8.0209,8.0209,8.0209,8.0209,8.0209,8.0987,8.2395,8.2395,8.3206,8.4614,8.4614,8.4614,8.4614,8.4614,8.4614,8.4614,8.4614,8.51,8.5804,8.5804,8.6548,8.755,8.755,8.782,8.824,8.8545,8.8849,8.9086,8.9086,8.9086,8.9086,8.9086,8.9086,8.9086,8.9086,8.9086,8.9086,8.9086,8.9086,8.9086,8.9086,8.9086,8.9086,8.9086,8.9086,8.9086,8.9086,8.9086,8.9086,8.9086,8.9086,8.9086,8.9086,8.9086,8.9086,8.9086,8.9086,8.9086,8.9086,8.9086,8.9086,8.9086,8.939,8.956,8.956,8.956,8.9424,8.912,8.9086,8.9086,8.9086,8.9086,8.9086,8.9086,8.9086,8.9086,6.3057,0.0,0.0,0.0,0.0,0.0,0.0,0.0,0.0,0.0,0.0,0.0,0.0,0.0,0.0,0.0,0.0,0.0,0.0,0.0,0.0,0.0,0.0,0.0,0.0,0.0,0.0,0.0,0.0,0.0,7.5168,7.6983,7.8268,7.908,7.9634,8.0006,8.0209,7.9773,7.9773,8.0209,7.9773,8.056,8.2395,8.2395,8.3206,8.4614,8.4614,8.4614,8.4614,8.4614,8.4614,8.4614,8.4614,8.51,8.5838,8.6041,8.692,8.8023,8.8226,8.8646,8.9086,8.9086,8.9086,8.9086,8.9086,8.9086,8.9086,8.9086,8.9086,8.9086,8.9086,8.9086,8.9086,8.9086,8.9086,8.9086,8.9086,8.9086,8.9086,8.9086,8.9086,8.9086,8.9086,8.9086,8.9086,8.9086,8.9086,8.9086,8.9086,8.9086,8.9086,8.9086,8.9086,8.9086,8.9086,8.9086,8.9086,8.9086,8.9086,8.9086,8.9086,8.9086,8.9086,8.9086,8.9086,8.9086,8.9086,8.9086,8.9086,8.9086,8.9086,8.9086,0.0,0.0,0.0,0.0,0.0,0.0,0.0,0.0,5.4,0.0,0.0,0.0,0.0,0.0,0.0,0.0,0.0,0.0,0.0,0.0,0.0,0.0,0.0,0.0,0.0,0.0,0.0,0.0,0.0,0.0,7.4209,7.4717,7.607,7.9012,7.9114,7.9486,8.0175,7.8723,7.8723,8.0196,7.8697,7.9529,8.2395,8.2395,8.3206,8.4614,8.4614,8.4614,8.4614,8.4614,8.4614,8.4614,8.4614,8.51,8.5905,8.6602,8.7347,8.8091,8.8815,8.9086,8.9086,8.9086,8.9086,8.9086,8.9086,8.9086,8.9086,8.9086,8.9086,8.9086,8.9086,8.9086,8.9086,8.9086,8.9086,8.9086,8.9086,8.9086,8.9086,8.9086,8.9086,8.9086,8.9086,8.9086,8.9086,8.9086,8.9086,8.9086,8.9086,8.9086,8.9086,8.9086,8.9086,8.9086,8.9086,8.9086,8.9086,8.9086,8.9086,8.9086,8.9086,8.9086,8.9086,8.9086,8.9086,8.9086,8.9086,8.9086,8.9086,8.9086,8.9086,8.9086,0.0,0.0,7.1481,6.4759,0.0,0.0,0.0,0.0,0.0,0.0,0.0,0.0,0.0,0.0,0.0,0.0,0.0,0.0,0.0,0.0,0.0,0.0,0.0,0.0,0.0,0.0,0.0,0.0,6.37,0.0,0.0,7.3262,7.5055,7.6103,7.8065,7.9215,7.9452,7.9447,7.9683,8.0209,7.9683,8.0469,8.2395,8.2395,8.3206,8.4614,8.4614,8.4614,8.4614,8.4614,8.4614,8.4614,8.4614,8.4762,8.5168,8.642,8.738,8.8091,8.8849,8.9086,8.9086,8.9086,8.9086,8.9086,8.9086,8.9086,8.9086,8.9086,8.9086,8.9086,8.9086,8.9086,8.9086,8.9086,8.9086,8.9086,8.9086,8.9086,8.9086,8.9086,8.9086,8.9086,8.9086,8.9086,8.9086,8.9086,8.9086,8.9086,8.9086,8.9086,8.9086,8.9086,8.9086,8.9086,8.9086,8.9086,8.9086,8.9086,8.9086,8.9086,8.9086,8.9086,8.9086,8.9086,8.9086,8.9086,8.9086,8.9086,8.9086,8.9086,8.9086,8.9086,7.3849,7.4492,0.0,0.0,6.6417,0.0,0.0,0.0,0.0,0.0,0.0,0.0,0.0,0.0,0.0,0.0,0.0,0.0,0.0,0.0,0.0,0.0,0.0,0.0,0.0,0.0,5.822,6.1342,6.1052,0.0,0.0,0.0,7.351,7.4581,7.7253,7.8809,7.9114,7.9287,7.967,8.0209,7.9657,8.0444,8.2395,8.2395,8.3206,8.4614,8.4614,8.4614,8.4614,8.4614,8.4614,8.4614,8.4614,8.4614,8.4783,8.6318,8.755,8.8477,8.8951,8.9086,8.9086,8.9086,8.9086,8.9086,8.9086,8.9086,8.9086,8.9086,8.9086,8.9086,8.9086,8.9086,8.9086,8.9086,8.9086,8.9086,8.9086,8.9086,8.9086,8.9086,8.9086,8.9086,8.9086,8.9086,8.9086,8.9086,8.9086,8.9086,8.9086,8.9086,8.9086,8.9086,8.9086,8.9086,8.9086,8.9086,8.9086,8.9086,8.9086,8.9086,8.9086,8.9086,8.9086,8.9086,8.9086,8.9086,8.9086,8.9086,8.9086,8.9086,8.9086,8.9086]},{"header":{"parameterUnit":"m.s-1","parameterCategory":1,"la1":30.6,"la2":29.2853,"lo1":-89.7004,"lo2":-87.6739,"dy":0.0162,"dx":0.0183,"nx":112,"ny":82,"refTime":"2026-04-06T00:00:00:Z","depth":0,"parameterNumber":3,"parameterNumberName":"V-component_of_WINDS"},"data":[0.0,0.0,0.0,0.0,0.0,0.0,0.0,0.0,0.0,0.0,0.0,0.0,0.0,0.0,0.0,0.0,0.0,0.0,0.0,0.0,0.0,0.0,0.0,0.0,0.0,0.0,0.0,0.0,0.0,0.0,0.0,0.0,0.0,0.0,0.0,0.0,0.0,0.0,0.0,0.0,0.0,0.0,0.0,0.0,0.0,0.0,0.0,0.0,0.0,0.0,0.0,0.0,0.0,0.0,0.0,0.0,0.0,0.0,0.0,0.0,0.0,0.0,0.0,0.0,0.0,0.0,0.0,0.0,0.0,0.0,0.0,0.0,0.0,0.0,0.0,0.0,0.0,0.0,0.0,0.0,0.0,0.0,0.0,0.0,0.0,0.0,0.0,0.0,0.0,0.0,0.0,1.226,1.4084,1.5052,1.471,1.6155,1.6045,1.3602,0.0,0.0,0.0,0.0,0.0,0.0,0.0,0.0,0.0,0.0,0.0,0.0,0.0,0.0,0.0,0.0,0.0,0.0,0.0,0.0,0.0,0.0,0.0,0.0,0.0,0.0,0.0,0.0,0.0,0.0,0.0,0.0,0.0,0.0,0.0,0.0,0.0,0.0,0.0,0.0,0.0,0.0,0.0,0.0,0.0,0.0,0.0,0.0,0.0,0.0,0.0,0.0,0.0,0.0,0.0,0.0,0.0,0.0,0.0,0.0,0.0,0.0,0.0,0.0,0.0,0.0,0.0,0.0,0.0,0.0,0.0,0.0,0.0,0.0,0.0,0.0,0.0,0.0,0.0,0.0,0.0,0.0,0.0,0.0,0.0,0.0,0.0,0.0,0.0,0.0,0.0,0.0,0.0,0.0,0.0,0.0,0.0,0.0,0.0,0.0,0.0,0.0,0.0,0.0,1.1665,1.566,1.8502,1.9961,1.9559,2.0499,1.961,1.6095,0.0,0.0,0.0,0.0,0.0,0.0,0.0,0.0,0.0,0.0,0.0,0.0,0.0,0.0,0.0,0.0,0.0,0.0,0.0,0.0,0.0,0.0,0.0,0.0,0.0,0.0,0.0,0.0,0.0,0.0,0.0,0.0,0.0,0.0,0.0,0.0,0.0,0.0,0.0,0.0,0.0,0.0,0.0,0.0,0.0,0.0,0.0,0.0,0.0,0.0,0.0,0.0,0.0,0.0,0.0,0.0,0.0,0.0,0.0,0.0,0.0,0.0,0.0,0.0,0.0,0.0,0.0,0.0,0.0,0.0,0.0,0.0,0.0,0.0,0.0,0.0,0.0,0.0,0.0,0.0,0.0,0.0,0.0,0.0,0.0,0.0,0.0,0.0,0.0,0.0,0.0,0.0,0.0,0.0,0.0,0.0,0.0,0.0,0.0,0.0,0.0,0.0,0.0,1.2619,1.448,1.8581,2.0327,2.1039,2.0636,2.1629,2.095,1.7838,1.6244,0.0,0.0,0.0,0.0,0.0,0.0,0.0,0.0,0.0,0.0,0.0,0.0,0.0,0.0,0.0,0.0,0.0,0.0,0.0,0.0,0.0,0.0,0.0,0.0,0.0,0.0,0.0,0.0,0.0,0.0,0.0,0.0,0.0,0.0,0.0,0.0,0.0,0.0,0.0,0.0,0.0,0.0,0.0,0.0,0.0,0.0,0.0,0.0,0.0,0.0,0.0,0.0,0.0,0.0,0.0,0.0,0.0,0.0,0.0,0.0,0.0,0.0,0.0,0.0,0.0,0.0,0.0,0.0,0.0,0.0,0.0,0.0,0.0,0.0,0.0,0.0,0.0,0.0,0.0,0.0,0.0,0.0,0.0,0.0,0.0,0.0,0.0,0.0,0.0,0.0,0.0,0.0,0.0,0.0,0.0,0.0,0.0,0.0,0.0,0.0,0.0,0.0,1.5822,1.7779,2.1295,2.2374,2.2662,2.2224,2.2328,2.1565,1.9506,1.7876,0.0,0.0,0.0,0.0,0.0,0.0,0.0,0.0,0.0,0.0,0.0,0.0,0.0,0.0,0.0,0.0,0.0,0.0,0.0,0.0,0.0,0.0,0.0,0.0,0.0,0.0,0.0,0.0,0.0,0.0,0.0,0.0,0.0,0.0,0.0,0.0,0.0,0.0,0.0,0.0,0.0,0.0,0.0,0.0,0.0,0.0,0.0,0.0,0.0,0.0,0.0,0.0,0.0,0.0,0.0,0.0,0.0,0.0,0.0,0.0,0.0,0.0,0.0,0.0,0.0,0.0,0.0,0.0,0.0,0.0,0.0,0.0,0.0,0.0,0.0,0.0,0.0,0.0,0.0,0.0,0.0,0.0,0.0,0.0,0.0,0.0,0.0,0.0,0.0,0.0,0.0,0.0,0.0,0.0,0.0,0.0,0.0,0.0,0.0,0.0,0.0,0.0,1.7565,2.0912,2.3921,2.6314,2.7478,2.6865,2.3997,2.1985,2.1437,1.7824,0.0,0.0,0.0,0.0,0.0,0.0,0.0,0.0,0.0,0.0,0.0,0.0,0.0,0.0,0.0,0.0,0.0,0.0,0.0,0.0,0.0,0.0,0.0,0.0,0.0,0.0,0.0,0.0,0.0,0.0,0.0,0.0,0.0,0.0,0.0,0.0,0.0,0.0,0.0,0.0,0.0,0.0,0.0,0.0,0.0,0.0,0.0,0.0,0.0,0.0,0.0,0.0,0.0,0.0,0.0,0.0,0.0,0.0,0.0,0.0,0.0,0.0,0.0,0.0,0.0,0.0,0.0,0.0,0.0,0.0,0.0,0.0,0.0,0.0,0.0,0.0,0.0,0.0,0.0,0.0,0.0,0.0,0.0,0.0,0.0,0.0,0.0,0.0,0.0,0.0,0.0,0.0,0.0,0.0,0.0,0.0,0.0,0.0,0.0,0.0,0.0,0.0,1.8443,2.1511,0.0,2.7635,2.7972,2.7362,2.5767,2.3901,2.174,0.0,0.0,0.0,0.0,0.0,0.0,0.0,0.0,0.0,0.0,0.0,0.0,0.0,0.0,0.0,0.0,0.0,0.0,0.0,0.0,0.0,0.0,0.0,0.0,0.0,0.0,0.0,0.0,0.0,0.0,0.0,0.0,0.0,0.0,0.0,0.0,0.0,0.0,0.0,0.0,0.0,0.0,0.0,0.0,0.0,0.0,0.0,0.0,0.0,0.0,0.0,0.0,0.0,0.0,0.0,0.0,0.0,0.0,0.0,0.0,0.0,0.0,0.0,0.0,0.0,0.0,0.0,0.0,0.0,0.0,0.0,0.0,0.0,0.0,0.0,0.0,0.0,0.0,0.0,0.0,0.0,0.0,0.0,0.0,0.0,0.0,0.0,0.0,0.0,0.0,0.0,0.0,0.0,0.0,0.0,0.0,0.0,0.0,0.0,0.0,0.0,0.0,1.7427,1.9668,2.2732,0.0,2.8245,2.7978,2.7462,2.5991,2.3862,2.1026,0.0,0.0,0.0,0.0,0.0,0.0,0.0,0.0,0.0,0.0,0.0,0.0,0.0,0.0,0.0,0.0,0.0,0.0,0.0,0.0,0.0,0.0,0.0,0.0,0.0,0.0,0.0,0.0,0.0,0.0,0.0,0.0,0.0,0.0,0.0,0.0,0.0,0.0,0.0,0.0,0.0,0.0,0.0,0.0,0.0,0.0,0.0,0.0,0.0,0.0,0.0,0.0,0.0,0.0,0.0,0.0,0.0,0.0,0.0,0.0,0.0,0.0,0.0,0.0,0.0,0.0,0.0,0.0,0.0,0.0,0.0,0.0,0.0,0.0,0.0,0.0,0.0,0.0,0.0,0.0,0.0,0.0,0.0,0.0,0.0,0.0,0.0,0.0,0.0,0.0,0.0,0.0,0.0,0.0,0.0,0.0,0.0,0.0,0.0,0.0,0.0,0.0,1.7685,2.1446,2.5046,2.827,2.8379,2.8072,2.7722,2.4361,2.1393,0.0,0.0,0.0,0.0,0.0,0.0,0.0,0.0,0.0,0.0,0.0,0.0,0.0,0.0,0.0,0.0,0.0,0.0,0.0,0.0,0.0,0.0,0.0,0.0,0.0,0.0,0.0,0.0,0.0,0.0,0.0,0.0,0.0,0.0,0.0,0.0,0.0,0.0,0.0,0.0,0.0,0.0,0.0,0.0,0.0,0.0,0.0,0.0,0.0,0.0,0.0,0.0,0.0,0.0,0.0,0.0,0.0,0.0,0.0,0.0,0.0,0.0,0.0,0.0,0.0,0.0,0.0,0.0,0.0,0.0,0.0,0.0,0.0,0.0,0.0,0.0,0.0,0.0,0.0,0.0,0.0,0.0,0.0,0.0,0.0,0.0,0.0,0.0,0.0,0.0,0.0,0.0,0.0,0.0,0.0,0.0,0.0,0.0,0.0,0.0,0.0,0.0,0.0,0.0,2.2005,2.567,2.8559,2.881,2.8564,2.8098,2.6459,2.4147,2.1101,0.0,0.0,0.0,0.0,0.0,0.0,0.0,0.0,0.0,0.0,0.0,0.0,0.0,0.0,0.0,0.0,0.0,0.0,0.0,0.0,0.0,0.0,0.0,0.0,0.0,0.0,0.0,0.0,0.0,0.0,0.0,0.0,0.0,0.0,0.0,0.0,0.0,0.0,0.0,0.0,0.0,0.0,0.0,0.0,0.0,0.0,0.0,0.0,0.0,0.0,0.0,0.0,0.0,0.0,0.0,0.0,0.0,0.0,0.0,0.0,0.0,0.0,0.0,0.0,0.0,0.0,0.0,0.0,0.0,0.0,0.0,0.0,0.0,0.0,0.0,0.0,0.0,0.0,0.0,0.0,0.0,0.0,0.0,0.0,0.0,0.0,0.0,0.0,0.0,0.0,0.0,0.0,0.0,0.0,0.0,0.0,0.0,0.0,0.0,0.0,0.0,0.0,1.8332,2.3082,2.6969,2.8986,2.909,2.8823,2.8385,2.7509,2.5321,2.1414,0.0,0.0,0.0,0.0,0.0,0.0,0.0,0.0,0.0,0.0,0.0,0.0,0.0,0.0,0.0,0.0,0.0,0.0,0.0,0.0,0.0,0.0,0.0,0.0,0.0,0.0,0.0,0.0,0.0,0.0,0.0,0.0,0.0,0.0,0.0,0.0,0.0,0.0,0.0,0.0,0.0,0.0,0.0,0.0,0.0,0.0,0.0,0.0,0.0,0.0,0.0,0.0,0.0,0.0,0.0,0.0,0.0,0.0,0.0,0.0,0.0,0.0,0.0,0.0,0.0,0.0,0.0,0.0,0.0,0.0,0.0,0.0,0.0,0.0,0.0,0.0,0.0,0.0,0.0,0.0,0.0,0.0,0.0,0.0,0.0,0.0,0.0,0.0,0.0,0.0,0.0,0.0,0.0,0.0,0.0,0.0,0.0,0.0,0.0,0.0,0.0,0.0,1.869,2.435,2.8607,2.9454,2.9263,2.8948,2.8649,2.785,2.5465,2.1083,0.0,0.0,0.0,0.0,0.0,0.0,0.0,0.0,0.0,0.0,0.0,0.0,0.0,0.0,0.0,0.0,0.0,0.0,0.0,0.0,0.0,0.0,0.0,0.0,0.0,0.0,0.0,0.0,0.0,0.0,0.0,0.0,0.0,0.0,0.0,0.0,0.0,0.0,0.0,0.0,0.0,0.0,0.0,0.0,0.0,0.0,0.0,0.0,0.0,0.0,0.0,0.0,0.0,0.0,0.0,0.0,0.0,0.0,0.0,0.0,1.9973,0.0,0.0,0.0,0.0,0.0,0.0,0.0,0.0,0.0,0.0,0.0,0.0,0.0,0.0,0.0,0.0,0.0,0.0,0.0,0.0,0.0,0.0,0.0,0.0,0.0,0.0,0.0,0.0,0.0,0.0,0.0,0.0,0.0,0.0,0.0,0.0,0.0,0.0,0.0,0.0,0.0,1.8972,2.4794,2.9077,2.9731,2.9744,2.949,2.8948,2.8123,2.6327,2.3293,0.0,0.0,0.0,0.0,0.0,0.0,0.0,0.0,0.0,0.0,0.0,0.0,0.0,0.0,0.0,0.0,0.0,0.0,0.0,0.0,0.0,0.0,0.0,0.0,0.0,0.0,0.0,0.0,0.0,0.0,0.0,0.0,0.0,0.0,0.0,0.0,0.0,0.0,0.0,0.0,0.0,0.0,0.0,0.0,0.0,0.0,0.0,0.0,0.0,0.0,0.0,0.0,0.0,0.0,0.0,0.0,0.0,0.0,0.0,0.0,0.0,2.0962,0.0,0.0,0.0,0.0,0.0,0.0,0.0,0.0,0.0,0.0,0.0,0.0,0.0,0.0,0.0,0.0,0.0,0.0,0.0,0.0,0.0,0.0,0.0,0.0,0.0,0.0,0.0,0.0,0.0,0.0,0.0,0.0,0.0,0.0,0.0,0.0,0.0,0.0,0.0,0.0,1.9237,2.5026,2.9228,2.9838,2.9891,2.9717,2.9285,2.8564,2.7208,2.4994,2.2252,0.0,0.0,0.0,0.0,0.0,0.0,0.0,0.0,0.0,0.0,0.0,0.0,0.0,0.0,0.0,0.0,0.0,0.0,0.0,0.0,0.0,0.0,0.0,0.0,0.0,0.0,0.0,0.0,0.0,0.0,0.0,0.0,0.0,0.0,0.0,0.0,0.0,0.0,0.0,0.0,0.0,0.0,0.0,0.0,0.0,0.0,0.0,0.0,0.0,0.0,0.0,0.0,0.0,0.0,2.6172,2.7168,2.6894,2.6901,2.7028,2.4783,2.3794,2.3683,0.0,0.0,0.0,0.0,0.0,0.0,0.0,0.0,0.0,0.0,0.0,0.0,0.0,0.0,0.0,0.0,0.0,0.0,0.0,0.0,0.0,0.0,0.0,0.0,0.0,2.2435,2.2532,0.0,0.0,0.0,0.0,0.0,0.0,0.0,0.0,0.0,0.0,0.0,0.0,1.9977,2.5332,2.9228,2.9838,2.9891,2.9793,2.9535,2.8951,2.7896,2.6232,2.4298,2.1812,0.0,0.0,0.0,0.0,0.0,0.0,0.0,0.0,0.0,0.0,0.0,0.0,0.0,0.0,0.0,0.0,0.0,0.0,0.0,0.0,0.0,0.0,0.0,0.0,0.0,0.0,0.0,0.0,0.0,0.0,0.0,0.0,2.1153,2.1338,0.0,0.0,0.0,0.0,0.0,0.0,0.0,0.0,0.0,0.0,0.0,0.0,0.0,0.0,2.5104,2.6727,2.7716,2.8096,2.9147,2.9842,3.0207,2.9936,2.9962,3.0203,2.9601,0.0,2.561,2.5157,0.0,0.0,0.0,0.0,0.0,0.0,0.0,0.0,0.0,0.0,0.0,0.0,0.0,0.0,0.0,0.0,0.0,0.0,0.0,0.0,0.0,0.0,2.546,2.5268,2.5422,2.5367,0.0,2.172,1.9068,1.7508,0.0,0.0,0.0,0.0,0.0,0.0,0.0,0.0,2.2091,2.6295,2.9228,2.9838,2.9891,2.9793,2.9535,2.8951,2.8049,2.6787,2.5232,2.3599,2.1872,2.0285,0.0,0.0,0.0,0.0,0.0,0.0,0.0,0.0,0.0,0.0,0.0,0.0,0.0,0.0,0.0,0.0,0.0,0.0,0.0,0.0,0.0,0.0,0.0,0.0,0.0,0.0,0.0,0.0,0.0,1.9653,2.1297,2.101,2.1537,2.1439,0.0,0.0,0.0,0.0,0.0,0.0,0.0,0.0,0.0,2.551,2.638,2.7308,2.8251,2.9187,2.9896,3.0364,3.0872,3.1447,3.2035,3.1915,3.2021,3.2251,3.1981,3.1055,2.957,2.7756,2.6085,2.4512,0.0,0.0,0.0,0.0,0.0,2.3086,2.4369,0.0,0.0,0.0,0.0,0.0,0.0,0.0,0.0,0.0,0.0,0.0,0.0,0.0,0.0,2.7302,2.7462,2.7382,2.7075,2.5277,2.3103,0.0,2.0231,1.8706,1.483,0.0,0.0,0.0,0.0,0.0,2.323,2.6726,2.9228,2.9838,2.9891,2.9838,2.974,2.917,2.8462,2.7636,2.6346,2.5018,2.3679,2.2108,2.0441,0.0,0.0,0.0,0.0,0.0,0.0,0.0,0.0,0.0,0.0,0.0,0.0,0.0,0.0,0.0,0.0,0.0,0.0,0.0,0.0,0.0,0.0,0.0,0.0,0.0,0.0,0.0,0.0,2.0569,2.2201,2.1989,2.3282,2.3428,0.0,0.0,0.0,0.0,0.0,0.0,2.4364,2.5888,2.7475,2.9132,3.0594,3.1837,3.2805,3.2501,3.2961,3.4169,3.2883,3.3003,3.4364,3.3656,3.344,3.3602,3.3414,3.3131,3.2596,2.9949,2.8131,2.6874,2.5697,2.4903,2.4484,2.493,2.5291,2.5752,2.7455,2.8022,2.7909,2.7141,0.0,2.4994,2.3161,0.0,0.0,0.0,0.0,2.2332,2.529,0.0,2.7255,2.843,2.8703,2.8657,2.8438,2.7756,2.6466,0.0,2.3594,2.229,1.8388,0.0,0.0,0.0,0.0,2.2775,2.4714,2.7332,2.9228,2.9838,2.9891,2.9864,2.9784,2.9317,2.8729,2.8112,2.7155,2.6139,2.5005,2.3768,2.2255,0.0,0.0,0.0,0.0,0.0,0.0,0.0,0.0,0.0,0.0,0.0,0.0,0.0,0.0,0.0,0.0,0.0,0.0,0.0,0.0,0.0,0.0,0.0,0.0,0.0,0.0,0.0,0.0,0.0,0.0,2.6662,2.8722,0.0,0.0,0.0,0.0,2.3717,2.4663,2.5945,2.7402,3.065,3.3047,3.4292,3.7266,3.9016,3.9337,3.7509,3.8058,4.0857,3.6077,3.5327,3.8047,3.5417,3.423,3.4243,3.423,3.3896,3.3228,3.1423,3.0287,2.9606,2.8446,2.7791,2.7482,2.7509,2.773,2.8112,2.8716,2.8921,2.8983,2.9232,2.7804,2.5877,2.5438,2.4479,0.0,0.0,2.5234,2.6307,2.7335,2.8043,2.8569,2.8895,2.8975,2.8975,2.8948,2.8511,2.7691,0.0,2.4935,2.3374,2.0914,0.0,2.0318,2.075,2.1977,2.3993,2.7114,2.8372,2.9228,2.9838,2.9891,2.9806,2.9526,2.9197,2.8636,2.7776,2.7422,2.6867,2.5971,2.5315,2.4102,2.2308,2.0561,0.0,0.0,0.0,0.0,0.0,0.0,0.0,0.0,0.0,0.0,0.0,0.0,0.0,0.0,0.0,0.0,0.0,0.0,0.0,0.0,0.0,0.0,0.0,0.0,0.0,0.0,0.0,0.0,2.8387,3.1481,0.0,0.0,3.1015,3.1026,3.1014,3.2181,3.3411,3.4596,3.6443,3.7844,3.8652,4.0229,4.1195,4.1472,4.0789,4.0984,4.2037,4.0221,4.005,4.1267,4.0278,3.9773,3.9596,3.773,3.6781,3.6278,3.3388,3.1767,3.0992,3.019,2.9695,2.9454,2.9619,2.9873,3.0207,3.0785,3.0889,3.0595,2.9775,2.8778,2.7795,2.7121,2.6627,2.6386,2.6794,2.7229,2.7764,2.8639,2.9005,2.9245,2.9517,2.9584,2.953,2.9366,2.9174,2.8813,2.8083,2.6807,2.5372,2.3788,2.3772,2.3902,2.3696,2.4855,2.6362,2.806,2.8898,2.9472,2.9851,2.9891,2.9793,2.9535,2.9045,2.8436,2.7736,2.7241,2.676,2.6272,2.5678,2.4703,2.3331,2.1927,1.98,0.0,0.0,0.0,0.0,0.0,0.0,0.0,0.0,0.0,0.0,0.0,0.0,0.0,0.0,0.0,0.0,0.0,0.0,0.0,0.0,0.0,0.0,0.0,0.0,0.0,0.0,3.0673,3.1591,3.4945,3.6621,3.5162,3.5818,3.6287,3.619,3.7199,3.8244,3.926,4.0867,4.206,4.2696,4.4047,4.486,4.5034,4.4252,4.4328,4.5203,4.351,4.3298,4.4374,4.3315,4.279,4.2598,4.0516,3.9027,3.7923,3.6493,3.4468,3.2222,3.1634,3.1286,3.1162,3.134,3.1527,3.173,3.2118,3.2088,3.166,3.0591,2.9953,2.9477,2.8804,2.8524,2.8511,2.8848,2.8928,2.9088,2.9775,2.9949,2.998,3.0167,3.014,3.002,2.9842,2.9642,2.9419,2.921,2.815,2.7008,2.6139,2.6219,2.6305,2.5898,2.6854,2.7877,2.8644,2.9179,2.9593,2.9864,2.9891,2.9753,2.9366,2.8791,2.8211,2.7589,2.6814,2.6273,2.6106,2.5438,2.4609,2.3665,2.2074,2.0149,1.7903,0.0,0.0,0.0,0.0,0.0,0.0,0.0,0.0,0.0,0.0,0.0,0.0,0.0,0.0,0.0,0.0,0.0,0.0,0.0,0.0,0.0,0.0,0.0,2.6469,3.0652,3.4464,3.6518,3.9316,4.056,3.9183,4.0417,4.061,3.8944,3.9362,4.0161,4.114,4.3856,4.5697,4.641,4.8919,5.0238,5.0238,4.7982,4.8186,5.0748,4.586,4.4916,4.7397,4.434,4.2932,4.2874,4.2353,4.0525,3.8138,4.0575,3.842,3.3485,3.2933,3.2681,3.2607,3.2607,3.2607,3.2621,3.2607,3.2396,3.2078,3.1808,3.1313,3.0791,3.0497,3.0203,3.0007,3.031,3.0426,3.0457,3.0715,3.0795,3.0795,3.0795,3.0604,3.0413,3.0413,2.9936,2.9535,2.9521,2.8834,2.8125,2.7789,2.7529,2.7342,2.7342,2.7857,0.0,2.8956,2.9312,2.9606,2.9851,2.9878,2.9637,2.9028,2.8492,2.7924,2.7322,2.6159,2.5499,2.5499,2.4658,2.3923,2.3336,2.1042,1.944,1.8558,0.0,0.0,0.0,0.0,0.0,0.0,0.0,0.0,0.0,0.0,0.0,0.0,0.0,0.0,0.0,0.0,0.0,0.0,0.0,0.0,0.0,0.0,3.2561,3.0826,3.4984,3.8791,4.032,4.3329,4.5102,4.4708,4.536,4.5729,4.5544,4.6262,4.699,4.7605,4.8676,4.9354,4.9579,5.0557,5.1069,5.1069,5.0445,5.0503,5.1201,4.9544,4.9133,4.9832,4.867,4.7953,4.7535,4.5526,4.4173,4.3255,4.1879,3.9408,3.6469,3.5929,3.4552,3.2891,3.2891,3.3011,3.3146,3.2957,3.2837,3.2677,3.2169,3.1754,3.1393,3.1076,3.0782,3.0568,3.0648,3.0698,3.0711,3.0768,3.0795,3.0795,3.0795,3.0728,3.0644,3.043,3.0279,3.0083,2.9833,2.9454,2.904,2.8703,2.8583,2.8529,2.8529,0.0,0.0,2.9339,2.9619,2.9753,2.9619,2.9606,2.9366,2.8756,2.8163,2.7583,0.0,2.6019,2.5499,2.5499,2.4858,2.423,2.3679,2.1984,2.0657,0.0,0.0,0.0,0.0,0.0,0.0,0.0,0.0,0.0,0.0,0.0,0.0,0.0,0.0,0.0,0.0,0.0,0.0,0.0,0.0,0.0,0.0,3.3839,3.7341,3.7557,4.0181,4.2734,4.4392,4.6456,4.7891,4.8262,4.8516,4.8792,4.9004,4.9512,4.998,5.041,5.0664,5.0879,5.103,5.1284,5.1401,5.1401,5.1401,5.1401,5.1401,5.1167,5.105,5.103,5.0625,5.0215,0.0,4.8022,4.6543,4.5232,4.4649,4.2354,0.0,0.0,0.0,0.0,0.0,3.3267,3.3387,3.3213,3.316,3.308,3.2625,3.2382,3.2169,3.1717,3.1476,3.1316,3.1219,3.1179,3.1179,3.1179,3.1179,3.1179,3.1179,3.1062,3.0929,3.0755,3.0644,3.0471,3.0154,0.0,0.0,2.9437,2.9161,2.9001,2.9001,2.9285,2.9508,0.0,2.974,2.9824,2.9686,2.9659,2.9472,2.9018,2.819,0.0,0.0,0.0,2.517,2.4796,2.4324,0.0,0.0,0.0,0.0,0.0,0.0,0.0,0.0,1.9626,1.914,0.0,0.0,0.0,0.0,0.0,0.0,0.0,0.0,0.0,0.0,0.0,0.0,0.0,0.0,0.0,0.0,3.785,4.1179,4.4807,4.5369,4.613,4.8047,4.8734,4.934,5.0121,5.0238,5.0278,5.0278,5.0317,5.0488,5.0859,0.0,0.0,0.0,0.0,5.1401,5.1401,5.1401,5.1401,5.1401,5.1362,5.1343,5.1323,5.0918,5.0527,5.018,4.9766,4.8015,4.5687,4.8007,4.6068,4.1332,3.8441,3.5684,3.3414,3.3414,3.3414,0.0,0.0,0.0,0.0,3.3106,3.3024,3.2904,3.2358,3.2158,3.2051,3.1861,3.1741,3.1701,3.1727,3.1714,3.1687,3.1687,3.1463,3.1239,3.1213,3.0999,3.0778,3.0507,3.0453,3.035,3.006,2.9504,2.9095,2.9095,2.9344,0.0,2.9561,2.9753,2.9878,2.9873,0.0,0.0,2.9481,2.8425,2.7736,2.7696,2.6139,2.4815,2.3991,2.3701,2.3536,2.351,2.351,2.375,2.4249,2.4249,2.4262,2.4235,2.155,2.0989,0.0,0.0,0.0,0.0,0.0,0.0,0.0,0.0,0.0,0.0,0.0,0.0,0.0,0.0,0.0,3.7238,4.1465,4.5066,4.6853,4.7698,4.8284,4.8737,4.9457,5.0004,5.018,5.0488,5.0683,5.0683,5.0972,5.1206,5.1284,5.1284,0.0,5.1401,5.1401,5.1401,5.1401,5.1401,5.1401,5.1401,0.0,0.0,5.0894,5.0488,5.0278,5.0199,5.0098,4.9526,4.8654,4.9184,4.7352,4.3808,3.9108,3.5684,3.3414,3.3414,3.3414,3.3414,3.3414,3.3414,3.34,3.3347,3.3173,3.2984,3.2864,3.2478,0.0,3.2356,3.2086,3.1741,3.1957,3.1874,3.1687,3.1687,3.1647,3.154,3.1253,3.1159,3.1026,3.0768,3.0715,3.0688,3.0635,3.014,2.9731,2.9731,2.9771,2.9811,2.9811,2.9887,2.982,2.9593,2.9588,2.9446,2.913,2.8492,2.7991,2.7709,2.6513,2.5529,2.4868,2.4997,2.4983,2.4761,2.4761,2.4676,2.4519,2.4519,2.4658,2.4909,2.3834,2.35,0.0,0.0,0.0,0.0,0.0,0.0,0.0,0.0,0.0,0.0,0.0,3.0257,3.1894,0.0,3.8803,4.1261,4.4087,4.6526,4.803,4.8988,4.9535,4.9535,5.0121,5.0586,5.0781,5.0972,5.1089,5.1089,5.1284,5.1401,5.1401,5.1401,5.1401,5.1401,5.1401,5.1401,5.1401,5.1401,5.1401,5.1401,5.1206,5.1089,5.1089,5.0898,5.0683,5.0488,5.0488,5.0254,4.9844,4.9586,4.7728,4.4748,4.2171,3.9569,3.7134,3.5833,3.5352,3.5153,3.385,3.3414,3.3414,3.3414,3.332,3.3173,3.3051,3.2797,3.257,3.2594,3.238,3.2193,3.2316,3.2235,3.2152,3.2152,3.2152,3.2048,3.173,3.164,3.1506,3.1066,3.1009,3.0969,3.0822,3.0555,3.0354,3.0354,3.0354,3.0301,3.0176,3.0163,3.002,2.9726,2.97,2.9646,2.9464,2.8938,2.8337,2.7736,2.7034,2.6433,2.5972,2.5945,2.5945,2.5945,2.5945,2.5945,2.5945,2.5945,2.6045,2.6179,2.5898,2.559,0.0,0.0,0.0,0.0,0.0,0.0,0.0,0.0,2.9349,3.016,3.2363,3.4804,3.6961,3.9567,4.2226,4.4822,4.6033,4.7207,4.8792,4.9691,5.0238,5.0317,5.0664,5.103,5.1382,5.1401,5.1401,5.1401,5.1401,5.1401,5.1401,5.1401,5.1401,5.1401,5.1401,5.1401,5.1401,5.1401,5.1401,5.1401,5.1401,5.1401,5.1401,5.1401,5.1226,5.0894,5.084,5.0605,5.0297,4.9801,4.8204,4.6017,4.6017,4.4768,4.2542,3.9268,3.7748,3.6987,3.4894,3.3825,3.3414,3.3414,3.3414,3.3374,3.3133,3.3051,3.2971,3.2808,3.2688,3.2607,3.2661,3.2634,3.2594,3.2594,3.2594,3.2527,3.2262,3.2209,3.2024,3.148,3.1373,3.1279,3.1009,3.0969,3.0952,3.0808,3.0795,3.0715,3.0497,3.0493,3.0377,3.0091,3.0064,3.0047,2.9904,2.941,2.8743,2.7923,2.7676,2.7409,2.7094,2.68,2.6747,2.6967,2.6914,2.7028,2.7309,2.7309,2.7309,2.7309,2.7429,2.7141,2.8859,2.7371,2.6548,2.6736,2.6736,2.7741,0.0,0.0,3.4252,3.5773,3.8555,4.0841,4.1132,4.3003,4.4862,4.5955,4.7187,4.834,4.9293,4.9883,5.0336,5.0683,5.1089,5.1362,5.1401,5.1401,5.1401,5.1401,5.1401,5.1401,5.1401,5.1401,5.1401,5.1401,5.1401,5.1401,5.1401,5.1401,5.1401,5.1401,5.1401,5.1401,5.1401,5.1401,5.1382,5.1323,5.0957,5.0781,5.0703,5.0273,4.9917,4.9622,4.9622,4.9432,4.851,4.2833,3.9278,3.7257,3.6967,3.5341,3.3414,3.3414,3.3414,3.3375,3.3374,3.3187,3.3051,3.3253,3.2971,3.2648,3.2891,3.2795,3.2594,3.2594,3.2594,3.2581,3.2554,3.2541,3.2447,3.2064,3.1998,3.1917,3.1647,3.1594,3.142,3.0875,3.0795,3.0782,3.0755,3.0765,3.0728,3.0702,3.0688,3.0488,2.9967,2.9619,2.9165,2.8551,2.847,2.8345,2.8045,2.773,2.7562,2.7602,2.7369,2.7248,2.7309,2.7309,2.7309,2.7322,2.7844,2.7777,3.1056,3.0202,3.0014,0.0,3.1356,3.2963,3.6438,3.7652,3.8517,4.0192,4.1823,4.3144,4.3927,4.5,4.6133,0.0,4.8086,4.8906,4.9785,5.0082,5.0258,5.041,5.082,5.1148,5.1382,5.1401,5.1401,5.1401,5.1401,5.1401,5.1401,5.1401,5.1401,5.1401,5.1401,5.1401,5.1401,5.1401,5.1401,5.1401,5.1401,5.1401,5.1401,5.1401,5.1401,5.1401,5.1226,5.1011,5.0801,5.0625,5.0391,5.0199,5.0199,5.0199,4.9675,4.5394,4.2147,3.9675,3.7921,3.56,3.3414,3.3414,3.3414,3.3414,3.3414,3.3334,3.3253,3.3374,3.324,3.3104,3.32,3.3146,3.3078,3.3078,3.3078,3.3024,3.2864,3.2824,3.2755,3.2436,3.2382,3.2289,3.1995,3.1917,3.1784,3.1393,3.1326,3.1236,3.1062,3.1026,3.0982,3.0808,3.0795,3.0688,3.0448,3.019,2.9842,2.937,2.9205,2.8978,2.8671,2.8529,2.8462,2.8462,2.8364,2.8297,2.8297,2.8297,2.8297,2.831,2.8551,2.8537,3.2447,3.2635,0.0,3.4434,3.6032,3.8045,4.0589,4.1269,4.1797,4.3301,4.3945,4.4531,4.5529,4.6233,4.6992,4.8047,4.8691,4.9375,5.0234,5.018,5.0039,5.018,5.0234,5.0488,5.1011,5.1265,5.1401,5.1401,5.1401,5.1401,5.1401,5.1401,5.1401,5.1401,5.1401,5.1401,5.1401,5.1401,5.1401,5.1401,5.1401,5.1401,5.1401,5.1401,5.1401,5.1401,5.1401,5.1226,5.0976,5.0976,5.0801,5.0527,5.0527,5.0527,5.0254,4.7942,4.5315,4.2543,4.0368,3.7356,3.4471,3.4471,3.4,3.3414,3.3414,3.3414,3.3414,3.3414,3.3414,3.3414,3.3414,3.3414,3.3414,3.3414,3.3414,3.336,3.3146,3.3118,3.3038,3.2768,3.2714,3.2621,3.2302,3.2249,3.2182,3.1992,3.1965,3.1794,3.1396,3.1343,3.1263,3.1086,3.0955,3.0915,3.0915,3.0671,3.0404,3.0145,2.9909,2.9655,2.9397,2.9223,2.9143,2.9143,2.9063,2.9001,2.9001,2.9001,2.9001,2.9001,2.9081,2.9183,3.3136,0.0,3.7449,3.8696,4.0314,4.2089,4.3867,4.3926,4.3867,4.4764,4.5312,4.5646,4.5686,4.6721,4.7718,4.8125,4.8922,4.9781,5.0664,5.0054,4.9683,5.016,4.9457,4.9281,0.0,5.0933,5.1401,5.1401,5.1401,5.1401,5.1401,5.1401,5.1401,5.1401,5.1401,5.1401,5.1401,5.1401,5.1401,5.1401,5.1401,5.1401,5.1401,5.1401,5.1401,5.1401,5.1401,5.1401,5.1382,5.1382,5.1382,5.1362,5.1362,5.1362,5.1323,5.0822,4.8508,4.5568,4.5478,4.1816,3.7183,3.7183,3.5476,3.3414,3.3414,3.3414,3.3414,3.3414,3.3414,3.3414,3.3414,3.3414,3.3414,3.3414,3.3414,3.3414,3.34,3.34,3.332,3.3051,3.2984,3.2904,3.2634,3.2581,3.2581,3.2567,3.2567,3.2353,3.1754,3.1674,3.1674,3.166,3.1383,3.1186,3.1186,3.0942,3.0768,3.0768,3.0511,3.0373,3.036,2.9789,2.9495,2.9495,2.917,2.9001,2.9001,2.9001,2.9001,2.9001,2.9339,2.9619,3.5999,0.0,4.0253,4.1797,4.3301,4.4668,4.5799,4.5742,4.5508,4.5801,4.5547,4.5254,4.5254,4.584,4.6663,4.7637,4.8769,4.9801,5.0683,5.0312,4.9805,4.9375,4.9316,0.0,0.0,0.0,0.0,5.1362,5.1401,5.1401,5.1401,5.1401,5.1538,5.1855,5.1558,5.1538,5.1855,5.1558,5.1401,5.1401,5.1401,5.1401,5.1401,5.1401,5.1401,5.1401,5.1401,5.1401,5.1401,5.1401,5.1401,5.1401,5.1401,5.1401,5.1382,5.1245,5.0311,4.8756,4.6485,4.3331,3.9976,3.7955,3.6706,3.5981,3.5981,3.5981,3.5981,3.5981,3.5981,3.5585,3.385,3.3414,3.3414,3.3414,3.3414,3.3414,3.3414,3.3414,3.3387,3.328,3.3267,3.3173,3.2904,3.2864,3.2822,3.2621,3.2594,3.2447,3.2035,3.1957,3.1901,3.1714,3.1607,3.1517,3.1517,3.1249,3.1076,3.1076,3.0808,3.0671,3.0671,3.0484,3.0354,3.0354,3.0247,3.0207,3.0207,3.0207,3.0207,3.0207,3.0301,3.0408,3.8574,4.0547,4.25,4.4199,4.5508,4.6526,4.7031,4.6836,4.6445,4.6133,4.5254,4.4432,4.4139,4.4082,4.4709,4.6623,4.7734,4.8922,5.0566,5.0312,4.9746,4.9176,4.9059,4.8864,0.0,0.0,0.0,5.1128,5.1187,5.1323,5.1616,5.1636,5.1855,5.2285,5.2007,5.1953,5.2114,5.1953,5.187,5.187,5.187,5.1792,5.1636,5.1636,5.1558,5.1401,5.1401,5.1401,5.1401,5.1401,5.1401,5.1401,5.1401,5.1401,5.1401,5.1401,5.1245,5.0677,4.8345,4.5634,4.2858,4.0935,3.9558,3.8685,3.8661,3.8661,3.8685,3.8685,3.8685,3.8075,3.5476,3.4795,3.4546,3.3625,3.3414,3.3414,3.3414,3.3414,3.3414,3.3414,3.3414,3.336,3.316,3.3133,3.3066,3.2904,3.2877,3.273,3.2342,3.2171,3.2024,3.1861,3.1754,3.1687,3.1687,3.149,3.1383,3.1383,3.1102,3.0942,3.0942,3.0849,3.0795,3.0795,3.0795,3.0795,3.0795,3.0795,3.0795,3.0795,3.0795,3.0849,4.08,4.2637,4.4336,4.6035,4.709,4.7698,4.7679,4.7246,4.6618,4.5783,4.4473,4.3242,0.0,0.0,4.2129,4.508,4.6016,4.7441,5.041,5.0074,4.9527,0.0,0.0,0.0,0.0,0.0,0.0,5.0703,0.0,5.1172,5.2056,5.2114,5.2285,5.2734,5.2715,5.2519,5.2173,5.2519,5.2695,5.2676,5.2695,5.248,5.2114,5.2134,5.1875,5.144,5.144,5.1421,5.1401,5.1401,5.1401,5.1401,5.1401,5.1401,5.1401,5.1401,5.1401,5.1343,5.0952,4.8708,4.5951,4.5771,4.3794,4.1413,4.1357,4.1365,4.138,4.138,4.138,4.0778,3.8179,3.7395,3.6682,3.4186,3.3514,3.3414,3.3414,3.3414,3.3414,3.3414,3.3514,3.3625,3.3775,3.3675,3.36,3.36,3.3489,3.32,3.2688,3.2342,3.2144,3.2131,3.1901,3.1764,3.1764,3.1764,3.1764,3.1764,3.1436,3.1253,3.1253,3.0996,3.0858,3.0858,3.0858,3.0858,3.0858,3.0858,3.0849,3.0862,3.0849,3.1009,4.3359,4.5527,4.7324,4.8415,4.8844,4.8945,4.8636,4.7483,4.6035,4.4512,4.2422,4.041,0.0,0.0,0.0,4.3419,4.5976,0.0,5.0913,5.0547,0.0,4.9547,0.0,4.8636,4.8398,4.8792,0.0,0.0,5.0625,5.1172,5.2056,5.2114,5.2447,5.3189,5.2871,5.2812,5.3052,5.2812,5.2558,5.2246,5.2558,5.248,5.2114,5.2402,5.2324,5.1914,5.1914,5.1714,5.1401,5.1401,5.1401,5.1401,5.1401,5.1401,5.1401,5.1401,5.1401,5.1382,5.1284,5.0465,4.9129,4.6899,4.5418,4.4546,4.4546,4.4292,4.4021,4.4021,4.4021,4.3452,4.0867,3.8758,3.7134,3.646,3.482,3.3414,3.3414,3.3414,3.3414,3.3414,3.4955,3.6913,3.888,3.7601,3.6312,3.6312,3.4646,3.328,3.2944,3.2824,3.2703,3.2476,3.242,3.2367,3.2367,3.2367,3.2367,3.2367,3.2062,3.1877,3.1877,3.1597,3.1473,3.1473,3.1473,3.1473,3.1473,3.1473,3.158,3.1757,3.1567,3.1741,4.576,4.7556,4.8945,4.9625,4.9512,4.8926,4.7757,4.6291,4.4394,4.1699,3.9552,0.0,3.5901,0.0,0.0,0.0,0.0,0.0,5.0508,5.0644,5.0371,0.0,4.9863,0.0,4.9121,4.9476,4.9945,0.0,5.0664,5.1269,5.2305,5.2564,5.2974,5.3633,5.3418,5.3398,5.3652,5.3223,5.2969,5.2949,5.3158,5.3066,5.2681,5.2915,5.2754,5.2363,0.0,5.2226,5.1948,5.1772,5.1719,5.1699,5.1479,5.1401,5.1401,5.1401,5.1401,5.1401,5.1401,5.1245,5.0755,4.8877,4.8006,4.7669,4.7669,4.7501,4.7271,4.7271,4.7117,4.6402,4.3833,4.1102,3.8734,3.7576,3.5302,3.3414,3.3414,3.3414,3.3414,3.3414,3.5525,3.7757,3.9245,3.9205,3.8612,3.7478,3.6055,3.464,3.3336,3.3078,3.2944,3.2795,3.2674,3.2594,3.2594,3.2594,3.2594,3.2594,3.2409,3.2316,3.2316,3.2169,3.2099,3.2099,3.2099,3.2099,3.2099,3.2099,3.2169,3.2316,3.2179,3.2286,4.7969,4.9121,4.9801,5.0312,4.9672,4.8346,4.6194,4.4433,4.2187,3.8361,0.0,3.5003,3.3363,3.4355,3.6523,3.9942,0.0,4.6308,4.9809,5.0527,5.0742,5.0801,5.0762,5.0586,5.0238,5.0508,5.0742,5.0801,5.0918,5.1484,5.2637,5.315,5.3599,5.3998,5.3998,5.3998,5.3998,5.3652,5.3638,5.392,5.3978,5.3789,5.341,5.3443,5.3228,5.2793,0.0,0.0,5.2676,5.2271,5.2114,5.2031,5.1577,5.1401,5.1401,5.1401,5.1401,5.1401,5.1401,5.1401,5.1343,5.0972,5.0605,5.0297,5.0297,5.0238,5.0199,5.0199,4.9902,4.9074,4.687,4.4051,4.1149,3.8503,3.5861,3.3825,3.3464,3.3675,3.4012,3.4386,3.6534,3.8441,3.8782,4.044,4.0922,3.8661,3.8026,3.6879,3.4261,3.341,3.3064,3.3064,3.2837,3.2714,3.2714,3.2714,3.2714,3.2714,3.2674,3.2648,3.2648,3.2621,3.2594,3.2594,3.2594,3.2594,3.2594,3.2594,3.2607,3.2648,3.2607,3.2634,4.9766,5.0469,5.0781,5.1587,5.0317,4.8346,4.6194,4.3281,0.0,0.0,3.4254,3.2535,3.1523,3.3555,3.6523,3.9942,4.3359,4.678,5.0215,0.0,5.041,0.0,0.0,0.0,0.0,0.0,0.0,0.0,0.0,5.2109,5.2676,5.315,5.3599,5.3998,5.3998,5.3998,5.3998,5.392,5.3769,5.3502,5.3848,5.3789,5.3429,5.375,5.3672,5.3267,0.0,0.0,5.2676,5.2271,5.2114,5.2031,5.1577,5.1401,5.1401,5.1401,5.1401,5.1401,5.1401,5.1401,5.1401,5.1323,5.1011,5.0703,5.0703,5.0449,5.0199,5.0199,5.0141,4.9964,4.9518,4.719,4.427,4.1642,3.878,3.603,3.3875,3.5104,3.7257,3.9423,4.1907,4.4353,4.6518,4.5473,4.4187,4.3719,4.1884,3.9569,3.6977,3.4703,3.3334,3.3334,3.3293,3.3253,3.3253,3.3253,3.3253,3.3253,3.3064,3.2931,3.2931,3.2728,3.2594,3.2594,3.2594,3.2594,3.2594,3.2594,3.2714,3.2931,3.2701,3.2848,5.064,5.1421,5.1836,5.2056,5.0317,4.7679,4.4394,0.0,0.0,0.0,3.1382,3.0229,2.9389,3.187,3.4883,3.7441,4.0566,4.4023,4.791,4.8476,0.0,0.0,0.0,0.0,0.0,0.0,0.0,0.0,0.0,5.25,5.2695,5.334,5.3808,5.3998,5.3998,5.3998,5.3998,5.3998,5.39,5.3711,5.39,5.39,5.3711,5.39,5.3881,5.3711,5.3711,0.0,5.3315,5.2676,5.2402,5.2344,5.1675,5.1401,5.1401,5.1401,5.1401,5.1401,5.1401,5.1401,5.1401,5.1401,5.1265,5.1109,5.1109,5.0972,5.082,5.082,5.0664,5.0508,5.0508,4.8265,4.5297,4.2457,3.8458,3.5302,3.5426,3.6411,3.8075,4.0681,4.3262,4.5403,4.6658,4.6962,4.657,4.5196,4.2816,4.0247,3.765,3.5004,3.3414,3.3414,3.3414,3.3414,3.3414,3.3414,3.3414,3.3414,3.328,3.32,3.32,3.3066,3.3024,3.3024,3.3024,3.3024,3.3024,3.3024,3.3066,3.32,3.3252,3.3412,5.103,5.1968,5.25,5.2192,5.0058,4.6973,4.2754,3.8926,0.0,0.0,2.9023,2.8476,2.7936,3.0327,3.3086,0.0,3.7832,4.1152,4.5547,4.668,4.7966,0.0,0.0,0.0,0.0,0.0,0.0,0.0,0.0,0.0,5.2963,5.3627,5.3998,5.3998,5.3998,5.3998,5.3998,5.3998,5.3998,5.3998,5.3998,5.3998,5.3998,5.3998,5.3998,5.3998,5.3998,0.0,0.0,5.3061,5.2715,5.2617,5.1753,5.1401,5.1401,5.1401,5.1401,5.1401,5.1401,5.1401,5.1401,5.1401,5.1401,5.1401,5.1401,5.1401,5.1401,5.1401,5.1167,5.0937,5.0937,4.9127,4.635,4.2747,3.8466,3.56,3.7081,3.8209,3.9569,4.162,4.4069,4.5849,4.5849,4.7539,4.8204,4.6149,4.3666,4.1067,3.8466,3.5857,3.4012,3.3464,3.3414,3.3414,3.3414,3.3414,3.3414,3.3414,3.3414,3.344,3.3507,3.3507,3.3547,3.3576,3.3576,3.3576,3.3576,3.3576,3.3576,3.3614,3.3868,3.3975,5.0952,5.1777,5.2153,5.2114,4.9867,4.6643,4.2695,0.0,3.375,2.9771,2.8353,2.7897,2.8197,2.9799,3.2148,3.5413,3.75,4.0371,4.5099,4.678,4.834,5.0547,0.0,0.0,0.0,0.0,0.0,0.0,0.0,0.0,5.3842,5.3959,5.3998,5.3998,5.3998,5.3998,5.3998,5.3998,5.3998,5.3998,5.3998,5.3998,5.3998,5.3998,5.3998,5.3998,0.0,0.0,0.0,5.3061,5.2715,5.2617,5.1753,5.1401,5.1401,5.1401,5.1401,5.1401,5.1401,5.1401,5.1401,5.1401,5.1401,5.1401,5.1401,5.1401,5.1401,5.1401,5.1382,5.1343,5.1343,5.0862,4.9006,4.3461,4.1572,4.0405,3.8142,4.1169,4.4353,4.4589,4.6775,4.8547,4.8547,4.8732,4.8801,4.8594,4.6312,4.3737,4.1163,3.8563,3.603,3.365,3.3414,3.3414,3.3414,3.3414,3.3414,3.3414,3.3414,3.3547,3.3828,3.3841,3.3961,3.4203,3.4216,3.4216,3.4216,3.4216,3.4216,3.4216,3.4243,3.4256,5.0425,5.1738,5.2344,5.1816,4.9391,4.6113,4.1953,3.7559,3.3301,2.9654,2.8275,2.7741,2.7917,2.8906,3.041,3.2578,3.3496,3.5525,4.0,4.1523,4.3653,4.7617,4.8926,0.0,0.0,0.0,0.0,0.0,0.0,0.0,5.3978,5.3998,5.3998,5.3998,5.3998,5.3998,5.3998,5.3998,5.3998,5.3998,5.3998,5.3998,5.3998,5.3998,5.3998,5.3998,0.0,0.0,0.0,5.3359,5.313,5.3033,5.2168,5.1816,5.1797,5.1499,5.1401,5.1401,5.1401,5.1401,5.1401,5.1401,5.1401,5.1401,5.1401,5.1401,5.1401,5.1401,5.1401,5.1401,5.1401,4.9917,4.7869,4.5575,4.3552,4.2301,4.2767,4.4416,4.6153,4.746,4.8543,4.918,4.8952,4.8913,4.8913,4.8913,4.6682,4.4069,4.1524,3.8929,3.6288,3.3675,3.3414,3.3414,3.3414,3.3414,3.3414,3.3414,3.3587,3.3761,3.3881,3.4055,3.4202,3.4296,3.4296,3.4296,3.4296,3.4296,3.4296,3.4296,3.4509,3.4615,4.9336,5.1074,5.1973,5.125,4.8668,4.5311,4.1406,3.6973,3.2808,2.9556,2.8275,2.7715,2.7715,2.8359,2.9283,3.0503,3.1128,3.2926,3.7107,3.8553,4.084,4.5391,0.0,0.0,0.0,0.0,0.0,0.0,0.0,0.0,0.0,5.3998,5.3998,5.3998,5.3998,5.3998,5.3998,5.3861,5.3803,5.3803,5.3803,5.3803,5.3828,5.3939,5.3998,5.3998,0.0,0.0,0.0,5.358,5.3306,5.3111,5.2388,5.2036,5.1855,5.1519,5.1401,5.1401,5.1401,5.1401,5.1401,5.1401,5.1401,5.1401,5.1401,5.1401,5.1401,5.1401,5.1401,5.1401,5.1401,4.9818,4.8042,4.7239,4.5958,4.5168,4.6203,4.6955,4.7907,4.9412,4.9703,4.9629,4.932,4.9261,4.9261,4.9261,4.629,4.3411,4.1594,3.8307,3.5451,3.36,3.3414,3.3414,3.3414,3.3414,3.3454,3.3547,3.3761,3.3961,3.4135,3.4336,3.4496,3.455,3.4576,3.4576,3.4576,3.4576,3.4576,3.4576,3.4816,3.4923,4.7539,4.9492,5.0723,5.0317,4.7598,4.4237,4.1191,3.6506,3.207,2.9439,2.8275,2.7715,2.7715,2.8359,2.9185,3.0059,3.1641,3.4137,3.8026,3.9687,4.1621,0.0,0.0,0.0,0.0,0.0,0.0,0.0,0.0,0.0,0.0,5.3998,5.3998,5.3998,5.3998,5.3998,5.3998,5.3619,5.341,5.341,5.341,5.341,5.3404,5.3828,5.3998,0.0,0.0,0.0,0.0,5.358,5.313,5.2676,5.2246,5.1816,5.1421,5.1401,5.1401,5.1401,5.1401,5.1401,5.1401,5.1401,5.1401,5.1401,5.1401,5.1401,5.1401,5.1401,5.1401,5.1401,5.1401,5.1377,5.0681,4.8027,4.9095,4.9968,4.7278,4.8523,5.0176,5.0199,5.0199,5.0199,5.0199,5.0199,5.0199,5.0199,4.5417,4.1822,4.1798,3.6912,3.3439,3.3414,3.3414,3.3414,3.3414,3.3414,3.3547,3.3855,3.3907,3.4148,3.4671,3.475,3.4923,3.5177,3.5191,3.5191,3.5191,3.5191,3.5191,3.5191,3.5191,3.5191,4.3027,4.4883,4.6113,4.4785,4.2969,4.0801,3.8048,3.5039,3.2148,2.9858,2.8705,2.8099,2.8099,2.8334,2.916,3.1226,3.2027,3.3434,3.6406,0.0,0.0,4.3398,4.6933,0.0,0.0,0.0,0.0,0.0,0.0,0.0,0.0,5.3281,5.3262,5.358,5.3867,5.3705,5.31,5.3306,5.341,5.341,5.341,5.3541,5.3828,5.3939,0.0,0.0,0.0,0.0,0.0,5.313,5.2832,5.2676,5.2246,5.1992,5.1836,5.1519,5.1401,5.1401,5.1401,5.1401,5.1401,5.1401,5.1401,5.1401,5.1401,5.1401,5.1401,5.1401,5.1401,5.1401,5.1401,5.1401,5.1183,5.0339,5.0677,5.0969,5.0099,5.0489,5.0957,5.0664,5.0605,5.0508,5.0258,5.0199,5.0199,5.0199,4.7084,4.4087,4.2285,3.8929,3.6003,3.4207,3.3855,3.3654,3.3427,3.3414,3.3454,3.3547,3.3761,3.4055,3.4417,3.4682,3.4923,3.5191,3.5191,3.5191,3.5191,3.5191,3.5191,3.5191,3.5191,3.5191,3.9862,4.1797,4.293,4.1836,4.0253,3.8359,3.6252,3.3867,3.1562,2.9721,2.8783,2.8314,2.8314,2.8418,2.9062,3.0698,3.1499,3.2832,0.0,0.0,0.0,4.3457,0.0,0.0,0.0,0.0,0.0,0.0,0.0,0.0,0.0,5.2851,5.2754,5.2896,5.3301,5.3236,5.2715,5.2837,5.2896,5.2896,5.2896,5.3052,5.3301,5.3432,0.0,0.0,0.0,0.0,0.0,5.2812,5.2617,5.2441,5.2212,5.1973,5.1797,5.1499,5.1401,5.1401,5.1401,5.1401,5.1401,5.1401,5.1401,5.1401,5.1401,5.1401,5.1401,5.1401,5.1401,5.1401,5.1401,5.1401,5.1401,5.1401,5.1401,5.1401,5.1401,5.1401,5.1323,5.1094,5.1011,5.0957,5.0703,5.0644,5.0644,5.0644,4.7362,4.4313,4.2667,3.9114,3.6111,3.4463,3.4162,3.3975,3.3774,3.3654,3.3641,3.3722,3.3935,3.4175,3.4469,3.4696,3.4923,3.5191,3.5191,3.5191,3.5191,3.5191,3.5191,3.5191,3.5191,3.5191,0.0,3.959,4.0664,4.0566,3.8729,3.6601,3.5351,3.2887,0.0,2.9166,2.8574,2.8334,2.8392,2.8672,2.8971,2.9185,3.063,0.0,0.0,3.7537,0.0,0.0,0.0,0.0,0.0,0.0,0.0,0.0,0.0,0.0,0.0,5.2637,5.2441,5.2075,5.2422,5.2617,5.2617,5.2266,5.2114,5.2114,5.2114,5.209,5.2173,5.2539,0.0,0.0,0.0,0.0,0.0,5.2612,5.2383,5.2056,5.2056,5.1777,5.1401,5.1401,5.1401,5.1401,5.1401,5.1401,5.1401,5.1401,5.1401,5.1401,5.1401,5.1401,5.1401,5.1401,5.1401,5.1401,5.1401,5.1401,5.1401,5.1401,5.1401,5.1401,5.1401,5.1401,5.1401,5.1401,5.1401,5.1401,5.1401,5.1401,5.1401,5.1401,4.659,4.2998,4.3198,3.8044,3.4427,3.4633,3.4465,3.4337,3.435,3.4095,3.4028,3.427,3.4296,3.4456,3.4776,3.4789,3.4923,3.5191,3.5191,3.5191,3.5191,3.5191,3.5191,3.5191,3.5191,3.5191,3.2031,0.0,3.5541,3.4564,3.386,3.3156,0.0,3.1133,3.0078,2.9107,0.0,2.8509,2.9168,2.9082,2.9654,0.0,0.0,0.0,0.0,0.0,0.0,0.0,0.0,0.0,0.0,0.0,0.0,0.0,0.0,0.0,0.0,5.1914,5.1655,5.1558,5.1655,5.1714,5.1714,5.1973,5.2114,5.2114,5.2114,5.2246,5.2558,5.2656,0.0,0.0,0.0,0.0,5.2207,5.185,5.1655,5.1558,5.1558,5.1499,5.1401,5.1401,5.1401,5.1401,5.1401,5.1401,5.1401,5.1401,5.1401,5.1401,5.1401,5.1401,5.1401,5.1401,5.1401,5.1401,5.1401,5.1401,5.1401,5.1401,5.1401,5.1401,5.1401,5.1401,5.1401,5.1401,5.1401,5.1401,5.1401,5.1401,5.1401,5.1401,4.6704,4.3984,4.6079,3.9692,3.58,3.79,3.6048,3.4776,3.4977,3.4509,3.4216,3.4296,3.4296,3.4456,3.4776,3.4789,3.4923,3.5191,3.5191,3.5191,3.5191,3.5191,3.5191,3.5191,3.5191,3.5191,2.9877,3.1675,3.3336,3.2652,3.2335,3.2022,3.1328,3.0371,2.9434,2.8756,0.0,0.0,0.0,0.0,0.0,0.0,0.0,0.0,0.0,0.0,0.0,0.0,0.0,0.0,0.0,0.0,0.0,0.0,0.0,0.0,0.0,5.1538,5.1401,5.1401,5.1401,5.1401,5.1401,5.1636,5.1777,5.1777,5.1777,5.1894,5.2104,5.2104,0.0,0.0,0.0,0.0,5.1758,5.1499,5.1401,5.1401,5.1401,5.1401,5.1401,5.1401,5.1401,5.1401,5.1401,5.1401,5.1401,5.1401,5.1401,5.1401,5.1401,5.1401,5.1401,5.1401,5.1401,5.1401,5.1401,5.1401,5.1401,5.1401,5.1401,5.1401,5.1401,5.1401,5.1401,5.1401,5.1401,5.1401,5.1401,5.1401,5.1401,5.1401,4.7854,4.5728,4.7191,4.1348,3.7638,3.914,3.6703,3.5057,3.5177,3.491,3.467,3.4536,3.4523,3.4603,3.4776,3.4789,3.4923,3.5191,3.5191,3.5191,3.5191,3.5191,3.5191,3.5191,3.5191,3.5191,2.9623,3.1265,3.2734,3.2461,3.23,3.2027,3.1445,3.0161,0.0,0.0,0.0,0.0,0.0,0.0,0.0,0.0,0.0,0.0,0.0,0.0,0.0,0.0,0.0,0.0,0.0,0.0,0.0,0.0,0.0,0.0,0.0,5.1401,5.1401,5.1401,5.1401,5.1401,5.1401,5.1401,5.1401,5.1401,5.1401,5.1401,5.1401,5.1401,5.1401,0.0,0.0,0.0,5.1401,5.1401,5.1401,5.1401,5.1401,5.1401,5.1401,5.1401,5.1401,5.1401,5.1401,5.1401,5.1401,5.1401,5.1401,5.1401,5.1401,5.1401,5.1401,5.1401,5.1401,5.1401,5.1401,5.1401,5.1401,5.1401,5.1401,5.1401,5.1401,5.1401,5.1401,5.1401,5.1401,5.1401,5.1401,5.1401,5.1401,5.1401,4.9125,4.7557,4.7953,4.3268,3.99,3.99,3.747,3.5651,3.5243,3.5191,3.5097,3.4869,3.4856,3.4856,3.4856,3.4856,3.4976,3.5191,3.5191,3.5191,3.5191,3.5191,3.5191,3.5191,3.5191,3.5191,3.0288,3.1734,3.2441,3.0957,3.1401,3.1885,3.0664,3.0195,2.9897,0.0,0.0,0.0,0.0,0.0,0.0,0.0,0.0,0.0,0.0,0.0,0.0,0.0,0.0,0.0,0.0,0.0,0.0,0.0,0.0,0.0,0.0,0.0,5.1401,5.1401,5.1401,5.1401,5.1401,5.1401,5.1401,5.1401,5.1401,5.1401,5.1401,5.1401,5.1401,0.0,0.0,5.1401,5.1401,5.1401,5.1401,5.1401,5.1401,5.1401,5.1401,5.1401,5.1401,5.1401,5.1401,5.1401,5.1401,5.1401,5.1401,5.1401,5.1401,5.1401,5.1401,5.1401,5.1401,5.1401,5.1401,5.1401,5.1401,5.1401,5.1401,5.1401,5.1401,5.1401,5.1401,5.1401,5.1401,5.1401,5.1401,5.1401,5.1401,5.1401,4.9125,4.8219,5.0486,4.6053,4.2684,4.2684,4.0286,3.7716,3.5401,3.5191,3.5177,3.5137,3.5137,3.5137,3.5137,3.5137,3.5151,3.5191,3.5191,3.5191,3.5191,3.5191,3.5191,3.5191,3.5191,3.5191,2.9291,3.062,3.168,3.1362,3.2418,3.3336,3.2496,3.1773,0.0,0.0,0.0,0.0,0.0,0.0,0.0,0.0,0.0,0.0,0.0,0.0,0.0,0.0,0.0,0.0,0.0,0.0,0.0,0.0,0.0,0.0,0.0,0.0,5.1401,5.1401,5.1401,5.1401,5.1401,5.1401,5.1401,5.1401,5.1401,5.1401,5.1401,5.1401,5.1401,5.1401,0.0,5.1401,5.1401,5.1401,5.1401,5.1401,5.1401,5.1401,5.1401,5.1401,5.1401,5.1401,5.1401,5.1401,5.1401,5.1401,5.1401,5.1401,5.1401,5.1401,5.1401,5.1401,5.1401,5.1401,5.1401,5.1401,5.1401,5.1401,5.1401,5.1401,5.1401,5.1401,5.1401,5.1401,5.1401,5.1401,5.1401,5.1401,5.1401,5.1401,5.0339,5.0002,5.1231,4.7953,4.495,4.347,4.0887,3.8184,3.5428,3.5191,3.5191,3.5191,3.5191,3.5191,3.5191,3.5191,3.5191,3.5191,3.5191,3.5191,3.5191,3.5191,3.5191,3.5191,3.5191,3.5191,2.8965,3.0019,3.1269,3.2242,0.0,3.4215,3.4622,0.0,0.0,0.0,0.0,0.0,0.0,0.0,0.0,0.0,0.0,0.0,0.0,0.0,0.0,0.0,0.0,0.0,0.0,0.0,0.0,0.0,0.0,0.0,0.0,0.0,5.1401,5.1401,5.1304,5.1265,5.1265,5.1167,5.1206,5.1401,5.1401,5.1401,5.1401,5.1401,5.1401,5.1401,5.1401,5.1401,5.1401,5.1401,5.1401,5.1401,5.1401,5.1401,5.1401,5.1401,5.1401,5.1401,5.1401,5.1401,5.1401,5.1401,5.1401,5.1401,5.1401,5.1401,5.1401,5.1401,5.1401,5.1401,5.1401,5.1401,5.1401,5.1401,5.1401,5.1401,5.1401,5.1401,5.1401,5.1401,5.1401,5.1401,5.1401,5.1401,5.1401,5.1401,5.1401,5.1401,5.1401,4.961,4.7291,4.4556,4.186,3.8856,3.548,3.5191,3.5191,3.5191,3.5191,3.5191,3.5191,3.5191,3.5191,3.5191,3.5191,3.5191,3.5191,3.5191,3.5191,3.5191,3.5191,3.5191,3.0957,3.1372,3.1762,3.3012,3.2832,0.0,3.5893,3.5189,0.0,3.6465,0.0,0.0,0.0,0.0,0.0,0.0,0.0,0.0,0.0,0.0,0.0,0.0,0.0,0.0,0.0,0.0,0.0,0.0,0.0,0.0,0.0,0.0,0.0,5.1401,5.103,5.0859,5.0859,5.0469,5.0664,5.1401,5.1401,5.1401,5.1401,5.1401,5.1401,5.1401,5.1401,5.1401,5.1401,5.1401,5.1401,5.1401,5.1401,5.1401,5.1401,5.1401,5.1401,5.1401,5.1401,5.1401,5.1401,5.1401,5.1401,5.1401,5.1401,5.1401,5.1401,5.1401,5.1401,5.1401,5.1401,5.1401,5.1401,5.1401,5.1401,5.1401,5.1401,5.1401,5.1401,5.1401,5.1401,5.1401,5.1401,5.1401,5.1401,5.1401,5.1401,5.1401,5.1401,5.1231,5.0076,4.7408,4.4631,4.0887,3.5651,3.5191,3.5191,3.5191,3.5191,3.5191,3.5191,3.5191,3.5191,3.5191,3.5191,3.5191,3.5191,3.5191,3.5191,3.5191,3.5191,3.5191,2.9375,3.0312,3.1489,3.3012,3.3809,0.0,0.0,3.74,3.8084,0.0,0.0,0.0,0.0,0.0,0.0,0.0,0.0,0.0,0.0,0.0,0.0,0.0,0.0,0.0,0.0,0.0,0.0,0.0,0.0,0.0,0.0,0.0,0.0,5.0664,5.0508,5.041,5.041,5.0278,5.0356,5.0664,5.0918,5.1148,5.1401,5.1401,5.1401,5.1401,5.1401,5.1401,5.1401,5.1401,5.1401,5.1401,5.1401,5.1401,5.1401,5.1401,5.1401,5.1401,5.1401,5.1401,5.1401,5.1401,5.1401,5.1401,5.1401,5.1401,5.1401,5.1401,5.1401,5.1401,5.1401,5.1401,5.1401,5.1401,5.1401,5.1401,5.1401,5.1401,5.1401,5.1401,5.1401,5.1401,5.1401,5.1401,5.1499,5.1797,5.1577,5.1499,5.1797,5.1577,5.0364,4.7681,4.3445,3.9977,3.7924,3.6189,3.5191,3.5191,3.5191,3.5191,3.5191,3.5191,3.5191,3.5191,3.5191,3.5191,3.5191,3.5191,3.5191,3.5191,3.5191,3.6124,2.8594,2.9551,3.1069,0.0,0.0,0.0,3.8066,3.9551,4.0937,0.0,0.0,0.0,0.0,0.0,0.0,0.0,0.0,0.0,0.0,0.0,0.0,0.0,0.0,0.0,0.0,0.0,0.0,0.0,0.0,0.0,0.0,0.0,0.0,0.0,5.0063,4.998,4.998,4.9848,4.9848,4.998,5.0254,5.066,5.1206,5.1206,5.1284,5.1401,5.1265,5.1284,5.1401,5.1265,5.1284,5.1401,5.1401,5.1401,5.1401,5.1401,5.1401,5.1401,5.1401,5.1401,5.1401,5.1401,5.1401,5.1401,5.1401,5.1401,5.1401,5.1401,5.1401,5.1401,5.1401,5.1401,5.1401,5.1401,5.1401,5.1401,5.1401,5.1401,5.1401,5.1401,5.1401,5.1401,5.1401,5.1401,5.1499,5.1836,5.1597,5.1519,5.1836,5.1597,5.0364,4.7681,4.3293,4.0209,3.9373,3.6778,3.5191,3.5191,3.5191,3.5191,3.5191,3.5191,3.5191,3.5191,3.5191,3.5191,3.5191,3.5191,3.5191,3.5191,3.5191,3.6674,2.9244,2.9551,0.0,0.0,0.0,0.0,4.0449,4.1562,4.2695,4.5723,0.0,0.0,0.0,0.0,0.0,0.0,0.0,0.0,0.0,0.0,0.0,0.0,0.0,0.0,0.0,0.0,0.0,0.0,0.0,0.0,0.0,0.0,0.0,0.0,4.9746,4.9488,4.9488,4.9105,4.9105,4.9488,4.9488,4.9937,5.0801,5.0801,5.1011,5.1382,5.0976,5.1011,5.1362,5.0976,5.103,5.1401,5.1401,5.1401,5.1401,5.1401,5.1401,5.1401,5.1401,5.1401,5.1401,5.1401,5.1401,5.1401,5.1401,5.1401,5.1401,5.1401,5.1401,5.1401,5.1401,5.1401,5.1401,5.1401,5.1401,5.1401,5.1401,5.1401,5.1401,5.1401,5.1401,5.1401,5.1401,5.1401,5.1401,5.1421,5.1401,5.1401,5.1401,5.1401,5.0388,4.773,4.4983,4.2251,3.958,3.6831,3.527,3.5243,3.527,3.5243,3.5191,3.5217,3.5217,3.5191,3.5243,3.527,3.5243,3.5243,3.5243,3.5243,3.5243,3.67,2.8425,2.978,0.0,3.3215,0.0,0.0,0.0,4.4219,0.0,0.0,0.0,0.0,0.0,0.0,0.0,0.0,0.0,0.0,0.0,0.0,0.0,0.0,0.0,0.0,0.0,0.0,0.0,0.0,0.0,0.0,0.0,0.0,0.0,0.0,4.9144,4.9086,4.9086,4.8972,4.8972,4.9086,4.9086,4.9535,5.0395,5.0395,5.043,5.0547,5.041,5.0605,5.0972,5.1148,5.1128,5.0991,5.1284,5.1401,5.1401,5.1401,5.1401,5.1401,5.1401,5.1401,5.1401,5.1401,5.1401,5.1401,5.1401,5.1401,5.1401,5.1401,5.1401,5.1401,5.1401,5.1401,5.1401,5.1401,5.1401,5.1401,5.1401,5.1401,5.1401,5.1401,5.1401,5.1401,5.1401,5.1401,5.1519,5.1836,5.1597,5.1401,5.1401,5.1401,5.111,5.0291,4.7805,4.5076,4.2353,4.1374,4.0106,3.821,3.9849,3.9192,3.5349,3.7066,3.7156,3.5243,3.8959,3.9977,3.808,3.808,3.808,3.808,3.808,3.9528,2.954,3.1182,0.0,3.5404,3.8571,0.0,0.0,0.0,0.0,0.0,0.0,0.0,0.0,0.0,0.0,0.0,0.0,0.0,0.0,0.0,0.0,0.0,0.0,0.0,0.0,0.0,0.0,0.0,0.0,0.0,0.0,0.0,0.0,0.0,4.8913,4.8913,4.8913,4.8913,4.8913,4.8913,4.8913,4.9187,4.9691,4.9844,5.0019,5.0199,5.0199,5.0234,5.0332,5.0762,5.0781,5.0586,5.084,5.1011,5.1148,5.1148,5.1265,5.1401,5.1401,5.1401,5.1401,5.1401,5.1401,5.1401,5.1401,5.1401,5.1401,5.1401,5.1401,5.1401,5.1401,5.1401,5.1401,5.1401,5.1401,5.1401,5.1401,5.1401,5.1401,5.1401,5.1401,5.1401,5.1401,5.1401,5.1499,5.1777,5.1577,5.1401,5.1401,5.1401,5.1401,5.1401,4.9002,4.6744,4.5059,4.3925,4.2608,4.099,4.2404,4.1818,3.8559,4.0003,4.0106,3.8456,4.1614,4.2506,4.0887,4.0887,4.0338,3.9322,4.0389,4.1757,3.171,3.3137,0.0,3.8006,4.0351,0.0,0.0,0.0,0.0,0.0,0.0,0.0,0.0,0.0,0.0,0.0,0.0,0.0,0.0,0.0,0.0,0.0,0.0,0.0,0.0,0.0,0.0,0.0,0.0,0.0,0.0,0.0,0.0,0.0,4.8913,4.8913,4.8913,4.8913,4.8913,0.0,4.8913,4.8913,4.8913,4.9277,4.9687,5.0082,5.0121,4.9863,4.9469,4.998,5.018,5.0141,5.018,5.041,5.0742,5.0742,5.0996,5.1304,5.1343,5.1323,5.1304,5.1382,5.1382,5.1362,5.1401,5.1401,5.1401,5.1401,5.1401,5.1401,5.1401,5.1401,5.1401,5.1401,5.1401,5.1401,5.1401,5.1401,5.1401,5.1401,5.1401,5.1401,5.1401,5.1401,5.1401,5.1401,5.1401,5.1401,5.1401,5.1401,5.1401,5.1401,4.9223,4.7681,4.7433,4.5334,4.3925,4.3698,4.39,4.4052,4.4052,4.3799,4.3571,4.3293,4.3799,4.3925,4.3673,4.3673,4.2404,4.008,4.2277,4.342,3.0659,3.3066,0.0,0.0,4.3712,4.7698,0.0,0.0,0.0,0.0,0.0,0.0,0.0,0.0,0.0,0.0,0.0,0.0,0.0,0.0,0.0,0.0,0.0,0.0,0.0,0.0,0.0,0.0,0.0,0.0,0.0,0.0,0.0,4.8913,4.8913,4.8913,4.8913,4.8913,4.8913,0.0,4.8913,4.8913,4.8913,4.8988,4.9066,4.9206,4.9512,4.9414,4.9086,4.9887,4.998,4.9707,5.0063,5.0258,5.0336,5.0336,5.0371,5.0488,5.082,5.0723,5.0547,5.1187,5.1187,5.0996,5.1304,5.1401,5.1401,5.1401,5.1401,5.1401,5.1401,5.1401,5.1401,5.1401,5.1401,5.1401,5.1401,5.1401,5.1401,5.1401,5.1401,5.1401,5.1401,5.1401,5.1401,5.1401,5.1401,5.1401,5.1401,5.1401,5.1401,5.1401,5.0871,4.9684,4.7582,4.8786,4.8762,4.6644,4.849,4.9659,4.9659,4.7631,4.5502,4.3344,4.7489,4.8614,4.652,4.652,4.6203,4.5627,4.4026,4.4455,3.0698,3.3536,0.0,4.2027,0.0,4.9379,5.0043,0.0,0.0,0.0,0.0,0.0,0.0,0.0,0.0,0.0,0.0,0.0,0.0,0.0,0.0,0.0,0.0,0.0,0.0,0.0,0.0,0.0,0.0,0.0,0.0,4.8913,4.8913,4.8913,4.8913,4.8913,4.8913,4.8913,4.8913,4.8913,4.8913,4.8913,4.8913,4.8913,4.8913,4.8913,4.9125,4.9105,4.8933,4.9379,4.9437,4.9238,4.9476,4.9691,4.9863,4.9863,5.0,5.0238,5.043,5.0395,5.0278,5.0683,5.0683,5.0547,5.0762,5.084,5.0879,5.105,5.1109,5.1148,5.1362,5.1401,5.1401,5.1401,5.1401,5.1401,5.1401,5.1401,5.1401,5.1401,5.1401,5.1401,5.1401,5.1401,5.1401,5.1401,5.1401,5.1401,5.1401,5.1401,5.1401,5.1401,5.1401,5.0822,4.942,5.0603,5.0798,4.9395,5.0627,5.1401,5.1401,5.007,4.8638,4.7216,4.9953,5.0725,4.9322,4.9322,4.8663,4.7383,4.5928,4.5327,3.0662,3.4158,3.7952,4.4564,4.7812,0.0,5.0082,5.0781,0.0,0.0,0.0,0.0,0.0,0.0,0.0,0.0,0.0,0.0,0.0,0.0,0.0,0.0,0.0,0.0,0.0,0.0,0.0,0.0,0.0,0.0,4.8913,4.8913,4.8913,4.8913,4.8913,4.8913,4.8913,4.8913,4.8913,4.8913,4.8913,4.8913,4.8913,4.8913,4.8913,4.8913,4.8913,4.8913,4.8913,4.8913,4.8913,4.8913,4.8913,4.9105,4.9414,4.9414,4.9648,4.9984,5.0063,5.0043,5.0004,5.016,5.016,5.0102,5.018,5.0199,5.0297,5.0683,5.0801,5.0898,5.1304,5.1401,5.1401,5.1401,5.1401,5.1401,5.1401,5.1401,5.1401,5.1401,5.1401,5.1401,5.1401,5.1401,5.1401,5.1401,5.1401,5.1401,5.1401,5.1401,5.1401,5.1401,5.1401,5.1401,5.1401,5.1401,5.1401,5.1401,5.1401,5.1401,5.1401,5.1401,5.1401,5.1401,5.1401,5.1401,5.1401,5.1401,5.0266,4.8095,4.7631,4.6445,2.8815,3.4508,4.0802,0.0,4.7386,4.9183,0.0,0.0,0.0,0.0,0.0,0.0,0.0,0.0,0.0,0.0,0.0,0.0,0.0,0.0,0.0,0.0,0.0,0.0,0.0,0.0,0.0,0.0,0.0,0.0,4.8913,4.8913,4.8913,4.8913,4.8913,4.8913,4.8913,4.8913,4.8913,4.8913,4.8913,4.8913,4.8913,4.8913,4.8913,4.8913,4.8913,4.8913,4.8913,4.8913,4.8913,4.8913,4.8913,4.891,4.8968,4.8968,4.9031,4.9105,4.9473,4.9355,4.9206,4.9945,4.9922,4.9664,5.0082,5.0199,5.0297,5.0683,5.0801,5.0898,5.1304,5.1401,5.1401,5.1401,5.1401,5.1401,5.1401,5.1401,5.1401,5.1401,5.1401,5.1401,5.1401,5.1401,5.1401,5.1401,5.1401,5.1401,5.1401,5.1401,5.1401,5.1401,5.1401,5.1401,5.1401,5.1401,5.1401,5.1401,5.1401,5.1401,5.1401,5.1401,5.1401,5.1401,5.1401,5.1401,5.1401,5.1401,5.1231,5.0798,4.849,4.8441,2.9849,3.6115,4.1777,4.5449,4.7441,4.8753,4.9609,0.0,0.0,0.0,0.0,0.0,0.0,0.0,0.0,0.0,0.0,0.0,0.0,0.0,0.0,0.0,0.0,0.0,0.0,0.0,0.0,0.0,0.0,4.8913,4.8913,4.8913,4.8913,4.8913,4.8913,4.8913,4.8913,4.8913,4.8913,4.8913,4.8913,4.8913,4.8913,4.8913,4.8913,4.8913,4.8913,4.8913,4.8913,4.8913,4.8913,4.8913,4.8913,4.8913,4.8913,4.8913,4.8913,4.8933,4.9105,4.9046,4.8972,4.9363,4.934,4.9203,4.9398,4.9457,4.9555,4.9961,5.0074,5.0211,5.0874,5.105,5.1109,5.1343,5.1401,5.1401,5.1401,5.1401,5.1401,5.1401,5.1401,5.1401,5.1401,5.1401,5.1401,5.1401,5.1401,5.1401,5.1401,5.1401,5.1401,5.1401,5.166,5.1699,5.1421,5.1636,5.1699,5.1421,5.1401,5.1401,5.1401,5.1401,5.1401,5.1401,5.1401,5.1401,5.1401,5.1401,5.1401,5.1328,4.8638,4.8027,3.046,3.5829,4.0038,4.41,4.6189,4.7558,0.0,0.0,0.0,0.0,0.0,0.0,0.0,0.0,0.0,0.0,0.0,0.0,0.0,0.0,0.0,0.0,0.0,0.0,0.0,0.0,0.0,0.0,0.0,4.8913,4.8913,4.8913,4.8913,4.8913,4.8913,4.8913,4.8913,4.8913,4.8913,4.8913,4.8913,4.8913,4.8913,4.8913,4.8913,4.8913,4.8913,4.8913,4.8913,4.8913,4.8913,4.8913,4.8913,4.8913,4.8913,4.8913,4.8913,4.8913,4.8913,4.8913,4.8913,4.8913,4.8913,4.8913,4.8913,4.8913,4.8968,4.9394,4.9508,4.9703,5.0562,5.0801,5.0894,5.1304,5.1401,5.1401,5.1401,5.1401,5.1401,5.1401,5.1401,5.1401,5.1401,5.1401,5.1401,5.1401,5.1401,5.1401,5.1401,5.1401,5.1401,5.1401,5.1719,5.1777,5.144,5.1719,5.1777,5.1421,5.1401,5.1401,5.1401,5.1401,5.1401,5.1401,5.1401,5.1401,5.1401,5.1401,5.1401,5.1353,4.9346,4.8416,2.9125,3.1776,3.4372,3.9082,4.2441,4.5137,0.0,0.0,0.0,0.0,0.0,0.0,0.0,0.0,0.0,0.0,0.0,0.0,0.0,0.0,0.0,0.0,0.0,0.0,0.0,0.0,0.0,0.0,0.0,4.8913,4.8913,4.8913,4.8913,4.8913,4.8913,4.8913,4.8913,4.8913,4.8913,4.8913,4.8913,4.8913,4.8913,4.8913,4.8913,4.8913,4.8913,4.8913,4.8913,4.8913,4.8913,4.8913,4.8913,4.8913,4.8913,4.8913,4.8913,4.8913,4.8913,4.8913,4.8913,4.8913,4.8913,4.8913,4.8913,4.8913,4.8968,4.9394,4.9508,4.9703,5.0562,5.0801,5.0894,5.1304,5.1401,5.1401,5.1401,5.1401,5.1401,5.1401,5.1401,5.1401,5.1401,5.1401,5.1401,5.1401,5.1401,5.1401,5.1401,5.1401,5.1401,5.1401,5.1421,5.144,5.1401,5.1421,5.144,5.1401,5.1401,5.1401,5.1401,5.1401,5.1401,5.1401,5.1401,5.1401,5.1401,5.1401,5.1401,5.1401,5.1256,5.1183,2.8119,3.084,3.3672,3.7324,4.0312,4.2911,4.506,4.7051,4.8636,0.0,0.0,0.0,0.0,0.0,0.0,0.0,0.0,0.0,0.0,0.0,0.0,0.0,0.0,0.0,0.0,0.0,0.0,0.0,0.0,0.0,4.8913,4.8913,4.8913,4.8913,4.8913,4.8913,4.8913,4.8913,4.8913,4.8913,4.8913,4.8913,4.8913,4.8913,4.8913,4.8913,4.8913,4.8913,4.8913,4.8913,4.8913,4.8913,4.8913,4.8913,4.8913,4.8913,4.8913,4.8913,4.8913,4.8913,4.8913,4.8913,4.8913,4.8913,4.8913,4.8913,4.8933,4.9066,4.9297,4.9644,5.0254,5.0605,5.0894,5.1304,5.1401,5.1401,5.1401,5.1401,5.1401,5.1401,5.1401,5.1401,5.1401,5.1401,5.1323,5.105,5.1226,5.1304,5.103,5.1245,5.1401,5.1401,5.168,5.1738,5.144,5.168,5.1719,5.1421,5.1401,5.1401,5.1401,5.1401,5.1401,5.1401,5.1401,5.1401,5.1401,5.1401,5.1401,5.1401,5.1401,5.1401,2.6523,2.8998,3.189,3.5176,3.742,3.9706,4.3184,0.0,4.6816,0.0,0.0,0.0,0.0,0.0,0.0,0.0,0.0,0.0,0.0,0.0,0.0,0.0,0.0,0.0,0.0,0.0,0.0,0.0,0.0,0.0,4.8913,4.8913,4.8913,4.8913,4.8913,4.8913,4.8913,4.8913,4.8913,4.8913,4.8913,4.8913,4.8913,4.8913,4.8913,4.8913,4.8913,4.8913,4.8913,4.8913,4.8913,4.8913,4.8913,4.8913,4.8913,4.8913,4.8913,4.8913,4.8913,4.8913,4.8913,4.8913,4.8913,4.8913,4.8913,4.8913,4.8913,4.8913,4.918,4.9605,5.0082,5.0586,5.1069,5.1343,5.1401,5.1401,5.1401,5.1401,5.1401,5.1401,5.1401,5.1401,5.1401,5.1401,5.1304,5.103,5.1226,5.1304,5.1055,5.1226,5.1401,5.1401,5.1699,5.1738,5.144,5.1699,5.1738,5.1421,5.1401,5.1479,5.1616,5.1616,5.1694,5.1831,5.1694,5.1616,5.1616,5.1479,5.1401,5.1401,5.1401,5.1401,0.0,0.0,0.0,0.0,0.0,0.0,4.1465,0.0,4.3613,0.0,0.0,0.0,0.0,0.0,0.0,0.0,0.0,0.0,0.0,0.0,0.0,0.0,0.0,0.0,0.0,0.0,0.0,0.0,0.0,4.8874,4.8874,4.8874,4.8874,4.8874,4.8874,4.8874,4.8874,4.8874,4.8874,4.8874,4.8874,4.8894,4.8894,4.8894,4.8913,4.8913,4.8913,4.8913,4.8913,4.8913,4.8913,4.8913,4.8913,4.8913,4.8913,4.8913,4.8913,4.8913,4.8913,4.8913,4.8913,4.8913,4.8913,4.8933,4.8933,4.8933,4.8952,4.8952,4.9219,4.9644,5.0098,5.082,5.1401,5.1401,5.1401,5.1401,5.1401,5.1401,5.1401,5.1401,5.1401,5.1401,5.1401,5.1401,5.1401,5.1382,5.1382,5.1382,5.1382,5.1382,5.1401,5.1401,5.1401,5.1401,5.1401,5.1401,5.1421,5.1421,5.1421,5.1616,5.2114,5.2134,5.2285,5.2695,5.2305,5.2114,5.2114,5.1616,5.1401,5.1401,5.1401,5.1401,2.4481,0.0,0.0,0.0,0.0,0.0,0.0,0.0,0.0,4.3301,0.0,0.0,0.0,0.0,0.0,0.0,0.0,0.0,0.0,0.0,0.0,0.0,0.0,0.0,0.0,0.0,0.0,0.0,4.7952,4.7952,4.7952,4.7952,4.7952,4.7952,4.7952,4.7952,4.7952,4.7952,4.7952,4.7952,4.8242,4.8379,4.8421,4.8734,4.8913,4.8913,4.8913,4.8913,4.8913,4.8913,4.8913,4.8913,4.8913,4.8913,4.8913,4.8913,4.8913,4.8913,4.8913,4.8913,4.8913,4.8913,4.9105,4.9313,4.9313,4.957,4.9828,4.9828,5.0117,5.0547,5.0952,5.1226,5.1401,5.1401,5.1401,5.1401,5.1401,5.1401,5.1401,5.1401,5.1401,5.1401,5.1401,5.1401,5.1304,5.0991,5.0976,5.0976,5.0976,5.0976,5.1069,5.1382,5.1401,5.1401,5.1401,5.1401,5.1538,5.1875,5.1914,5.209,5.2519,5.2539,5.2598,5.2715,5.2305,5.2114,5.2114,5.1616,5.1401,5.1401,5.1401,5.1401,2.521,0.0,0.0,0.0,0.0,0.0,0.0,3.4983,0.0,0.0,0.0,0.0,0.0,0.0,0.0,0.0,0.0,0.0,0.0,0.0,0.0,0.0,0.0,0.0,0.0,0.0,0.0,4.76,4.76,4.76,4.76,4.76,4.76,4.76,4.76,4.76,4.76,4.76,4.76,4.76,4.8008,4.8203,4.8223,4.8675,4.8913,4.8913,4.8913,4.8913,4.8913,4.8913,4.8913,4.8913,4.8913,4.8913,4.8913,4.8913,4.8913,4.8913,4.8913,4.8913,4.8933,4.9105,4.9316,4.9547,4.9722,4.998,5.0199,5.0199,5.0488,5.0898,5.1304,5.1401,5.1401,5.1401,5.1401,5.1401,5.1401,5.1401,5.1401,5.1401,5.1401,5.1401,5.1401,5.1401,5.1323,5.1069,5.105,5.105,5.105,5.105,5.1128,5.1382,5.1401,5.1401,5.1401,5.1401,5.1519,5.1797,5.1973,5.2266,5.2695,5.2891,5.2988,5.2988,5.2558,5.2168,5.1816,5.1538,5.1401,5.1401,5.1401,5.1401,2.642,2.7194,0.0,0.0,0.0,0.0,3.3851,3.459,3.5469,0.0,0.0,0.0,0.0,0.0,0.0,0.0,0.0,0.0,0.0,0.0,0.0,0.0,0.0,0.0,0.0,4.7483,4.7464,4.7464,4.7464,4.7464,4.7464,4.7464,4.7464,4.7464,4.7464,4.7464,4.7464,4.7464,4.7464,4.7464,4.7871,4.8086,4.8144,4.8617,4.8855,4.8913,4.8913,4.8913,4.8913,4.8913,4.8913,4.8913,4.8913,4.8913,4.8913,4.8913,4.8913,4.8913,4.8913,4.8913,4.8972,4.9352,4.9547,4.9664,5.0141,5.0297,5.0336,5.0336,5.0586,5.0957,5.1304,5.1401,5.1401,5.1401,5.1401,5.1401,5.1401,5.1401,5.1401,5.1401,5.1401,5.1401,5.1401,5.1401,5.1401,5.1401,5.1362,5.1362,5.1401,5.1362,5.1362,5.1401,5.1401,5.1401,5.1401,5.1401,5.1421,5.1479,5.1914,5.2344,5.2754,5.317,5.341,5.341,5.2891,5.2246,5.1401,5.1401,5.1401,5.1401,5.1401,5.1401,2.7969,2.8549,2.9168,0.0,0.0,0.0,0.0,2.9952,3.1825,0.0,3.5527,0.0,0.0,0.0,0.0,0.0,0.0,0.0,0.0,0.0,0.0,0.0,0.0,0.0,0.0,4.6758,4.6543,4.6543,4.6543,4.6543,4.6543,4.6543,4.6543,4.6543,4.6543,4.6543,4.6543,4.6543,4.6543,4.6562,4.695,4.7341,4.7737,4.8144,4.8558,4.8913,4.8913,4.8913,4.8913,4.8913,4.8913,4.8913,4.8913,4.8913,4.8913,4.8913,4.8913,4.8913,4.8913,4.8913,4.8972,4.9352,4.9766,5.0137,5.0547,5.0918,5.1167,5.1167,5.1226,5.1304,5.1382,5.1401,5.1401,5.1401,5.1401,5.1401,5.1401,5.1401,5.1401,5.1401,5.1401,5.1401,5.1401,5.1401,5.1401,5.1401,5.1109,5.103,5.1362,5.1109,5.103,5.1382,5.1401,5.1401,5.1401,5.1401,5.1558,5.1933,5.2344,5.2793,5.3228,5.3345,5.341,5.341,5.2622,5.1953,5.1401,5.1401,5.1401,5.1401,5.1401,5.1401,2.935,2.9584,3.0131,2.9687,0.0,0.0,0.0,0.0,0.0,0.0,0.0,0.0,0.0,0.0,0.0,0.0,0.0,0.0,0.0,0.0,0.0,0.0,0.0,0.0,0.0,4.576,4.5762,4.5976,4.5996,4.6074,4.6289,4.6308,4.6308,4.6308,4.6308,4.6308,4.6308,4.6308,4.6308,4.6308,4.6716,4.7168,4.762,4.8008,4.846,4.8913,4.8913,4.8913,4.8913,4.8913,4.8913,4.8913,4.8913,4.8913,4.8913,4.8913,4.9027,4.9199,4.9199,4.9359,4.9613,5.0019,5.0312,5.0566,5.0996,5.1245,5.1401,5.1401,5.1401,5.1401,5.1401,5.1401,5.1401,5.1401,5.1401,5.1401,5.1401,5.1401,5.1401,5.1401,5.1401,5.1401,5.1401,5.1401,5.1401,5.1401,5.1226,5.1167,5.1382,5.1226,5.1167,5.1382,5.1401,5.1401,5.1401,5.1401,5.1499,5.1738,5.2168,5.2525,5.274,5.2955,5.2955,5.2759,5.209,5.166,5.1401,5.1401,5.1401,5.1401,5.1401,5.1401,0.0,0.0,0.0,0.0,0.0,3.0073,0.0,0.0,0.0,0.0,0.0,0.0,0.0,0.0,0.0,0.0,0.0,0.0,0.0,0.0,0.0,0.0,0.0,0.0,0.0,4.453,4.4705,4.551,4.5177,4.5314,4.6133,4.6191,4.6211,4.6308,4.6308,4.6308,4.6308,4.6308,4.6308,4.6308,4.6618,4.707,4.762,4.793,4.8382,4.8913,4.8913,4.8913,4.8913,4.8913,4.8913,4.8913,4.8913,4.8952,4.9007,4.9007,4.9277,4.9625,4.9625,4.9883,5.0278,5.0664,5.0859,5.0996,5.1304,5.1401,5.1401,5.1401,5.1401,5.1401,5.1401,5.1401,5.1401,5.1401,5.1401,5.1401,5.1401,5.1401,5.1401,5.1401,5.1401,5.1401,5.1401,5.1401,5.1401,5.1401,5.1401,5.1401,5.1401,5.1401,5.1401,5.1401,5.1401,5.1401,5.1401,5.1401,5.1401,5.1401,5.1836,5.2114,5.2114,5.2402,5.2383,5.1973,5.1577,5.1401,5.1401,5.1401,5.1401,5.1401,5.1401,5.1401,0.0,0.0,0.0,0.0,3.3324,0.0,0.0,0.0,0.0,0.0,0.0,0.0,0.0,0.0,0.0,0.0,0.0,0.0,0.0,0.0,0.0,0.0,0.0,0.0,0.0,0.0,4.2968,4.494,4.332,4.3262,4.5646,4.5764,4.594,4.6289,4.6308,4.6308,4.6308,4.6308,4.6308,4.6308,4.6348,4.6797,4.76,4.7659,4.8109,4.8913,4.8913,4.8913,4.8913,4.8913,4.8913,4.8913,4.8913,4.9125,4.943,4.943,4.9726,5.0121,5.0121,5.016,5.0278,5.0664,5.103,5.1343,5.1382,5.1401,5.1401,5.1401,5.1401,5.1401,5.1401,5.1401,5.1401,5.1401,5.1401,5.1401,5.1401,5.1401,5.1401,5.1401,5.1401,5.1401,5.1401,5.1401,5.1401,5.1401,5.1401,5.1401,5.1401,5.1401,5.1401,5.1401,5.1401,5.1401,5.1401,5.1401,5.1401,5.1401,5.1836,5.2114,5.2114,5.2153,5.1953,5.1499,5.144,5.1401,5.1401,5.1401,5.1401,5.1401,5.1401,5.1401,0.0,0.0,0.0,0.0,0.0,0.0,0.0,0.0,2.9531,0.0,0.0,0.0,0.0,0.0,0.0,0.0,0.0,0.0,0.0,0.0,0.0,0.0,0.0,0.0,0.0,0.0,0.0,0.0,0.0,4.2364,4.4435,4.5275,4.5783,4.5959,4.6172,4.6308,4.6308,4.6308,4.6308,4.6308,4.6308,4.6758,4.76,4.76,4.8069,4.8913,4.8913,4.8913,4.8913,4.8913,4.8913,4.8913,4.8913,4.9164,4.9508,4.9508,4.9937,5.0547,5.0547,5.0703,5.0913,5.1089,5.1265,5.1401,5.1401,5.1401,5.1401,5.1401,5.1401,5.1401,5.1401,5.1401,5.1401,5.1401,5.1401,5.1401,5.1401,5.1401,5.1401,5.1401,5.1401,5.1401,5.1401,5.1401,5.1401,5.1401,5.1401,5.1401,5.1401,5.1401,5.1401,5.1401,5.1401,5.1401,5.1401,5.1401,5.1401,5.1401,5.1577,5.1675,5.1675,5.1675,5.1597,5.1421,5.1401,5.1401,5.1401,5.1401,5.1401,5.1401,5.1401,5.1401,3.6406,0.0,0.0,0.0,0.0,0.0,0.0,0.0,0.0,0.0,0.0,0.0,0.0,0.0,0.0,0.0,0.0,0.0,0.0,0.0,0.0,0.0,0.0,0.0,0.0,0.0,0.0,0.0,0.0,0.0,4.3398,4.4474,4.5217,4.5686,4.5976,4.6191,4.6308,4.6902,4.6902,4.6308,4.6902,4.7335,4.76,4.76,4.8069,4.8913,4.8913,4.8913,4.8913,4.8913,4.8913,4.8913,4.8913,4.9164,4.9527,4.9644,5.0152,5.082,5.0937,5.1148,5.1401,5.1401,5.1401,5.1401,5.1401,5.1401,5.1401,5.1401,5.1401,5.1401,5.1401,5.1401,5.1401,5.1401,5.1401,5.1401,5.1401,5.1401,5.1401,5.1401,5.1401,5.1401,5.1401,5.1401,5.1401,5.1401,5.1401,5.1401,5.1401,5.1401,5.1401,5.1401,5.1401,5.1401,5.1401,5.1401,5.1401,5.1401,5.1401,5.1401,5.1401,5.1401,5.1401,5.1401,5.1401,5.1401,5.1401,5.1401,5.1401,5.1401,5.1401,5.1401,0.0,0.0,0.0,0.0,0.0,0.0,0.0,0.0,3.1157,0.0,0.0,0.0,0.0,0.0,0.0,0.0,0.0,0.0,0.0,0.0,0.0,0.0,0.0,0.0,0.0,0.0,0.0,0.0,0.0,0.0,4.2872,4.3165,4.3946,4.5646,4.5705,4.592,4.6289,4.8419,4.8419,4.633,4.8462,4.8825,4.76,4.76,4.8069,4.8913,4.8913,4.8913,4.8913,4.8913,4.8913,4.8913,4.8913,4.9164,4.9566,5.0,5.043,5.0859,5.1245,5.1401,5.1401,5.1401,5.1401,5.1401,5.1401,5.1401,5.1401,5.1401,5.1401,5.1401,5.1401,5.1401,5.1401,5.1401,5.1401,5.1401,5.1401,5.1401,5.1401,5.1401,5.1401,5.1401,5.1401,5.1401,5.1401,5.1401,5.1401,5.1401,5.1401,5.1401,5.1401,5.1401,5.1401,5.1401,5.1401,5.1401,5.1401,5.1401,5.1401,5.1401,5.1401,5.1401,5.1401,5.1401,5.1401,5.1401,5.1401,5.1401,5.1401,5.1401,5.1401,5.1401,0.0,0.0,4.1269,3.7365,0.0,0.0,0.0,0.0,0.0,0.0,0.0,0.0,0.0,0.0,0.0,0.0,0.0,0.0,0.0,0.0,0.0,0.0,0.0,0.0,0.0,0.0,0.0,0.0,3.6777,0.0,0.0,4.2325,4.336,4.3966,4.5099,4.5764,4.59,4.6915,4.7054,4.6308,4.7054,4.7489,4.76,4.76,4.8069,4.8913,4.8913,4.8913,4.8913,4.8913,4.8913,4.8913,4.8913,4.8968,4.9203,4.9926,5.0449,5.0859,5.1265,5.1401,5.1401,5.1401,5.1401,5.1401,5.1401,5.1401,5.1401,5.1401,5.1401,5.1401,5.1401,5.1401,5.1401,5.1401,5.1401,5.1401,5.1401,5.1401,5.1401,5.1401,5.1401,5.1401,5.1401,5.1401,5.1401,5.1401,5.1401,5.1401,5.1401,5.1401,5.1401,5.1401,5.1401,5.1401,5.1401,5.1401,5.1401,5.1401,5.1401,5.1401,5.1401,5.1401,5.1401,5.1401,5.1401,5.1401,5.1401,5.1401,5.1401,5.1401,5.1401,5.1401,4.2637,4.3008,0.0,0.0,3.8322,0.0,0.0,0.0,0.0,0.0,0.0,0.0,0.0,0.0,0.0,0.0,0.0,0.0,0.0,0.0,0.0,0.0,0.0,0.0,0.0,0.0,3.3613,3.5393,3.527,0.0,0.0,0.0,4.2441,4.3087,4.463,4.5529,4.5705,4.6879,4.7076,4.6308,4.7097,4.7533,4.76,4.76,4.8069,4.8913,4.8913,4.8913,4.8913,4.8913,4.8913,4.8913,4.8913,4.8913,4.9011,4.9867,5.0547,5.105,5.1323,5.1401,5.1401,5.1401,5.1401,5.1401,5.1401,5.1401,5.1401,5.1401,5.1401,5.1401,5.1401,5.1401,5.1401,5.1401,5.1401,5.1401,5.1401,5.1401,5.1401,5.1401,5.1401,5.1401,5.1401,5.1401,5.1401,5.1401,5.1401,5.1401,5.1401,5.1401,5.1401,5.1401,5.1401,5.1401,5.1401,5.1401,5.1401,5.1401,5.1401,5.1401,5.1401,5.1401,5.1401,5.1401,5.1401,5.1401,5.1401,5.1401,5.1401,5.1401,5.1401,5.1401]}]]